[[{"header":{"parameterUnit":"m.s-1","parameterCategory":1,"la1":30.6,"la2":29.2853,"lo1":-89.7004,"lo2":-87.6739,"dy":0.0162,"dx":0.0183,"nx":112,"ny":82,"refTime":"2026-03-03T00:00:00:Z","depth":0,"parameterNumber":2,"parameterNumberName":"U-component_of_WINDS"},"data":[0.0,0.0,0.0,0.0,0.0,0.0,0.0,0.0,0.0,0.0,0.0,0.0,0.0,0.0,0.0,0.0,0.0,0.0,0.0,0.0,0.0,0.0,0.0,0.0,0.0,0.0,0.0,0.0,0.0,0.0,0.0,0.0,0.0,0.0,0.0,0.0,0.0,0.0,0.0,0.0,0.0,0.0,0.0,0.0,0.0,0.0,0.0,0.0,0.0,0.0,0.0,0.0,0.0,0.0,0.0,0.0,0.0,0.0,0.0,0.0,0.0,0.0,0.0,0.0,0.0,0.0,0.0,0.0,0.0,0.0,0.0,0.0,0.0,0.0,0.0,0.0,0.0,0.0,0.0,0.0,0.0,0.0,0.0,0.0,0.0,0.0,0.0,0.0,0.0,0.0,-4.2011,-4.1682,-4.348,-4.4691,-4.4691,-4.5204,-4.4387,-4.1687,0.0,0.0,0.0,0.0,0.0,0.0,0.0,0.0,0.0,0.0,0.0,0.0,0.0,0.0,0.0,0.0,0.0,0.0,0.0,0.0,0.0,0.0,0.0,0.0,0.0,0.0,0.0,0.0,0.0,0.0,0.0,0.0,0.0,0.0,0.0,0.0,0.0,0.0,0.0,0.0,0.0,0.0,0.0,0.0,0.0,0.0,0.0,0.0,0.0,0.0,0.0,0.0,0.0,0.0,0.0,0.0,0.0,0.0,0.0,0.0,0.0,0.0,0.0,0.0,0.0,0.0,0.0,0.0,0.0,0.0,0.0,0.0,0.0,0.0,0.0,0.0,0.0,0.0,0.0,0.0,0.0,0.0,0.0,0.0,0.0,0.0,0.0,0.0,0.0,0.0,0.0,0.0,0.0,0.0,0.0,0.0,0.0,0.0,0.0,0.0,0.0,0.0,0.0,0.0,-4.2012,-4.3939,-4.4471,-4.4691,-4.4691,-4.4195,-4.3109,-4.1284,0.0,0.0,0.0,0.0,0.0,0.0,0.0,0.0,0.0,0.0,0.0,0.0,0.0,0.0,0.0,0.0,0.0,0.0,0.0,0.0,0.0,0.0,0.0,0.0,0.0,0.0,0.0,0.0,0.0,0.0,0.0,0.0,0.0,0.0,0.0,0.0,0.0,0.0,0.0,0.0,0.0,0.0,0.0,0.0,0.0,0.0,0.0,0.0,0.0,0.0,0.0,0.0,0.0,0.0,0.0,0.0,0.0,0.0,0.0,0.0,0.0,0.0,0.0,0.0,0.0,0.0,0.0,0.0,0.0,0.0,0.0,0.0,0.0,0.0,0.0,0.0,0.0,0.0,0.0,0.0,0.0,0.0,0.0,0.0,0.0,0.0,0.0,0.0,0.0,0.0,0.0,0.0,0.0,0.0,0.0,0.0,0.0,0.0,0.0,0.0,0.0,0.0,0.0,-4.0912,-4.1864,-4.3846,-4.4048,-4.4048,-4.4048,-4.3699,-4.28,-4.1187,-4.1585,0.0,0.0,0.0,0.0,0.0,0.0,0.0,0.0,0.0,0.0,0.0,0.0,0.0,0.0,0.0,0.0,0.0,0.0,0.0,0.0,0.0,0.0,0.0,0.0,0.0,0.0,0.0,0.0,0.0,0.0,0.0,0.0,0.0,0.0,0.0,0.0,0.0,0.0,0.0,0.0,0.0,0.0,0.0,0.0,0.0,0.0,0.0,0.0,0.0,0.0,0.0,0.0,0.0,0.0,0.0,0.0,0.0,0.0,0.0,0.0,0.0,0.0,0.0,0.0,0.0,0.0,0.0,0.0,0.0,0.0,0.0,0.0,0.0,0.0,0.0,0.0,0.0,0.0,0.0,0.0,0.0,0.0,0.0,0.0,0.0,0.0,0.0,0.0,0.0,0.0,0.0,0.0,0.0,0.0,0.0,0.0,0.0,0.0,0.0,0.0,0.0,0.0,-4.1224,-4.1529,-4.3139,-4.3262,-4.3222,-4.3222,-4.3039,-4.2323,-4.091,-4.0836,0.0,0.0,0.0,0.0,0.0,0.0,0.0,0.0,0.0,0.0,0.0,0.0,0.0,0.0,0.0,0.0,0.0,0.0,0.0,0.0,0.0,0.0,0.0,0.0,0.0,0.0,0.0,0.0,0.0,0.0,0.0,0.0,0.0,0.0,0.0,0.0,0.0,0.0,0.0,0.0,0.0,0.0,0.0,0.0,0.0,0.0,0.0,0.0,0.0,0.0,0.0,0.0,0.0,0.0,0.0,0.0,0.0,0.0,0.0,0.0,0.0,0.0,0.0,0.0,0.0,0.0,0.0,0.0,0.0,0.0,0.0,0.0,0.0,0.0,0.0,0.0,0.0,0.0,0.0,0.0,0.0,0.0,0.0,0.0,0.0,0.0,0.0,0.0,0.0,0.0,0.0,0.0,0.0,0.0,0.0,0.0,0.0,0.0,0.0,0.0,0.0,0.0,-4.009,-4.0962,-4.2588,-4.2539,-4.2378,-4.2378,-4.1699,-4.091,-4.0029,-3.9974,0.0,0.0,0.0,0.0,0.0,0.0,0.0,0.0,0.0,0.0,0.0,0.0,0.0,0.0,0.0,0.0,0.0,0.0,0.0,0.0,0.0,0.0,0.0,0.0,0.0,0.0,0.0,0.0,0.0,0.0,0.0,0.0,0.0,0.0,0.0,0.0,0.0,0.0,0.0,0.0,0.0,0.0,0.0,0.0,0.0,0.0,0.0,0.0,0.0,0.0,0.0,0.0,0.0,0.0,0.0,0.0,0.0,0.0,0.0,0.0,0.0,0.0,0.0,0.0,0.0,0.0,0.0,0.0,0.0,0.0,0.0,0.0,0.0,0.0,0.0,0.0,0.0,0.0,0.0,0.0,0.0,0.0,0.0,0.0,0.0,0.0,0.0,0.0,0.0,0.0,0.0,0.0,0.0,0.0,0.0,0.0,0.0,0.0,0.0,0.0,0.0,0.0,-3.8714,-3.9542,-4.0651,-4.0682,-4.0633,-4.0633,-4.0327,-3.995,-3.9417,0.0,0.0,0.0,0.0,0.0,0.0,0.0,0.0,0.0,0.0,0.0,0.0,0.0,0.0,0.0,0.0,0.0,0.0,0.0,0.0,0.0,0.0,0.0,0.0,0.0,0.0,0.0,0.0,0.0,0.0,0.0,0.0,0.0,0.0,0.0,0.0,0.0,0.0,0.0,0.0,0.0,0.0,0.0,0.0,0.0,0.0,0.0,0.0,0.0,0.0,0.0,0.0,0.0,0.0,0.0,0.0,0.0,0.0,0.0,0.0,0.0,0.0,0.0,0.0,0.0,0.0,0.0,0.0,0.0,0.0,0.0,0.0,0.0,0.0,0.0,0.0,0.0,0.0,0.0,0.0,0.0,0.0,0.0,0.0,0.0,0.0,0.0,0.0,0.0,0.0,0.0,0.0,0.0,0.0,0.0,0.0,0.0,0.0,0.0,0.0,0.0,0.0,-3.6641,-3.7569,-3.8443,-3.9221,-3.9259,-3.9305,-3.9554,-3.9128,-3.8731,-3.851,0.0,0.0,0.0,0.0,0.0,0.0,0.0,0.0,0.0,0.0,0.0,0.0,0.0,0.0,0.0,0.0,0.0,0.0,0.0,0.0,0.0,0.0,0.0,0.0,0.0,0.0,0.0,0.0,0.0,0.0,0.0,0.0,0.0,0.0,0.0,0.0,0.0,0.0,0.0,0.0,0.0,0.0,0.0,0.0,0.0,0.0,0.0,0.0,0.0,0.0,0.0,0.0,0.0,0.0,0.0,0.0,0.0,0.0,0.0,0.0,0.0,0.0,0.0,0.0,0.0,0.0,0.0,0.0,0.0,0.0,0.0,0.0,0.0,0.0,0.0,0.0,0.0,0.0,0.0,0.0,0.0,0.0,0.0,0.0,0.0,0.0,0.0,0.0,0.0,0.0,0.0,0.0,0.0,0.0,0.0,0.0,0.0,0.0,0.0,0.0,0.0,0.0,-3.5481,-3.6753,-3.7866,-3.859,-3.8482,-3.8679,-3.9421,-3.8058,-3.7173,0.0,0.0,0.0,0.0,0.0,0.0,0.0,0.0,0.0,0.0,0.0,0.0,0.0,0.0,0.0,0.0,0.0,0.0,0.0,0.0,0.0,0.0,0.0,0.0,0.0,0.0,0.0,0.0,0.0,0.0,0.0,0.0,0.0,0.0,0.0,0.0,0.0,0.0,0.0,0.0,0.0,0.0,0.0,0.0,0.0,0.0,0.0,0.0,0.0,0.0,0.0,0.0,0.0,0.0,0.0,0.0,0.0,0.0,0.0,0.0,0.0,0.0,0.0,0.0,0.0,0.0,0.0,0.0,0.0,0.0,0.0,0.0,0.0,0.0,0.0,0.0,0.0,0.0,0.0,0.0,0.0,0.0,0.0,0.0,0.0,0.0,0.0,0.0,0.0,0.0,0.0,0.0,0.0,0.0,0.0,0.0,0.0,0.0,0.0,0.0,0.0,0.0,0.0,-3.4726,-3.5608,-3.649,-3.7274,-3.6798,-3.6732,-3.7543,-3.6663,-3.6228,-3.6603,0.0,0.0,0.0,0.0,0.0,0.0,0.0,0.0,0.0,0.0,0.0,0.0,0.0,0.0,0.0,0.0,0.0,0.0,0.0,0.0,0.0,0.0,0.0,0.0,0.0,0.0,0.0,0.0,0.0,0.0,0.0,0.0,0.0,0.0,0.0,0.0,0.0,0.0,0.0,0.0,0.0,0.0,0.0,0.0,0.0,0.0,0.0,0.0,0.0,0.0,0.0,0.0,0.0,0.0,0.0,0.0,0.0,0.0,0.0,0.0,0.0,0.0,0.0,0.0,0.0,0.0,0.0,0.0,0.0,0.0,0.0,0.0,0.0,0.0,0.0,0.0,0.0,0.0,0.0,0.0,0.0,0.0,0.0,0.0,0.0,0.0,0.0,0.0,0.0,0.0,0.0,0.0,0.0,0.0,0.0,0.0,0.0,0.0,0.0,0.0,0.0,0.0,-3.3952,-3.4735,-3.548,-3.6241,-3.6154,-3.6235,-3.6721,-3.6078,-3.5538,-3.5284,0.0,0.0,0.0,0.0,0.0,0.0,0.0,0.0,0.0,0.0,0.0,0.0,0.0,0.0,0.0,0.0,0.0,0.0,0.0,0.0,0.0,0.0,0.0,0.0,0.0,0.0,0.0,0.0,0.0,0.0,0.0,0.0,0.0,0.0,0.0,0.0,0.0,0.0,0.0,0.0,0.0,0.0,0.0,0.0,0.0,0.0,0.0,0.0,0.0,0.0,0.0,0.0,0.0,0.0,0.0,0.0,0.0,0.0,0.0,0.0,0.0,0.0,0.0,0.0,0.0,0.0,0.0,0.0,0.0,0.0,0.0,0.0,0.0,0.0,0.0,0.0,0.0,0.0,0.0,0.0,0.0,0.0,0.0,0.0,0.0,0.0,0.0,0.0,0.0,0.0,0.0,0.0,0.0,0.0,0.0,0.0,0.0,0.0,0.0,0.0,0.0,0.0,-3.3157,-3.4081,-3.4856,-3.5537,-3.6204,-3.6629,-3.6686,-3.6078,-3.5116,-3.3777,0.0,0.0,0.0,0.0,0.0,0.0,0.0,0.0,0.0,0.0,0.0,0.0,0.0,0.0,0.0,0.0,0.0,0.0,0.0,0.0,0.0,0.0,0.0,0.0,0.0,0.0,0.0,0.0,0.0,0.0,0.0,0.0,0.0,0.0,0.0,0.0,0.0,0.0,0.0,0.0,0.0,0.0,0.0,0.0,0.0,0.0,0.0,0.0,0.0,0.0,0.0,0.0,0.0,0.0,0.0,0.0,0.0,0.0,0.0,0.0,-3.3792,-3.402,0.0,0.0,0.0,0.0,0.0,0.0,0.0,0.0,0.0,0.0,0.0,0.0,0.0,0.0,0.0,0.0,0.0,0.0,0.0,0.0,0.0,0.0,0.0,0.0,0.0,0.0,0.0,0.0,0.0,0.0,0.0,0.0,0.0,0.0,0.0,0.0,0.0,0.0,0.0,0.0,-3.2659,-3.3851,-3.4883,-3.5603,-3.5764,-3.608,-3.6658,-3.6037,-3.5262,-3.4436,-3.3049,0.0,0.0,0.0,0.0,0.0,0.0,0.0,0.0,0.0,0.0,0.0,0.0,0.0,0.0,0.0,0.0,0.0,0.0,0.0,0.0,0.0,0.0,0.0,0.0,0.0,0.0,0.0,0.0,0.0,0.0,0.0,0.0,0.0,0.0,0.0,0.0,0.0,0.0,0.0,0.0,0.0,0.0,0.0,0.0,0.0,0.0,0.0,0.0,0.0,0.0,0.0,0.0,0.0,0.0,0.0,0.0,0.0,0.0,0.0,-3.3386,-3.332,0.0,0.0,0.0,0.0,0.0,0.0,0.0,0.0,0.0,0.0,0.0,0.0,0.0,0.0,0.0,0.0,0.0,0.0,0.0,0.0,0.0,0.0,0.0,0.0,0.0,0.0,0.0,0.0,0.0,0.0,0.0,0.0,0.0,0.0,0.0,0.0,0.0,0.0,0.0,0.0,-3.1901,-3.2928,-3.387,-3.4552,-3.4945,-3.5284,-3.5621,-3.5052,-3.4372,-3.3622,-3.2248,0.0,0.0,0.0,0.0,0.0,0.0,0.0,0.0,0.0,0.0,0.0,0.0,0.0,0.0,0.0,0.0,0.0,0.0,0.0,0.0,0.0,0.0,0.0,0.0,0.0,0.0,0.0,0.0,0.0,0.0,0.0,0.0,0.0,0.0,0.0,0.0,0.0,0.0,0.0,0.0,0.0,0.0,0.0,0.0,0.0,0.0,0.0,0.0,0.0,0.0,0.0,0.0,0.0,-3.2965,-3.2971,-3.2475,-3.3587,-3.3493,-3.2475,-3.303,-3.2715,-3.1852,-3.2659,0.0,0.0,0.0,0.0,0.0,0.0,0.0,0.0,0.0,0.0,0.0,0.0,0.0,0.0,0.0,0.0,0.0,0.0,0.0,0.0,0.0,0.0,-2.947,-2.8847,-2.9355,-2.9463,-2.7489,0.0,0.0,0.0,0.0,0.0,0.0,0.0,0.0,0.0,0.0,0.0,-3.0968,-3.1913,-3.2721,-3.326,-3.4028,-3.4437,-3.4356,-3.392,-3.3334,-3.2542,-3.124,-3.0006,0.0,0.0,0.0,0.0,0.0,0.0,0.0,0.0,0.0,0.0,0.0,0.0,0.0,0.0,0.0,0.0,0.0,0.0,0.0,0.0,0.0,0.0,0.0,0.0,0.0,0.0,0.0,0.0,0.0,0.0,0.0,0.0,-3.4039,-3.3376,0.0,0.0,0.0,0.0,0.0,0.0,0.0,0.0,0.0,0.0,0.0,0.0,0.0,-3.2239,-3.2321,-3.2526,-3.2633,-3.2646,-3.2949,-3.3073,-3.2996,-3.3191,-3.3178,-3.3022,-3.3581,0.0,-3.3134,-3.3804,0.0,0.0,0.0,0.0,0.0,0.0,0.0,0.0,0.0,0.0,0.0,0.0,0.0,0.0,0.0,0.0,0.0,0.0,0.0,0.0,0.0,0.0,-2.8881,-2.8323,-2.7964,-2.7634,-2.7341,-2.7531,-2.7793,-2.7751,-2.7026,-2.6637,0.0,0.0,0.0,0.0,0.0,0.0,-2.982,-3.1402,-3.2512,-3.2632,-3.3246,-3.3637,-3.3619,-3.3577,-3.3231,-3.2542,-3.1777,-3.0996,-3.0243,-2.8512,0.0,0.0,0.0,0.0,0.0,0.0,0.0,0.0,0.0,0.0,0.0,0.0,0.0,0.0,0.0,0.0,0.0,0.0,0.0,0.0,0.0,0.0,0.0,0.0,0.0,0.0,0.0,0.0,0.0,-3.2496,-3.245,-3.1874,-3.248,-3.2099,0.0,0.0,0.0,0.0,0.0,0.0,0.0,0.0,0.0,-2.9702,-2.9726,-3.002,-3.0646,-3.0792,-3.1186,-3.1861,-3.1982,-3.2426,-3.3124,-3.3124,-3.3124,-3.3093,-3.3332,-3.3365,-3.3195,-3.3329,-3.2907,-3.2125,0.0,0.0,0.0,0.0,-3.0753,-3.0685,-3.0206,-3.0033,-3.0073,-3.0306,0.0,0.0,0.0,0.0,0.0,0.0,0.0,-2.8856,-2.8692,-2.8553,-2.8335,-2.777,-2.7695,-2.7745,-2.7745,-2.7639,-2.7571,-2.7685,-2.7314,-2.6921,-2.672,-2.6498,0.0,0.0,0.0,-2.8369,-2.8655,-2.9757,-3.0518,-3.0518,-3.0793,-3.1327,-3.2156,-3.1908,-3.1732,-3.176,-3.1605,-3.0981,-2.9855,-2.9451,-2.8524,0.0,0.0,0.0,0.0,0.0,0.0,0.0,0.0,0.0,0.0,0.0,0.0,0.0,0.0,0.0,0.0,0.0,0.0,0.0,0.0,0.0,0.0,0.0,0.0,0.0,0.0,0.0,0.0,-3.1476,-3.1203,-3.044,-3.1101,-3.0673,0.0,0.0,0.0,0.0,0.0,0.0,-2.665,-2.6714,-2.7188,-2.8132,-2.811,-2.8556,-2.9396,-2.9407,-2.9852,-3.0721,-3.0721,-3.1235,-3.2152,-3.2152,-3.2152,-3.2152,-3.2152,-3.2152,-3.2166,-3.2459,-3.2252,-3.1746,-3.1412,-3.1441,-3.1579,-3.1061,-3.0833,-3.0726,-3.0069,-2.9703,-2.9457,-2.9507,-2.9207,-2.8917,-2.9103,0.0,0.0,0.0,0.0,-2.7513,-2.7213,-2.7115,-2.7017,-2.6626,-2.6724,-2.6981,-2.7274,-2.6991,-2.6899,-2.758,-2.7361,-2.6941,-2.6421,-2.6217,0.0,-2.6371,-2.6982,-2.7564,-2.7957,-2.8598,-2.9002,-2.9002,-2.9002,-2.9422,-3.0532,-3.0237,-3.0166,-3.0608,-3.0771,-3.0409,-2.9478,-2.9726,-2.8985,-2.7101,0.0,0.0,0.0,0.0,0.0,0.0,0.0,0.0,0.0,0.0,0.0,0.0,0.0,0.0,0.0,0.0,0.0,0.0,0.0,0.0,0.0,0.0,0.0,0.0,0.0,0.0,0.0,0.0,0.0,-2.9808,-3.0319,0.0,0.0,0.0,0.0,-2.6707,-2.6783,-2.7289,-2.8221,-2.8422,-2.8746,-2.9317,-2.9329,-2.9351,-2.9407,-2.9407,-2.9453,-2.9498,-2.9498,-2.9544,-2.959,-2.959,-2.959,-2.959,-2.959,-2.959,-2.9727,-3.1516,-3.1921,-3.1367,-3.0853,-3.0336,-2.9871,-2.924,-2.9025,-2.9038,-2.9001,-2.8308,-2.7466,-2.7594,-2.6554,-2.5249,-2.5265,-2.5181,0.0,0.0,-2.4781,-2.5079,-2.46,-2.4476,-2.4476,-2.4442,-2.4092,-2.3999,-2.4946,-2.5115,-2.5696,-2.7699,-2.6798,-2.5917,-2.6568,0.0,-2.6161,-2.6843,-2.7528,-2.7971,-2.8013,-2.8598,-2.9002,-2.9002,-2.9002,-2.9048,-2.9107,-2.9079,-2.9079,-2.9107,-2.9111,-2.9315,-2.9757,-2.8699,-2.8312,-2.8673,-2.6457,0.0,0.0,0.0,0.0,0.0,0.0,0.0,0.0,0.0,0.0,0.0,0.0,0.0,0.0,0.0,0.0,0.0,0.0,0.0,0.0,0.0,0.0,0.0,0.0,0.0,0.0,0.0,0.0,-2.9419,-2.9858,0.0,-2.7822,-2.7126,-2.6604,-2.6218,-2.6144,-2.6294,-2.6621,-2.6689,-2.6808,-2.702,-2.702,-2.702,-2.702,-2.702,-2.7437,-2.8226,-2.8226,-2.8634,-2.9407,-2.9407,-2.9407,-2.9385,-2.9127,-2.8993,-2.9026,-2.9028,-2.93,-2.9652,-2.8808,-2.8574,-2.8644,-2.8076,-2.7888,-2.7842,-2.7462,-2.7105,-2.6754,-2.6473,-2.6007,-2.5391,-2.4752,-2.4511,-2.444,-2.4299,-2.4388,-2.4516,-2.4336,-2.4291,-2.4213,-2.385,-2.3649,-2.3705,-2.4415,-2.4294,-2.4351,-2.544,-2.5945,-2.6127,-2.6001,-2.5824,-2.5794,-2.6071,-2.6304,-2.659,-2.6966,-2.722,-2.7384,-2.7384,-2.7384,-2.7604,-2.8117,-2.8149,-2.8149,-2.8149,-2.8684,-2.8844,-2.8444,-2.8557,-2.832,-2.7605,-2.6742,-2.5453,0.0,0.0,0.0,0.0,0.0,0.0,0.0,0.0,0.0,0.0,0.0,0.0,0.0,0.0,0.0,0.0,0.0,0.0,0.0,0.0,0.0,0.0,0.0,0.0,0.0,-2.9205,-2.9157,-2.8667,-2.909,-2.8887,-2.7547,-2.6889,-2.6516,-2.6269,-2.5942,-2.5752,-2.5947,-2.5771,-2.5693,-2.5693,-2.5693,-2.5693,-2.5693,-2.5693,-2.611,-2.6945,-2.6945,-2.74,-2.8168,-2.8168,-2.8082,-2.7911,-2.7645,-2.7465,-2.7261,-2.6475,-2.6518,-2.7092,-2.7034,-2.7251,-2.7541,-2.7172,-2.7049,-2.6909,-2.6168,-2.5823,-2.5574,-2.4767,-2.4495,-2.4344,-2.3509,-2.3352,-2.3438,-2.3315,-2.3234,-2.3229,-2.3068,-2.3063,-2.295,-2.2601,-2.2526,-2.2655,-2.3137,-2.3123,-2.3141,-2.3661,-2.4709,-2.546,-2.5416,-2.5388,-2.549,-2.5854,-2.5887,-2.6059,-2.6449,-2.6499,-2.6499,-2.6499,-2.6499,-2.6714,-2.7263,-2.7284,-2.7284,-2.7284,-2.7636,-2.7675,-2.7317,-2.7656,-2.7503,-2.6759,-2.6382,-2.5325,-2.3538,0.0,0.0,0.0,0.0,0.0,0.0,0.0,0.0,0.0,0.0,0.0,0.0,0.0,0.0,0.0,0.0,0.0,0.0,0.0,0.0,0.0,0.0,0.0,-2.7458,-2.8567,-2.8751,-2.756,-2.7943,-2.7949,-2.7109,-2.6641,-2.6562,-2.6963,-2.6161,-2.5918,-2.6348,-2.5967,-2.5693,-2.5693,-2.5693,-2.5693,-2.5693,-2.5693,-2.5693,-2.5693,-2.5674,-2.5664,-2.5664,-2.5654,-2.5459,-2.5096,-2.5077,-2.4785,-2.4365,-2.3945,-2.3769,-2.3944,-2.5699,-2.6389,-2.6389,-2.6389,-2.6389,-2.6224,-2.5126,-2.4504,-2.3898,-2.2375,-2.1885,-2.1807,-2.1348,-2.1514,-2.1758,-2.1288,-2.1171,-2.1073,-2.0713,-2.0605,-2.0605,-2.0605,-2.0605,-2.0723,-2.1123,-2.1573,-2.2088,-2.2548,-2.3064,-2.3745,-2.4779,-2.4933,-2.53,-2.6314,-2.6452,0.0,-2.6499,-2.6499,-2.6499,-2.6499,-2.6499,-2.6499,-2.6499,-2.6499,-2.6487,-2.6461,-2.59,-2.585,-2.6449,-2.59,-2.5875,-2.6487,-2.5385,-2.4525,-2.4017,0.0,0.0,0.0,0.0,0.0,0.0,0.0,0.0,0.0,0.0,0.0,0.0,0.0,0.0,0.0,0.0,0.0,0.0,0.0,0.0,0.0,-2.5553,-2.6431,-2.7351,-2.7327,-2.7311,-2.759,-2.7747,-2.7744,-2.751,-2.6826,-2.6435,-2.6553,-2.6045,-2.5742,-2.5908,-2.5752,-2.5693,-2.5693,-2.5693,-2.5693,-2.5693,-2.5693,-2.5693,-2.5684,-2.541,-2.5254,-2.5244,-2.4922,-2.4717,-2.458,-2.4277,-2.4072,-2.3935,-2.3496,-2.3276,-2.3345,-2.3851,-2.4016,-2.4016,-2.4016,-2.4016,-2.3973,-2.3681,-2.3471,-2.3252,-2.2244,-2.1885,-2.1738,-2.0977,-2.0869,-2.0938,-2.0781,-2.0752,-2.0723,-2.0635,-2.0605,-2.0605,-2.0605,-2.0605,-2.0635,-2.0723,-2.0878,-2.1002,-2.1171,-2.1312,-2.1935,-2.3635,-2.3891,-2.4253,-2.5252,-2.5406,-2.5699,-2.6418,-2.6499,-2.6499,-2.6499,-2.6499,-2.6499,-2.6499,-2.6499,-2.6311,-2.5862,-2.5686,-2.5661,-2.5824,-2.5686,-2.5875,-2.6487,-2.5385,-2.4713,0.0,0.0,0.0,0.0,0.0,0.0,0.0,0.0,0.0,0.0,0.0,0.0,0.0,0.0,0.0,0.0,0.0,0.0,0.0,0.0,0.0,0.0,-2.5962,-2.6872,-2.746,-2.735,-2.7305,-2.7679,-2.7875,-2.7914,-2.7738,-2.7051,-2.6572,-2.6396,-2.5986,-2.5693,-2.5693,-2.5693,-2.5693,-2.5693,-2.5693,-2.5693,-2.5693,-2.5557,-2.5459,-2.5449,-2.501,-2.4795,-2.4785,-2.4531,-2.4316,-2.4141,-2.3896,-2.3682,-2.3496,-2.3198,-2.3091,-2.3091,0.0,0.0,0.0,0.0,-2.3091,-2.3091,-2.3091,-2.2984,-2.2721,-2.21,-2.1768,-2.1484,-2.0811,-2.0605,-2.0605,-2.0605,-2.0605,-2.0605,-2.0605,-2.0605,-2.0605,-2.0605,-2.0605,-2.0605,-2.0605,-2.0605,-2.0605,-2.0605,-2.0605,0.0,-2.2075,-2.2627,-2.322,-2.4228,-2.4373,-2.4588,-2.517,-2.524,-2.524,-2.524,-2.524,-2.5394,-2.5838,-2.5873,0.0,0.0,0.0,-2.5598,-2.5598,-2.5598,0.0,0.0,0.0,0.0,0.0,0.0,0.0,0.0,-2.3584,-2.3659,0.0,0.0,0.0,0.0,0.0,0.0,0.0,0.0,0.0,0.0,0.0,0.0,0.0,0.0,0.0,0.0,-2.6465,-2.7217,-2.7669,-2.7988,-2.8096,-2.7826,-2.8027,-2.8076,-2.7748,-2.7226,-2.6787,-2.6416,-2.5986,-2.5693,-2.5693,-2.5693,0.0,0.0,0.0,-2.5664,-2.5615,-2.5273,-2.5086,-2.5037,-2.4551,-2.4346,-2.4346,-2.4297,-2.4062,-2.3721,-2.3721,-2.3496,-2.3091,-2.3091,-2.3091,-2.3091,-2.3091,-2.3091,-2.3091,-2.3091,-2.3091,-2.3091,-2.3091,0.0,0.0,-2.2041,-2.1621,-2.1171,-2.0752,-2.0605,-2.0605,-2.0605,-2.0605,-2.0605,-2.0605,-2.0605,-2.0605,-2.0605,-2.0605,-2.0605,-2.0605,-2.0605,-2.0605,-2.0605,-2.0605,-2.0605,-2.0605,-2.1298,-2.2188,-2.3184,-2.3331,-2.3368,-2.3478,-2.3514,-2.3514,-2.3514,0.0,0.0,-2.4743,-2.4826,-2.5193,-2.6042,-2.5558,-2.5273,-2.5273,-2.5448,-2.579,-2.6336,-2.6452,-2.6499,-2.6499,-2.6499,-2.6167,-2.5515,-2.4054,-2.4167,0.0,0.0,0.0,0.0,0.0,0.0,0.0,0.0,0.0,0.0,0.0,0.0,0.0,0.0,0.0,-2.5225,-2.6564,-2.762,-2.7708,-2.7787,-2.7933,-2.8135,-2.7949,-2.7806,-2.7728,-2.6963,-2.6475,-2.6396,-2.5986,-2.5693,-2.5693,-2.5693,-2.5693,-2.5693,-2.5693,-2.5566,-2.5205,-2.5165,-2.4893,-2.4531,-2.4111,0.0,-2.3896,-2.35,-2.3296,-2.3218,-2.3218,-2.3169,-2.3091,-2.3091,-2.3091,-2.3091,-2.3091,-2.3091,-2.3091,-2.3091,-2.3091,-2.3091,-2.3091,-2.3042,-2.2847,-2.2129,-2.1826,-2.1611,-2.085,-2.0605,0.0,-2.0605,-2.0605,-2.0605,-2.0605,-2.0605,-2.0605,-2.0605,-2.0605,-2.0605,-2.0605,-2.0605,-2.0605,-2.0605,-2.0605,-2.0605,-2.0605,-2.075,-2.1193,-2.2151,-2.2291,-2.259,-2.3404,-2.3514,-2.3514,-2.3514,-2.3514,-2.3599,-2.3781,-2.3781,-2.3673,-2.3452,-2.3338,-2.3269,-2.3269,-2.4472,-2.5192,-2.53,-2.6094,-2.6499,-2.6499,-2.6499,-2.6032,-2.5119,-2.514,-2.5043,0.0,0.0,0.0,0.0,0.0,0.0,0.0,0.0,0.0,0.0,0.0,-2.417,-2.4414,0.0,-2.6133,-2.6338,-2.7275,-2.791,-2.7748,-2.7718,-2.7744,-2.7959,-2.7607,-2.7256,-2.7041,-2.6641,-2.6299,-2.6084,-2.581,-2.5693,-2.5693,-2.5693,-2.5693,-2.5693,-2.5518,-2.5293,-2.5116,-2.4695,-2.4316,-2.4092,-2.3672,-2.3467,-2.3457,-2.3198,-2.3091,-2.3091,-2.3091,-2.3091,-2.3091,-2.3091,-2.3091,-2.3091,-2.3091,-2.3091,-2.3091,-2.3091,-2.3091,-2.3091,-2.3091,-2.2955,-2.2682,-2.209,-2.1738,-2.1435,-2.0811,-2.0605,-2.0605,-2.0605,-2.0605,-2.0605,-2.0605,-2.0605,-2.0605,-2.0605,-2.0605,-2.0605,-2.0605,-2.0605,-2.0605,-2.0605,-2.0605,-2.0605,-2.0605,-2.0605,-2.075,-2.1221,-2.1298,-2.1489,-2.1962,-2.2048,-2.2048,-2.2048,-2.2048,-2.2226,-2.2702,-2.322,-2.3377,-2.3131,-2.312,-2.312,-2.312,-2.3838,-2.4264,-2.4264,-2.5252,-2.5511,-2.4981,-2.5499,-2.5217,-2.4253,-2.4461,-2.4531,0.0,0.0,0.0,0.0,0.0,0.0,0.0,-2.3984,-2.417,-2.417,-2.457,-2.5088,-2.5586,-2.6094,-2.6641,-2.7412,-2.7822,-2.7959,-2.7748,-2.7369,-2.7126,-2.7039,-2.6721,-2.6333,-2.6047,-2.5681,-2.5332,-2.4941,-2.4913,-2.502,-2.5274,-2.5069,-2.5138,-2.5557,-2.5005,-2.4773,-2.4941,-2.4258,-2.3906,-2.3906,-2.351,-2.3296,-2.3218,-2.3218,-2.3179,-2.3091,-2.3091,-2.3091,-2.3091,-2.3091,-2.3091,-2.3091,-2.3091,-2.3091,-2.3091,-2.3091,-2.3091,-2.3091,-2.3091,-2.2877,-2.2568,-2.2139,-2.1768,-2.1356,-2.0957,-2.086,-2.084,-2.0752,-2.0732,-2.0713,-2.0625,-2.0605,-2.0605,-2.0605,-2.0605,-2.0605,-2.0605,-2.0605,-2.0605,-2.0605,-2.0605,-2.0605,-2.0605,-2.0605,-2.0605,-2.0605,-2.0605,-2.0605,-2.0605,-2.0605,-2.0605,-2.0605,-2.0605,-2.0895,-2.1659,-2.2478,-2.2936,-2.2936,-2.2936,-2.2936,-2.2936,-2.311,-2.322,-2.322,-2.4192,-2.4301,-2.3514,-2.4301,-2.4192,-2.322,-2.332,-2.3592,-2.3406,-2.2715,-2.2912,-2.3916,-2.3955,-2.4121,0.0,-2.5762,-2.5469,-2.5469,-2.6162,-2.6523,-2.581,-2.6094,-2.6543,-2.7012,-2.7129,-2.7275,-2.7669,-2.63,-2.5173,-2.4705,-2.4623,-2.4577,-2.4532,-2.3129,-2.2207,-2.2156,-2.2156,-2.2667,-2.384,-2.2767,-2.3067,-2.5099,-2.3904,-2.3652,-2.4446,-2.4394,-2.4346,-2.4346,-2.4297,-2.4082,-2.3721,-2.3721,-2.3506,-2.3091,-2.3091,-2.3091,-2.3091,-2.3091,-2.3091,-2.3091,-2.3091,-2.3091,-2.3091,-2.3091,-2.3091,-2.3091,-2.3091,-2.3062,-2.2955,-2.2578,-2.2412,-2.2285,-2.1865,-2.1738,-2.166,-2.1269,-2.1122,-2.1064,-2.0713,-2.0605,-2.0605,-2.0605,-2.0605,-2.0605,-2.0605,-2.0605,-2.0605,-2.0605,-2.0605,-2.0605,-2.0605,-2.0605,-2.0605,-2.0605,-2.0605,-2.0605,-2.0605,-2.0605,-2.0605,-2.0605,-2.0605,-2.0644,-2.075,-2.0867,-2.0934,-2.0934,-2.0934,-2.0934,-2.0934,-2.1735,-2.2178,-2.2178,-2.3147,-2.3599,-2.3514,-2.3624,-2.3147,-2.2188,-2.2611,-2.3016,-2.3994,-2.3809,-2.4189,-2.499,-2.543,-2.5859,-2.6582,-2.6807,-2.6855,-2.6855,-2.6943,-2.6904,-2.6543,-2.6435,-2.6445,-2.6621,-2.707,-2.7285,-2.6973,-2.6493,-2.5591,-2.4108,-2.3263,-2.2791,-2.2791,-2.2139,-2.1702,-2.1702,-2.1702,-2.1954,-2.2517,-2.2005,-2.2386,-2.3838,-2.3072,-2.3203,-2.4368,-2.417,-2.418,-2.4414,-2.4414,-2.4326,-2.415,-2.3906,-2.3691,-2.3525,-2.3725,-2.3842,-2.3822,-2.3623,-2.3516,-2.3496,-2.3198,-2.3091,-2.3091,-2.3091,-2.3091,-2.3091,-2.3091,-2.2935,-2.2662,-2.2285,-2.1973,-2.1689,-2.125,-2.1153,-2.1133,-2.1171,-2.119,-2.121,-2.1318,-2.1143,-2.0957,-2.0957,-2.0752,-2.0605,-2.0605,-2.0605,-2.0605,-2.0605,-2.0605,-2.0605,-2.0605,-2.0605,-2.0605,-2.0605,-2.0605,-2.0605,-2.0605,-2.0605,-2.0605,-2.0605,-2.0605,-2.0605,-2.0605,-2.0605,-2.0605,-2.0605,-2.0605,-2.0605,-2.0605,-2.0972,-2.1193,-2.1193,-2.214,-2.2366,-2.1821,-2.2366,-2.2113,-2.1193,-2.1385,-2.1678,-2.4546,-2.4824,-2.5391,-2.5947,-2.6641,-2.7226,-2.7344,-2.7607,-2.7803,-2.7738,-2.7412,-2.7119,-2.6885,-2.6592,-2.6387,-2.6387,-2.6914,-2.71,-2.6475,-2.6328,-2.5505,-2.3415,-2.1954,-2.099,-2.0582,-2.0582,-2.0582,-2.0582,-2.0582,-2.0735,-2.1092,-2.0699,-2.1187,-2.2799,-2.1835,-2.2123,-2.3839,-2.3325,-2.3438,-2.4192,-2.4192,-2.4323,-2.458,-2.416,-2.3965,-2.3975,-2.4287,-2.4414,-2.4385,-2.3965,-2.3789,-2.375,-2.3266,-2.3091,-2.3081,-2.2964,-2.2925,-2.2925,-2.2925,-2.2685,-2.2295,-2.1982,-2.167,-2.1348,-2.1065,-2.0967,-2.1006,-2.1132,-2.1278,-2.1435,-2.1504,-2.1377,-2.1161,-2.1074,-2.0801,-2.0605,-2.0605,-2.0605,-2.0605,-2.0605,-2.0605,-2.0605,-2.0605,-2.0605,-2.0605,-2.0605,-2.0605,-2.0605,-2.0605,-2.0605,-2.0605,-2.0605,-2.0605,-2.0605,-2.0605,-2.0605,-2.0605,-2.0605,-2.0605,-2.0605,-2.0605,-2.0605,-2.0605,-2.0605,-2.126,-2.1298,-2.0605,-2.1298,-2.126,-2.0605,-2.0693,-2.0918,-2.4414,-2.5011,-2.5869,-2.6768,-2.7314,-2.7806,-2.8164,-2.8262,-2.8154,-2.7806,-2.7708,-2.7444,-2.6562,-2.6396,-2.6387,-2.6387,-2.6406,-2.6416,-2.6396,-2.5226,-2.3719,-2.1946,-2.0538,-1.9169,-1.7838,-1.7733,-1.7733,-1.7733,-1.7733,-1.8297,-1.9576,-1.8173,-1.8907,-2.2301,-1.9966,-1.9861,-2.2416,-2.1542,-2.1948,-2.3705,-2.3705,-2.4201,-2.5077,-2.459,-2.4394,-2.4394,-2.4414,-2.4414,-2.4385,-2.3965,-2.3789,-2.375,-2.3266,-2.3091,-2.3042,-2.2643,-2.2529,-2.2529,-2.2529,-2.2256,-2.1904,-2.1894,-2.1875,-2.1865,-2.1846,-2.1846,-2.1768,-2.1307,-2.1543,-2.167,-2.086,-2.0918,-2.1083,-2.0723,-2.0615,-2.0605,-2.0605,-2.0605,-2.0605,-2.0605,-2.0605,-2.0605,-2.0605,-2.0605,-2.0605,-2.0605,-2.0605,-2.0605,-2.0605,-2.0605,-2.0605,-2.0605,-2.0605,-2.0605,-2.0605,-2.0605,-2.0605,-2.0605,-2.0605,-2.0605,-2.0605,-2.0605,-2.0605,-2.0605,-2.0644,-2.0644,-2.0605,-2.0644,-2.0644,-2.0615,-2.1016,-2.1181,-2.5089,-2.5879,-2.6728,-2.7305,-2.7764,-2.8115,-2.8262,-2.8291,-2.8174,-2.7806,-2.7268,-2.6641,-2.6064,-2.5957,-2.5859,-2.5557,-2.6534,-2.6618,-2.4886,-2.4697,-2.3685,-2.0652,-1.9878,-1.9065,-1.7733,-1.7582,-1.7582,-1.7582,-1.7582,-1.8057,-1.9117,-1.7907,-1.8792,-2.2283,-1.9861,-1.9875,-2.2745,-2.1588,-2.1437,-2.2357,-2.3276,-2.418,-2.5116,-2.5225,-2.5127,-2.4863,-2.5166,-2.5127,-2.4814,-2.4385,-2.4043,-2.3721,-2.3008,-2.2682,-2.2676,-2.2246,-2.1914,-2.1668,-2.1992,-2.1816,-2.1455,-2.1455,-2.125,-2.1045,-2.1045,-2.1045,-2.1075,-2.1151,-2.1298,-2.1455,-2.1445,-2.1338,-2.1161,-2.1045,-2.0781,-2.0605,-2.0605,-2.0605,-2.0605,-2.0605,-2.0605,-2.0605,-2.0605,-2.0605,-2.0605,-2.0605,-2.0605,-2.0605,-2.0605,-2.0605,-2.0605,-2.0605,-2.0605,-2.0605,-2.0605,-2.0605,-2.0605,-2.0605,-2.0605,-2.0605,-2.0605,-2.0605,-2.0605,-2.0605,-2.0605,-2.0605,-2.0605,-2.0605,-2.0605,-2.0605,-2.0723,-2.0791,-2.5908,-2.6709,-2.7353,-2.7783,-2.8096,-2.8291,-2.8291,-2.8174,-2.7988,-2.7777,-2.6982,-2.625,-2.5771,-2.5557,-2.54,-2.5165,-2.6143,-2.6311,-2.428,-2.4422,-2.373,-2.0953,-2.0488,-1.9826,-1.8454,-1.8601,-1.864,-1.8144,-1.7682,-1.8056,-1.9426,-1.8376,-1.8964,-2.1601,-1.9785,-1.9662,-2.1558,-2.039,-2.0159,-2.099,-2.2316,-2.3547,-2.4602,-2.4687,-2.489,-2.5125,-2.5205,-2.5098,-2.4805,-2.4365,-2.4033,-2.3721,-2.3018,-2.2646,-2.2461,-2.2041,-2.1611,-2.1239,-2.1553,-2.1367,-2.0996,-2.0996,-2.0801,-2.0605,-2.0605,-2.0605,-2.0664,-2.0918,-2.1073,-2.122,-2.1387,-2.1328,-2.1151,-2.1035,-2.0781,-2.0605,-2.0605,-2.0605,-2.0605,-2.0605,-2.0605,-2.0605,-2.0605,-2.0605,-2.0605,-2.0605,-2.0605,-2.0605,-2.0605,-2.0605,-2.0605,-2.0605,-2.0605,-2.0605,-2.0605,-2.0605,-2.0605,-2.0605,-2.0458,-2.0449,-2.0595,-2.0458,-2.0449,-2.0595,-2.0449,-2.0449,-2.0605,-2.0449,-2.0449,-2.0605,-2.0605,-2.0605,-2.6807,-2.7363,-2.7845,-2.8193,-2.8291,-2.8281,-2.8262,-2.7949,-2.7708,-2.766,-2.6914,-2.6191,-2.5732,-2.5371,-2.5145,-2.5145,-2.5547,-2.5588,-2.4722,-2.4403,-2.3832,-2.263,-2.1985,-2.1092,-1.9834,-2.0469,-2.0512,-1.927,-1.8027,-1.8283,-2.0377,-1.9408,-1.9367,-2.057,-1.9709,-1.9207,-1.9121,-1.8106,-1.8297,-1.9731,-2.1025,-2.2382,-2.3746,-2.3316,-2.3819,-2.5057,-2.4619,-2.4424,-2.4355,-2.3955,-2.3779,-2.3711,-2.3227,-2.2818,-2.2461,-2.2041,-2.1611,-2.119,-2.119,-2.0937,-2.0605,-2.0605,-2.0605,-2.0605,-2.0605,-2.0605,-2.0605,-2.0605,-2.0869,-2.1064,-2.0713,-2.0879,-2.1054,-2.0703,-2.0605,-2.0605,-2.0605,-2.0605,-2.0605,-2.0605,-2.0605,-2.0605,-2.0605,-2.0605,-2.0605,-2.0605,-2.0605,-2.0605,-2.0605,-2.0605,-2.0605,-2.0605,-2.0605,-2.0605,-2.0605,-2.0605,-2.0595,-2.0576,-2.0146,-2.0098,-2.0556,-2.0117,-2.0088,-2.0566,-2.0127,-2.0117,-2.0566,-2.0137,-2.0156,-2.0605,-2.0605,-2.0605,-2.7178,-2.7812,-2.8154,-2.8262,-2.8291,-2.8213,-2.79,-2.7796,-2.7542,-2.6846,-2.6016,-2.5371,-2.5264,-2.542,-2.5566,-2.5566,-2.6992,-2.7357,-2.5172,-2.4228,-2.3434,-2.2454,-2.1012,-2.0385,-2.1092,-2.1063,-2.1146,-2.1525,-2.033,-2.0127,-2.1389,-2.062,-2.1097,-2.3308,-2.0639,-1.976,-2.1006,-1.8769,-1.8805,-2.1143,-2.117,-2.2432,-2.4727,-2.4622,-2.459,-2.459,-2.4805,-2.4541,-2.3945,-2.3838,-2.3603,-2.3218,-2.2842,-2.2607,-2.2461,-2.2041,-2.1611,-2.119,-2.119,-2.0937,-2.0605,-2.0605,-2.0605,-2.0605,-2.0605,-2.0605,-2.0605,-2.0605,-2.0683,-2.0752,-2.0635,-2.0693,-2.0742,-2.0635,-2.0605,-2.0605,-2.0605,-2.0605,-2.0605,-2.0605,-2.0605,-2.0605,-2.0605,-2.0605,-2.0605,-2.0605,-2.0605,-2.0605,-2.0605,-2.0605,-2.0605,-2.0605,-2.0605,-2.0605,-2.0605,-2.0605,-2.0468,-2.0098,-1.9971,-1.9961,-2.0078,-1.9668,-1.9648,-2.0078,-1.9971,-1.9971,-2.0078,-2.0293,-2.0498,-2.0605,-2.0605,-2.0605,-2.7695,-2.8115,-2.8291,-2.8291,-2.8154,-2.79,-2.748,-2.709,-2.6631,-2.5947,-2.5117,-2.456,-2.4746,-2.499,-2.5225,-2.541,-2.6934,-2.7463,-2.5645,-2.4289,-2.3424,-2.3224,-2.1205,-2.0358,-2.1745,-2.1221,-2.1094,-2.1738,-2.0799,-2.084,-2.2287,-2.1653,-2.1819,-2.3204,-2.1032,-1.9946,-2.0285,-1.8986,-1.9234,-2.1123,-2.1024,-2.2011,-2.3909,-2.3909,-2.402,-2.415,-2.4404,-2.4131,-2.3506,-2.3506,-2.3359,-2.3071,-2.2838,-2.2676,-2.2461,-2.2041,-2.1611,-2.1161,-2.1016,-2.0781,-2.0605,-2.0605,-2.0605,-2.0605,-2.0605,-2.0605,-2.0605,-2.0605,-2.0605,-2.0605,-2.0605,-2.0605,-2.0605,-2.0605,-2.0605,-2.0605,-2.0605,-2.0605,-2.0605,-2.0605,-2.0605,-2.0605,-2.0605,-2.0605,-2.0605,-2.0605,-2.0605,-2.0605,-2.0605,-2.0605,-2.0605,-2.0605,-2.0605,-2.0605,-2.0605,-2.0605,-2.0498,-2.0215,-1.9853,-1.9805,-2.0185,-1.9609,-1.958,-2.0185,-2.001,-2.001,-2.0195,-2.0254,-2.0419,-2.0605,-2.0605,-2.0605,-2.8174,-2.8291,-2.8291,-2.8291,-2.7978,-2.7539,-2.7041,-2.6318,-2.5596,-2.5088,-2.4346,-2.3935,-2.4414,-2.4502,-2.4678,-2.5234,-2.6367,-2.6973,-2.6354,-2.4852,-2.3985,-2.4509,-2.2126,-2.0907,-2.2012,-2.1254,-2.0817,-2.0983,-2.0527,-2.0989,-2.2637,-2.2462,-2.2189,-2.1867,-2.1182,-2.0192,-1.8746,-1.9181,-1.9818,-2.0674,-2.0988,-2.1633,-2.2579,-2.2579,-2.3019,-2.3711,-2.3769,-2.3545,-2.3091,-2.3091,-2.3091,-2.3091,-2.3091,-2.2877,-2.2549,-2.2187,-2.1738,-2.1229,-2.0879,-2.0703,-2.0605,-2.0605,-2.0605,-2.0605,-2.0605,-2.0605,-2.0605,-2.0605,-2.0605,-2.0605,-2.0605,-2.0605,-2.0605,-2.0605,-2.0605,-2.0605,-2.0605,-2.0605,-2.0605,-2.0605,-2.0605,-2.0605,-2.0605,-2.0605,-2.0605,-2.0605,-2.0605,-2.0605,-2.0605,-2.0605,-2.0605,-2.0605,-2.0605,-2.0605,-2.0605,-2.0605,-2.0576,-2.0517,-1.9822,-1.9707,-2.0488,-1.9744,-1.9668,-2.0507,-2.0107,-2.0098,-2.0517,-2.0156,-2.0195,-2.0605,-2.0605,-2.0605,-2.8174,-2.8291,-2.8291,-2.8291,-2.7978,-2.7513,-2.668,-2.6103,-2.546,-2.4697,-2.4131,-2.4023,-2.4814,-2.4998,-2.5332,-2.6484,-2.7461,-2.8135,-2.834,-2.6883,-2.58,-2.5798,-2.3702,-2.2217,-2.2089,-2.1656,-2.1262,-2.1024,-2.1595,-2.166,-2.0911,-2.2833,-2.3456,-2.2317,-2.2135,-2.1449,-2.0095,-2.0152,-2.0837,-2.2076,-2.1781,-2.2327,-2.357,-2.357,-2.3428,-2.3227,-2.3633,-2.3545,-2.3091,-2.3091,-2.3091,-2.3091,-2.3091,-2.3052,-2.2974,-2.2906,-2.2432,-2.1768,-2.1689,-2.1222,-2.0605,-2.0605,-2.0605,-2.0605,-2.0605,-2.0605,-2.0605,-2.0605,-2.0605,-2.0605,-2.0605,-2.0605,-2.0605,-2.0605,-2.0605,-2.0605,-2.0605,-2.0605,-2.0605,-2.0605,-2.0605,-2.0605,-2.0605,-2.0605,-2.0605,-2.0605,-2.0605,-2.0605,-2.0605,-2.0605,-2.0605,-2.0605,-2.0605,-2.0605,-2.0605,-2.0605,-2.0449,-2.0049,-1.9883,-1.9873,-2.0019,-1.9551,-1.9521,-2.0019,-1.9951,-1.9951,-2.0029,-2.0312,-2.0527,-2.0605,-2.0605,-2.0605,-2.8232,-2.8291,-2.8291,-2.8291,-2.7803,-2.71,-2.624,-2.5527,-2.4758,-2.389,-2.3594,-2.3643,-2.4287,-2.458,-2.4941,-2.5557,-2.6396,-2.7187,-2.7832,-2.6306,-2.545,-2.6326,-2.352,-2.2089,-2.3401,-2.1672,-2.1028,-2.2309,-2.2695,-2.244,-2.1505,-2.3112,-2.3374,-2.1888,-2.1833,-2.1502,-2.0885,-2.11,-2.1762,-2.2783,-2.2801,-2.3069,-2.3457,-2.3682,-2.3555,-2.312,-2.3603,-2.3545,-2.3091,-2.3091,-2.3091,-2.3091,-2.3091,-2.3091,-2.3062,-2.2847,-2.2559,-2.2178,-2.1963,-2.1455,-2.0908,-2.0908,-2.0752,-2.0605,-2.0605,-2.0605,-2.0605,-2.0605,-2.0605,-2.0605,-2.0605,-2.0605,-2.0605,-2.0605,-2.0605,-2.0605,-2.0605,-2.0605,-2.0605,-2.0605,-2.0605,-2.0605,-2.0605,-2.0605,-2.0605,-2.0605,-2.0605,-2.0605,-2.0605,-2.0605,-2.0605,-2.0605,-2.0605,-2.0605,-2.0605,-2.0605,-2.0517,-2.0264,-2.0039,-2.0019,-2.0244,-1.9834,-1.9814,-2.0244,-2.0254,-2.0254,-2.0254,-2.0507,-2.0605,-2.0605,-2.0605,-2.0605,-2.8271,-2.8291,-2.8291,-2.8291,-2.7646,-2.6787,-2.5888,-2.5011,-2.417,-2.3266,-2.3091,-2.3227,-2.3711,-2.4062,-2.4346,-2.4521,-2.5225,-2.6015,-2.7021,-2.5839,-2.5325,-2.6543,-2.3761,-2.2422,-2.4193,-2.1856,-2.1107,-2.3135,-2.3354,-2.3217,-2.2867,-2.3258,-2.2934,-2.1721,-2.1712,-2.1712,-2.1712,-2.2052,-2.252,-2.3101,-2.3486,-2.3467,-2.311,-2.3496,-2.3467,-2.311,-2.3496,-2.3457,-2.3091,-2.3091,-2.3091,-2.3091,-2.3091,-2.3091,-2.3052,-2.2773,-2.2588,-2.2451,-2.2031,-2.1602,-2.1181,-2.1083,-2.0859,-2.0605,-2.0605,-2.0605,-2.0605,-2.0605,-2.0605,-2.0605,-2.0605,-2.0605,-2.0605,-2.0605,-2.0605,-2.0605,-2.0605,-2.0605,-2.0605,-2.0605,-2.0605,-2.0605,-2.0605,-2.0605,-2.0605,-2.0605,-2.0605,-2.0605,-2.0605,-2.0605,-2.0605,-2.0605,-2.0605,-2.0605,-2.0605,-2.0605,-2.0605,-2.0605,-2.0244,-2.0215,-2.0586,-2.0234,-2.0215,-2.0595,-2.0605,-2.0605,-2.0605,-2.0605,-2.0605,-2.0605,-2.0605,-2.0605,-2.8193,-2.8291,-2.8291,-2.8291,-2.7646,-2.6787,-2.5888,-2.5011,-2.417,-2.3266,-2.3091,-2.3227,-2.3711,-2.3828,-2.4102,-2.493,-2.542,-2.6172,-2.7432,-2.7464,-2.7174,-2.6726,-2.6061,-2.4884,-2.3073,-2.2576,-2.2264,-2.1903,-2.2991,-2.3849,-2.4222,-2.314,-2.2631,-2.2935,-2.295,-2.295,-2.295,-2.2998,-2.3042,-2.3091,-2.314,-2.314,-2.3091,-2.314,-2.313,-2.3091,-2.314,-2.313,-2.3091,-2.3091,-2.3091,-2.3091,-2.3091,-2.3091,-2.3091,-2.3052,-2.2799,-2.2451,-2.2031,-2.1602,-2.1132,-2.0762,-2.0635,-2.0605,-2.0605,-2.0605,-2.0605,-2.0605,-2.0605,-2.0605,-2.0605,-2.0605,-2.0605,-2.0605,-2.0605,-2.0605,-2.0605,-2.0605,-2.0605,-2.0605,-2.0605,-2.0605,-2.0605,-2.0605,-2.0605,-2.0605,-2.0605,-2.0605,-2.0605,-2.0605,-2.0605,-2.0605,-2.0605,-2.0605,-2.0605,-2.0605,-2.0605,-2.0605,-2.0566,-2.0566,-2.0605,-2.0566,-2.0566,-2.0605,-2.0605,-2.0605,-2.0605,-2.0605,-2.0605,-2.0605,-2.0605,-2.0605,-2.8308,-2.8291,-2.8291,-2.8291,-2.7646,-2.6787,-2.5888,-2.5011,-2.417,-2.3266,-2.3091,-2.3149,-2.3315,-2.3398,-2.3506,-2.3848,-2.4007,-2.4619,-2.5967,-2.5879,-2.6109,-2.7207,-2.5865,-2.4997,-2.5255,-2.4233,-2.3708,-2.4093,-2.4609,-2.4746,-2.4417,-2.3886,-2.3458,-2.312,-2.3091,-2.3091,-2.3091,-2.3091,-2.3091,-2.3091,-2.3091,-2.3091,-2.3091,-2.3091,-2.3091,-2.3091,-2.3091,-2.3091,-2.3091,-2.3091,-2.3091,-2.3091,-2.3091,-2.3091,-2.3062,-2.2808,-2.2769,-2.275,-2.2119,-2.1777,-2.1553,-2.1113,-2.0781,-2.0605,-2.0605,-2.0605,-2.0605,-2.0605,-2.0605,-2.0605,-2.0605,-2.0605,-2.0605,-2.0605,-2.0605,-2.0605,-2.0605,-2.0605,-2.0605,-2.0605,-2.0605,-2.0605,-2.0605,-2.0605,-2.0605,-2.0605,-2.0605,-2.0605,-2.0605,-2.0605,-2.0605,-2.0605,-2.0605,-2.0605,-2.0605,-2.0605,-2.0605,-2.0605,-2.0605,-2.0605,-2.0605,-2.0605,-2.0605,-2.0605,-2.0605,-2.0605,-2.0605,-2.0605,-2.0605,-2.0605,-2.0605,-2.0605,-2.8177,-2.8193,-2.8291,-2.8291,-2.7559,-2.6641,-2.5859,-2.4904,-2.4023,-2.3247,-2.3091,-2.3091,-2.3091,-2.3091,-2.3091,-2.3091,-2.3305,-2.3828,-2.4746,-2.4834,-2.5371,-2.6914,-2.5711,-2.5282,-2.652,-2.5368,-2.4868,-2.5655,-2.5567,-2.5215,-2.4453,-2.4297,-2.3896,-2.312,-2.3091,-2.3091,-2.3091,-2.3091,-2.3091,-2.3091,-2.3091,-2.3091,-2.3091,-2.3091,-2.3091,-2.3091,-2.3091,-2.3091,-2.3091,-2.3091,-2.3091,-2.3091,-2.3091,-2.3023,-2.2877,-2.2617,-2.2617,-2.2623,-2.1943,-2.1689,-2.1621,-2.1182,-2.082,-2.0605,-2.0605,-2.0605,-2.0605,-2.0605,-2.0605,-2.0605,-2.0605,-2.0605,-2.0605,-2.0605,-2.0605,-2.0605,-2.0605,-2.0605,-2.0605,-2.0605,-2.0605,-2.0605,-2.0605,-2.0605,-2.0605,-2.0605,-2.0605,-2.0605,-2.0605,-2.0605,-2.0605,-2.0605,-2.0605,-2.0605,-2.0605,-2.0605,-2.0605,-2.0605,-2.0605,-2.0605,-2.0605,-2.0605,-2.0605,-2.0605,-2.0605,-2.0605,-2.0605,-2.0605,-2.0605,-2.0605,-2.0605,-2.0605,-2.7784,-2.7978,-2.8291,-2.8291,-2.7334,-2.6279,-2.5791,-2.4727,-2.3672,-2.3188,-2.3091,-2.3091,-2.3091,-2.3091,-2.3091,-2.3091,-2.3803,-2.4414,-2.4424,-2.5128,-2.5684,-2.5703,-2.6133,-2.6221,-2.5742,-2.5693,-2.5693,-2.5693,-2.5322,-2.4883,-2.4443,-2.4023,-2.3594,-2.311,-2.3091,-2.3091,-2.3091,-2.3091,-2.3091,-2.3091,-2.3091,-2.3091,-2.3091,-2.3091,-2.3091,-2.3091,-2.3091,-2.3091,-2.3091,-2.3091,-2.3091,-2.3091,-2.3091,-2.2838,-2.2519,-2.251,-2.2246,-2.1836,-2.1356,-2.12,-2.1132,-2.0752,-2.0605,-2.0605,-2.0605,-2.0605,-2.0605,-2.0605,-2.0605,-2.0605,-2.0605,-2.0605,-2.0605,-2.0605,-2.0605,-2.0605,-2.0605,-2.0605,-2.0605,-2.0605,-2.0605,-2.0605,-2.0605,-2.0605,-2.0605,-2.0605,-2.0605,-2.0605,-2.0605,-2.0605,-2.0605,-2.0605,-2.0605,-2.0605,-2.0605,-2.0605,-2.0605,-2.0605,-2.0605,-2.0605,-2.0605,-2.0605,-2.0605,-2.0605,-2.0605,-2.0605,-2.0605,-2.0605,-2.0605,-2.0605,-2.0605,-2.0605,-2.7555,-2.7013,-2.6543,-2.6543,-2.6006,-2.5371,-2.4932,-2.4297,-2.3662,-2.3188,-2.3091,-2.3091,-2.3091,-2.3091,-2.3286,-2.3871,-2.3994,-2.4189,-2.4775,-2.5107,-2.5391,-2.5654,-2.6123,-2.6221,-2.5732,-2.5693,-2.5693,-2.5693,-2.5605,-2.5205,-2.4453,-2.4287,-2.3887,-2.312,-2.3091,-2.3091,-2.3091,-2.3091,-2.3091,-2.3091,-2.3091,-2.3091,-2.3091,-2.3091,-2.3091,-2.3091,-2.3091,-2.3091,-2.3091,-2.3091,-2.3091,-2.3062,-2.2779,-2.2627,-2.2441,-2.1814,-2.1748,-2.1777,-2.1035,-2.0977,-2.1122,-2.0752,-2.0605,-2.0605,-2.0605,-2.0605,-2.0605,-2.0605,-2.0605,-2.0605,-2.0605,-2.0605,-2.0605,-2.0605,-2.0605,-2.0605,-2.0605,-2.0605,-2.0605,-2.0605,-2.0605,-2.0605,-2.0605,-2.0605,-2.0605,-2.0605,-2.0605,-2.0605,-2.0605,-2.0605,-2.0605,-2.0605,-2.0605,-2.0605,-2.0605,-2.0605,-2.0605,-2.0605,-2.0605,-2.0605,-2.0605,-2.0605,-2.0605,-2.0605,-2.0605,-2.0605,-2.0605,-2.0605,-2.0723,-2.1025,-2.1025,-2.1182,-2.714,-2.6431,-2.5693,-2.5693,-2.5273,-2.4746,-2.4473,-2.3965,-2.3467,-2.3149,-2.3091,-2.3091,-2.3091,-2.3091,-2.3266,-2.3803,-2.3984,-2.4102,-2.4307,-2.4756,-2.5176,-2.5449,-2.5586,-2.5674,-2.5684,-2.5693,-2.5693,-2.5693,-2.5586,-2.5176,-2.4453,-2.4268,-2.3857,-2.312,-2.3091,-2.3091,-2.3091,-2.3091,-2.3091,-2.3091,-2.3091,-2.3091,-2.3091,-2.3091,-2.3091,-2.3091,-2.3091,-2.3091,0.0,-2.3091,-2.3003,-2.2838,-2.2617,-2.2314,-2.1921,-2.1395,-2.1299,-2.1349,-2.0791,-2.0752,-2.0937,-2.0693,-2.0605,-2.0605,-2.0605,-2.0605,-2.0605,-2.0605,-2.0605,-2.0605,-2.0605,-2.0605,-2.0605,-2.0605,-2.0605,-2.0605,-2.0605,-2.0605,-2.0605,-2.0605,-2.0605,-2.0605,-2.0605,-2.0605,-2.0605,-2.0605,-2.0605,-2.0605,-2.0605,-2.0605,-2.0605,-2.0605,-2.0605,-2.0605,-2.0605,-2.0605,-2.0605,-2.0605,-2.0605,-2.0605,-2.0605,-2.0605,-2.0605,-2.0605,-2.0605,-2.0605,-2.0605,-2.0732,-2.0967,-2.12,-2.1366,-2.1621,0.0,-2.6104,-2.5508,-2.5508,-2.4884,-2.4326,-2.4326,-2.3666,0.0,-2.3091,-2.3091,-2.3091,-2.3091,-2.3091,-2.311,-2.3179,-2.3851,-2.4141,-2.3296,-2.4287,-2.5135,-2.5204,-2.4805,-2.4863,-2.5615,-2.5693,-2.5693,-2.5693,-2.5352,-2.4912,-2.4443,-2.4043,-2.3623,-2.311,-2.3091,-2.3091,-2.3091,-2.3091,-2.3091,-2.3091,-2.3091,-2.3091,-2.3091,-2.3091,-2.3091,-2.3091,-2.3091,-2.3091,-2.3091,-2.3091,-2.2847,-2.251,-2.248,-2.1921,-2.119,-2.1161,-2.0918,-2.0605,-2.0605,-2.0605,-2.0605,-2.0605,-2.0605,-2.0605,-2.0605,-2.0605,-2.0605,-2.0605,-2.0605,-2.0605,-2.0605,-2.0605,-2.0605,-2.0605,-2.0605,-2.0605,-2.0605,-2.0605,-2.0605,-2.0605,-2.0605,-2.0605,-2.0605,-2.0605,-2.0605,-2.0605,-2.0605,-2.0605,-2.0605,-2.0605,-2.0605,-2.0605,-2.0605,-2.0605,-2.0605,-2.0605,-2.0605,-2.0605,-2.0605,-2.0605,-2.0605,-2.0605,-2.0615,-2.0644,-2.0683,-2.0693,-2.0703,-2.1074,-2.1259,-2.1298,-2.1738,-2.1953,-2.6772,0.0,-2.3705,-2.3705,-2.3549,-2.3393,0.0,-2.3237,-2.3091,-2.3091,-2.3091,-2.3091,-2.3091,-2.3091,-2.3305,-2.4014,-2.4287,-2.4346,-2.4095,-2.4668,-2.537,-2.5996,-2.5986,-2.5879,-2.5703,-2.5693,-2.5693,-2.5693,-2.5586,-2.5244,-2.4453,-2.4326,-2.3916,-2.312,-2.3091,-2.3091,-2.3091,-2.3091,-2.3091,-2.3091,-2.3091,-2.3091,-2.3091,-2.3091,-2.3091,-2.3091,-2.3091,-2.3091,-2.3091,-2.3091,-2.2847,-2.248,-2.2158,-2.1709,-2.1151,-2.085,-2.0693,-2.0605,-2.0605,-2.0605,-2.0605,-2.0605,-2.0605,-2.0605,-2.0605,-2.0605,-2.0605,-2.0605,-2.0605,-2.0605,-2.0605,-2.0605,-2.0605,-2.0605,-2.0605,-2.0605,-2.0605,-2.0605,-2.0605,-2.0605,-2.0605,-2.0605,-2.0605,-2.0605,-2.0605,-2.0605,-2.0605,-2.0605,-2.0605,-2.0605,-2.0605,-2.0605,-2.0605,-2.0605,-2.0605,-2.0605,-2.0605,-2.0605,-2.0605,-2.0605,-2.0605,-2.0605,-2.0723,-2.1034,-2.1406,-2.1572,-2.1572,-2.168,-2.1894,-2.2217,-2.2314,-2.2539,-2.6801,-2.5349,-2.4025,-2.3516,-2.3437,-2.3437,-2.3437,-2.3237,-2.3091,-2.3091,-2.3091,-2.3091,-2.3091,-2.3091,-2.3247,-2.3715,-2.3994,-2.4336,-2.4894,-2.4873,-2.5166,-2.626,-2.6211,-2.5996,-2.5713,-2.5693,-2.5693,-2.5693,-2.5693,-2.5391,-2.4756,-2.4521,-2.4121,-2.3457,-2.3198,-2.3091,-2.3091,-2.3091,-2.3091,-2.3091,-2.3091,-2.3091,-2.3091,-2.3091,-2.3091,-2.3091,-2.3091,-2.3091,-2.3081,-2.2886,-2.2607,-2.2178,-2.1758,-2.1318,-2.0898,-2.0693,-2.0605,-2.0605,-2.0605,-2.0605,-2.0635,-2.081,-2.0732,-2.0644,-2.081,-2.0869,-2.0869,-2.0869,-2.0869,-2.0918,-2.1123,-2.1212,-2.1123,-2.0918,-2.0869,-2.081,-2.0644,-2.0605,-2.0605,-2.0605,-2.0605,-2.0605,-2.0605,-2.0605,-2.0605,-2.0605,-2.0605,-2.0605,-2.0605,-2.0605,-2.0605,-2.0605,-2.0752,-2.0869,-2.0869,-2.1055,-2.1084,-2.0889,-2.0869,-2.0957,-2.1202,-2.1212,-2.1289,-2.1533,-2.1768,-2.1885,-2.1885,-2.208,-2.2295,-2.2519,-2.2672,-2.2877,-2.685,-2.6054,-2.5233,-2.3979,-2.374,-2.3769,-2.3711,-2.3408,-2.3091,-2.3091,-2.3091,-2.3091,-2.3091,-2.3149,-2.3218,-2.3276,-2.376,-2.4541,-2.5801,-2.5332,-2.5225,-2.6357,-2.6162,-2.583,-2.5703,-2.5693,-2.5693,-2.5693,-2.5693,-2.5537,-2.5135,-2.4648,-2.4228,-2.3799,-2.3315,-2.3091,-2.3091,-2.3091,-2.3091,-2.3091,-2.3091,-2.3091,-2.3091,-2.3091,-2.3091,-2.3091,-2.3033,-2.3003,-2.2964,-2.2588,-2.2168,-2.1748,-2.1377,-2.0957,-2.0605,-2.0605,-2.0605,-2.0605,-2.0605,-2.0605,-2.0674,-2.1094,-2.0977,-2.0752,-2.1201,-2.1298,-2.1307,-2.1366,-2.1337,-2.1416,-2.1787,-2.1885,-2.1787,-2.1385,-2.1239,-2.1152,-2.0869,-2.0703,-2.0625,-2.0693,-2.0644,-2.0605,-2.0605,-2.0605,-2.0625,-2.0693,-2.0703,-2.0732,-2.0801,-2.0811,-2.0811,-2.0811,-2.1103,-2.1298,-2.1298,-2.167,-2.1758,-2.1405,-2.1327,-2.1504,-2.1865,-2.1953,-2.1982,-2.1982,-2.2041,-2.208,-2.208,-2.2432,-2.2607,-2.2617,-2.2925,-2.3091,-2.7216,-2.6509,-2.5554,-2.3673,-2.3516,-2.3691,-2.3276,-2.314,-2.3091,-2.3091,-2.3091,-2.3091,-2.3091,-2.3437,-2.3809,-2.416,-2.4855,-2.5889,-2.7187,-2.6934,-2.6689,-2.6894,-2.6855,-2.6533,-2.5762,-2.5693,-2.5693,-2.5693,-2.5693,-2.5537,-2.5135,-2.4648,-2.4228,-2.3799,-2.3315,-2.3091,-2.3091,-2.3091,-2.3091,-2.3091,-2.3091,-2.3091,-2.3091,-2.3091,-2.3091,-2.3081,-2.2721,-2.2607,-2.2578,-2.2158,-2.1728,-2.1288,-2.122,-2.0957,-2.0605,-2.0605,-2.0605,-2.0605,-2.0605,-2.0605,-2.0674,-2.1094,-2.1151,-2.1171,-2.165,-2.1787,-2.1855,-2.2217,-2.206,-2.1807,-2.1865,-2.1885,-2.1865,-2.1807,-2.1504,-2.1278,-2.1621,-2.1134,-2.0713,-2.1055,-2.083,-2.0605,-2.0605,-2.0605,-2.0732,-2.1074,-2.1093,-2.1269,-2.1641,-2.1689,-2.1689,-2.1689,-2.1748,-2.1787,-2.1787,-2.1846,-2.2012,-2.2295,-2.1982,-2.1816,-2.1885,-2.2227,-2.2412,-2.2412,-2.2721,-2.2906,-2.2906,-2.2974,-2.3003,-2.3003,-2.3062,-2.3091,-2.7156,-2.6699,-2.6159,-2.4262,-2.416,-2.4434,-2.4228,-2.3828,-2.3486,-2.3486,-2.3257,-2.3169,-2.3447,-2.3838,-2.4346,-2.5019,-2.5421,-2.6054,-2.7168,-2.7139,-2.7012,-2.7012,-2.7012,-2.668,-2.5771,-2.5693,-2.5693,-2.5693,-2.5693,-2.5537,-2.5135,-2.4648,-2.4228,-2.3799,-2.3315,-2.3091,-2.3091,-2.3091,-2.3091,-2.3091,-2.3091,-2.2974,-2.276,-2.276,-2.2676,-2.2451,-2.2256,-2.2178,-2.2139,-2.1709,-2.1375,-2.1171,-2.0967,-2.0752,-2.0605,-2.0605,-2.0605,-2.0605,-2.0605,-2.0723,-2.1006,-2.1445,-2.1582,-2.167,-2.209,-2.2217,-2.2266,-2.2461,-2.2373,-2.2275,-2.251,-2.2568,-2.251,-2.2275,-2.207,-2.1914,-2.1894,-2.1603,-2.1378,-2.1543,-2.1426,-2.1319,-2.1319,-2.1319,-2.1348,-2.1553,-2.1582,-2.166,-2.1865,-2.1885,-2.1885,-2.1885,-2.209,-2.2217,-2.2217,-2.2432,-2.2549,-2.251,-2.2549,-2.2568,-2.2568,-2.2744,-2.2808,-2.2808,-2.3003,-2.3091,-2.3091,-2.3091,-2.3091,-2.3091,-2.3091,-2.3091,-2.7154,-2.6668,-2.6357,-2.492,-2.4746,-2.4971,-2.5176,-2.4639,-2.4121,-2.4228,-2.3896,-2.3691,-2.4023,-2.4521,-2.5098,-2.5781,-2.6093,-2.6562,-2.7226,-2.7226,-2.7129,-2.7021,-2.6934,-2.6572,-2.5762,-2.5596,-2.5586,-2.5586,-2.544,-2.5273,-2.4932,-2.4502,-2.4121,-2.3799,-2.3315,-2.3091,-2.3091,-2.3091,-2.3091,-2.3091,-2.2994,-2.2779,-2.251,-2.2412,-2.2187,-2.1875,-2.1777,-2.1738,-2.1699,-2.126,-2.1074,-2.1045,-2.0742,-2.0605,-2.0605,-2.0605,-2.0674,-2.0723,-2.0723,-2.1016,-2.1455,-2.1894,-2.2031,-2.2119,-2.2529,-2.2656,-2.2656,-2.2656,-2.2656,-2.2691,-2.3013,-2.3091,-2.3013,-2.2691,-2.2588,-2.2451,-2.2227,-2.2021,-2.1914,-2.2012,-2.1953,-2.1885,-2.1885,-2.1885,-2.1924,-2.2021,-2.2031,-2.207,-2.2168,-2.2178,-2.2178,-2.2178,-2.2471,-2.2656,-2.2656,-2.2916,-2.2955,-2.2676,-2.2916,-2.3091,-2.3091,-2.3091,-2.3091,-2.3091,-2.3091,-2.3091,-2.3091,-2.3091,-2.3091,-2.3091,-2.3091,-2.3091,-2.7261,-2.6324,-2.5456,-2.5132,-2.4746,-2.4678,-2.545,-2.5322,-2.5088,-2.5508,-2.5244,-2.4988,-2.5018,-2.5674,-2.6269,-2.6328,-2.7334,-2.8125,-2.8193,-2.7861,-2.7471,-2.706,-2.667,-2.625,-2.5732,-2.5361,-2.5117,-2.5117,-2.4736,-2.4492,-2.4463,-2.4062,-2.3818,-2.3789,-2.3315,-2.3091,-2.3091,-2.3091,-2.3091,-2.3091,-2.2701,-2.2539,-2.25,-2.2109,-2.1914,-2.1865,-2.1455,-2.1239,-2.121,-2.0801,-2.0654,-2.0644,-2.0615,-2.0605,-2.0605,-2.0605,-2.083,-2.1142,-2.1142,-2.1475,-2.1904,-2.2324,-2.2471,-2.2549,-2.2925,-2.3052,-2.3052,-2.3052,-2.3052,-2.3052,-2.3091,-2.3091,-2.3091,-2.3052,-2.275,-2.2607,-2.2925,-2.2441,-2.2002,-2.2393,-2.2158,-2.1885,-2.1885,-2.1885,-2.2021,-2.2412,-2.2471,-2.2607,-2.2955,-2.3003,-2.3003,-2.3003,-2.3033,-2.3052,-2.3052,-2.3081,-2.3081,-2.3052,-2.3081,-2.3091,-2.3091,-2.3091,-2.3091,-2.3091,-2.3091,-2.3091,-2.3091,-2.3091,-2.3091,-2.3091,-2.3091,-2.3091,-2.6713,-2.6133,-2.5755,-2.4894,-2.4746,-2.5049,-2.5937,-2.6016,-2.5937,-2.6103,-2.6006,-2.581,-2.5537,-2.5977,-2.6475,-2.6738,-2.7627,-2.8291,-2.8291,-2.793,-2.7412,-2.6709,-2.624,-2.5703,-2.4933,-2.4756,-2.4668,-2.4668,-2.4268,-2.3906,-2.3598,-2.3486,-2.3281,-2.3008,-2.3042,-2.3091,-2.3091,-2.3091,-2.3091,-2.3091,-2.2935,-2.2627,-2.2119,-2.1963,-2.1582,-2.1094,-2.0889,-2.082,-2.081,-2.0674,-2.0605,-2.0605,-2.0605,-2.0605,-2.0635,-2.0879,-2.1094,-2.1239,-2.1543,-2.1924,-2.2305,-2.2461,-2.2685,-2.2886,-2.3052,-2.3091,-2.3091,-2.3091,-2.3091,-2.3091,-2.3091,-2.3091,-2.3091,-2.3091,-2.2974,-2.2896,-2.3062,-2.2847,-2.2672,-2.2828,-2.273,-2.2666,-2.2666,-2.2666,-2.2715,-2.2838,-2.2857,-2.2916,-2.3071,-2.3091,-2.3091,-2.3091,-2.3091,-2.3091,-2.3091,-2.3091,-2.3091,-2.3091,-2.3091,-2.3091,-2.3091,-2.3091,-2.3091,-2.3091,-2.3091,-2.3091,-2.3091,-2.3091,-2.3091,-2.3091,-2.3091,-2.3091,-2.6365,-2.605,-2.6036,-2.4556,-2.4648,-2.535,-2.6191,-2.6494,-2.666,-2.6934,-2.6777,-2.6416,-2.5791,-2.6201,-2.6641,-2.6797,-2.7646,-2.8252,-2.8115,-2.7734,-2.7148,-2.6289,-2.5791,-2.5234,-2.4482,-2.4297,-2.4219,-2.4219,-2.3828,-2.3398,-2.2916,-2.3076,-2.29,-2.2334,-2.2682,-2.2896,-2.2896,-2.2896,-2.2964,-2.3091,-2.3091,-2.2773,-2.208,-2.1953,-2.1484,-2.0781,-2.0781,-2.0732,-2.0605,-2.0605,-2.0605,-2.0605,-2.0605,-2.0605,-2.0664,-2.1064,-2.1278,-2.1504,-2.1934,-2.2353,-2.2672,-2.2672,-2.2867,-2.3091,-2.3091,-2.3091,-2.3091,-2.3091,-2.3091,-2.3091,-2.3091,-2.3091,-2.3091,-2.3091,-2.3091,-2.3091,-2.3091,-2.3091,-2.3091,-2.3091,-2.3091,-2.3091,-2.3091,-2.3091,-2.3091,-2.3091,-2.3091,-2.3091,-2.3091,-2.3091,-2.3091,-2.3091,-2.3091,-2.3091,-2.3091,-2.3091,-2.3091,-2.3091,-2.3091,-2.3091,-2.3091,-2.3091,-2.3091,-2.3091,-2.3091,-2.3091,-2.3091,-2.3091,-2.3091,-2.3091,-2.3091,-2.3091,-2.6354,-2.6039,-2.6054,-2.4275,-2.4489,-2.536,-2.6201,-2.6728,-2.7275,-2.8125,-2.7617,-2.6758,-2.5859,-2.6445,-2.6875,-2.6455,-2.7461,-2.8135,-2.7767,-2.7285,-2.6689,-2.5781,-2.5332,-2.4883,-2.4443,-2.4033,-2.3779,-2.3779,-2.3379,-2.2906,-2.2539,-2.2857,-2.2744,-2.1924,-2.2295,-2.251,-2.2519,-2.251,-2.2682,-2.3091,-2.3091,-2.2877,-2.25,-2.208,-2.165,-2.119,-2.119,-2.0977,-2.0605,-2.0605,-2.0605,-2.0605,-2.0605,-2.0605,-2.0664,-2.1074,-2.1514,-2.1953,-2.2373,-2.275,-2.3091,-2.3091,-2.3091,-2.3091,-2.3091,-2.3091,-2.3091,-2.3091,-2.3091,-2.3091,-2.3091,-2.3091,-2.3091,-2.3091,-2.3091,-2.3091,-2.3091,-2.3091,-2.3091,-2.3091,-2.3091,-2.3091,-2.3091,-2.3091,-2.3091,-2.3091,-2.3091,-2.3091,-2.3091,-2.3091,-2.3091,-2.3091,-2.3091,-2.3091,-2.3091,-2.3091,-2.3091,-2.3091,-2.3091,-2.3091,-2.3091,-2.3091,-2.3091,-2.3091,-2.3091,-2.3091,-2.3091,-2.3091,-2.3091,-2.3091,-2.3091,-2.3091,-2.6273,-2.5978,-2.599,-2.5091,-2.5445,-2.6221,-2.7141,-2.7617,-2.8066,-2.8623,-2.7812,-2.6943,-2.668,-2.6846,-2.6875,-2.6455,-2.7207,-2.7705,-2.7266,-2.6572,-2.5908,-2.5332,-2.4619,-2.3994,-2.351,-2.3364,-2.3286,-2.3286,-2.2939,-2.2646,-2.2519,-2.2353,-2.2275,-2.2324,-2.2158,-2.2353,-2.2906,-2.2656,-2.2682,-2.3091,-2.3091,-2.2877,-2.251,-2.2383,-2.1924,-2.119,-2.119,-2.0977,-2.0605,-2.0605,-2.0605,-2.0605,-2.0605,-2.0605,-2.0693,-2.1416,-2.1777,-2.1992,-2.2662,-2.2994,-2.3091,-2.3091,-2.3091,-2.3091,-2.3091,-2.3091,-2.3091,-2.3091,-2.3091,-2.3091,-2.3091,-2.3091,-2.3091,-2.3091,-2.3091,-2.3091,-2.3091,-2.3091,-2.3091,-2.3091,-2.3091,-2.3091,-2.3091,-2.3091,-2.3091,-2.3091,-2.3091,-2.3091,-2.3091,-2.3091,-2.3091,-2.3091,-2.3091,-2.3091,-2.3091,-2.3091,-2.3091,-2.3091,-2.3091,-2.3091,-2.3091,-2.3091,-2.3091,-2.3091,-2.3091,-2.3091,-2.3091,-2.3091,-2.3091,-2.3091,-2.3091,-2.3091,-2.6497,-2.6421,-2.656,-2.5506,-2.5809,-2.666,-2.7676,-2.8115,-2.8369,-2.8613,-2.793,-2.7275,-2.7275,-2.7275,-2.7139,-2.6709,-2.7217,-2.7451,-2.6855,-2.6172,-2.546,-2.4883,-2.4209,-2.3623,-2.314,-2.3091,-2.3091,-2.3091,-2.2867,-2.2685,-2.2519,-2.2432,-2.2344,-2.2266,-2.2178,-2.2373,-2.2838,-2.2637,-2.2682,-2.3091,-2.2925,-2.2711,-2.2519,-2.2685,-2.2295,-2.1475,-2.1123,-2.081,-2.0605,-2.0605,-2.0605,-2.0605,-2.0605,-2.0605,-2.0713,-2.1603,-2.1885,-2.2012,-2.2808,-2.3091,-2.3091,-2.3091,-2.3091,-2.3091,-2.3091,-2.3091,-2.3091,-2.3091,-2.3091,-2.3091,-2.3091,-2.3091,-2.3091,-2.3091,-2.3091,-2.3091,-2.3091,-2.3091,-2.3091,-2.3091,-2.3091,-2.3091,-2.3091,-2.3091,-2.3091,-2.3091,-2.3091,-2.3091,-2.3091,-2.3091,-2.3091,-2.3091,-2.3091,-2.3091,-2.3091,-2.3091,-2.3091,-2.3091,-2.3091,-2.3091,-2.3091,-2.3091,-2.3091,-2.3091,-2.3091,-2.3091,-2.3091,-2.3091,-2.3091,-2.3091,-2.3091,-2.3091,-2.7042,-2.7186,-2.7535,-2.5872,-2.6035,-2.6865,-2.8027,-2.8291,-2.8291,-2.8291,-2.7988,-2.7777,-2.7777,-2.7748,-2.7529,-2.709,-2.7314,-2.7266,-2.6445,-2.5918,-2.5274,-2.4512,-2.4014,-2.3574,-2.314,-2.3091,-2.3091,-2.3091,-2.3091,-2.2925,-2.2588,-2.2847,-2.2711,-2.2021,-2.2295,-2.249,-2.2568,-2.249,-2.2666,-2.3033,-2.2656,-2.2461,-2.2471,-2.2808,-2.2607,-2.1836,-2.0987,-2.0625,-2.0664,-2.0625,-2.0605,-2.0605,-2.0605,-2.0625,-2.0772,-2.1572,-2.1904,-2.206,-2.2818,-2.3091,-2.3091,-2.3091,-2.3091,-2.3091,-2.3091,-2.3091,-2.3091,-2.3091,-2.3091,-2.3091,-2.3091,-2.3091,-2.3091,-2.3091,-2.3091,-2.3091,-2.3091,-2.3091,-2.3091,-2.3091,-2.3091,-2.3091,-2.3091,-2.3091,-2.3091,-2.3091,-2.3091,-2.3091,-2.3091,-2.3091,-2.3091,-2.3091,-2.3091,-2.3091,-2.3091,-2.3091,-2.3091,-2.3091,-2.3091,-2.3091,-2.3091,-2.3091,-2.3091,-2.3091,-2.3091,-2.3091,-2.3091,-2.3091,-2.3091,-2.3091,-2.3091,-2.3091,-2.7951,-2.7994,-2.8254,-2.8191,-2.8029,-2.7949,-2.8232,-2.8291,-2.8291,-2.8291,-2.8223,-2.8154,-2.8154,-2.7891,-2.7529,-2.709,-2.6816,-2.6484,-2.5947,-2.5148,-2.4629,-2.4443,-2.3695,-2.3198,-2.311,-2.3091,-2.3091,-2.3091,-2.3091,-2.3052,-2.2964,-2.273,-2.2672,-2.2818,-2.2314,-2.2334,-2.2955,-2.2353,-2.2236,-2.2604,-2.2217,-2.2021,-2.2021,-2.2119,-2.206,-2.1836,-2.0987,-2.0762,-2.1064,-2.0752,-2.0605,-2.0605,-2.0605,-2.0781,-2.1152,-2.1689,-2.21,-2.2451,-2.2916,-2.3091,-2.3091,-2.3091,-2.3091,-2.3091,-2.3091,-2.3091,-2.3091,-2.3091,-2.3091,-2.3091,-2.3091,-2.3091,-2.3091,-2.3091,-2.3091,-2.3091,-2.3091,-2.3091,-2.3091,-2.3091,-2.3091,-2.3091,-2.3091,-2.3091,-2.3091,-2.3091,-2.3091,-2.3091,-2.3091,-2.3091,-2.3091,-2.3091,-2.3091,-2.3091,-2.3091,-2.3091,-2.3091,-2.3091,-2.3091,-2.3091,-2.3091,-2.3091,-2.3091,-2.3091,-2.3091,-2.3091,-2.3091,-2.3091,-2.3091,-2.3091,-2.3091,-2.3091,-2.8465,-2.871,-2.8944,-2.89,-2.8584,-2.8291,-2.8291,-2.8291,-2.8232,-2.8037,-2.8154,-2.8232,-2.8027,-2.7812,-2.7451,-2.6816,-2.6533,-2.6162,-2.5508,-2.4844,-2.4346,-2.4141,-2.3491,-2.3091,-2.3091,-2.3091,-2.3091,-2.3091,-2.3091,-2.3091,-2.3091,-2.2886,-2.2867,-2.3091,-2.2519,-2.2402,-2.2789,-2.2207,-2.1992,-2.2207,-2.1777,-2.1465,-2.13,-2.1475,-2.1572,-2.1543,-2.0859,-2.0742,-2.0898,-2.0703,-2.0605,-2.0605,-2.0605,-2.084,-2.1249,-2.1728,-2.2148,-2.2578,-2.2945,-2.3091,-2.3091,-2.3091,-2.3091,-2.3091,-2.3091,-2.3091,-2.3091,-2.3091,-2.3091,-2.3091,-2.3091,-2.3091,-2.3091,-2.3091,-2.3091,-2.3091,-2.3091,-2.3091,-2.3091,-2.3091,-2.3091,-2.3091,-2.3091,-2.3091,-2.3091,-2.3091,-2.3091,-2.3091,-2.3091,-2.3091,-2.3091,-2.3091,-2.3091,-2.3091,-2.3091,-2.3091,-2.3091,-2.3091,-2.3091,-2.3091,-2.3091,-2.3091,-2.3091,-2.3091,-2.3091,-2.3091,-2.3091,-2.3091,-2.3091,-2.3091,-2.3091,-2.3091,-2.8581,-2.916,-2.9555,-2.8956,-2.8574,-2.8321,-2.8119,-2.8076,-2.7978,-2.7627,-2.7891,-2.8057,-2.7637,-2.75,-2.7268,-2.6504,-2.6328,-2.5996,-2.5233,-2.4697,-2.4258,-2.3838,-2.3408,-2.3091,-2.3091,-2.3091,-2.3091,-2.3091,-2.3091,-2.3091,-2.3091,-2.3091,-2.3062,-2.2984,-2.2652,-2.248,-2.2402,-2.1982,-2.1777,-2.1768,-2.1328,-2.0918,-2.0615,-2.0947,-2.1122,-2.1171,-2.0762,-2.0644,-2.0713,-2.0635,-2.0605,-2.0615,-2.0693,-2.0957,-2.1356,-2.1836,-2.2266,-2.2676,-2.2974,-2.3091,-2.3091,-2.3091,-2.3091,-2.3091,-2.3091,-2.3091,-2.3091,-2.3091,-2.3091,-2.3091,-2.3091,-2.3091,-2.3091,-2.3091,-2.3091,-2.3091,-2.3091,-2.3091,-2.3091,-2.3091,-2.3091,-2.3091,-2.3091,-2.3091,-2.3091,-2.3091,-2.3091,-2.3091,-2.3091,-2.3091,-2.3091,-2.3091,-2.3091,-2.3091,-2.3091,-2.3091,-2.3091,-2.3091,-2.3091,-2.3091,-2.3091,-2.3091,-2.3091,-2.3091,-2.3091,-2.3091,-2.3091,-2.3091,-2.3091,-2.3091,-2.3091,-2.3091,-2.8176,-2.9137,-2.9897,-2.9042,-2.8788,-2.844,-2.7424,-2.7187,-2.7168,-2.7109,-2.7441,-2.7617,-2.7178,-2.6807,-2.6523,-2.6406,-2.6074,-2.5644,-2.5184,-2.4697,-2.4258,-2.3838,-2.3408,-2.3091,-2.3091,-2.3091,-2.3091,-2.3091,-2.3091,-2.3091,-2.3091,-2.3091,-2.2925,-2.2607,-2.2539,-2.2334,-2.1973,-2.1543,-2.1278,-2.1278,-2.0869,-2.0664,-2.0605,-2.0664,-2.0869,-2.1171,-2.0762,-2.0791,-2.1073,-2.0723,-2.0605,-2.0644,-2.0996,-2.1416,-2.1846,-2.2275,-2.2652,-2.3023,-2.3081,-2.3091,-2.3091,-2.3091,-2.3091,-2.3091,-2.3091,-2.3091,-2.3091,-2.3091,-2.3091,-2.3091,-2.3091,-2.3091,-2.3091,-2.3091,-2.3091,-2.3091,-2.3091,-2.3091,-2.3091,-2.3091,-2.3091,-2.3091,-2.3091,-2.3091,-2.3091,-2.3091,-2.3091,-2.3091,-2.3091,-2.3091,-2.3091,-2.3091,-2.3091,-2.3091,-2.3091,-2.3091,-2.3091,-2.3091,-2.3091,-2.3091,-2.3091,-2.3091,-2.3091,-2.3091,-2.3091,-2.3091,-2.3091,-2.3091,-2.3091,-2.3091,-2.3091,-2.3091,-2.8848,-2.9841,-3.0636,-3.0542,-2.9651,-2.8645,-2.8116,-2.75,-2.6943,-2.6709,-2.6621,-2.6523,-2.6288,-2.5937,-2.5576,-2.5322,-2.5127,-2.4844,-2.4414,-2.4189,-2.3906,-2.3477,-2.3218,-2.3091,-2.3091,-2.3091,-2.3091,-2.3091,-2.3091,-2.3091,-2.3091,-2.2877,-2.2662,-2.2519,-2.2051,-2.1709,-2.1523,-2.1084,-2.0859,-2.0859,-2.0693,-2.0605,-2.0605,-2.0605,-2.0713,-2.085,-2.0693,-2.0713,-2.084,-2.0683,-2.0605,-2.0644,-2.1025,-2.1504,-2.1934,-2.2353,-2.274,-2.3091,-2.3091,-2.3091,-2.3091,-2.3091,-2.3091,-2.3091,-2.3091,-2.3091,-2.3091,-2.3091,-2.3091,-2.3091,-2.3091,-2.3091,-2.3091,-2.3091,-2.3091,-2.3091,-2.3091,-2.3091,-2.3091,-2.3091,-2.3091,-2.3091,-2.3091,-2.3091,-2.3091,-2.3091,-2.3091,-2.3091,-2.3091,-2.3091,-2.3091,-2.3091,-2.3091,-2.3091,-2.3091,-2.3091,-2.3091,-2.3091,-2.3091,-2.3091,-2.3091,-2.3091,-2.3091,-2.3091,-2.3091,-2.3091,-2.3091,-2.3091,-2.3091,-2.3091,-2.3091,-2.3091,-2.9012,-2.9828,-3.0384,-3.0965,-2.993,-2.8694,-2.8208,-2.7443,-2.6596,-2.5996,-2.5547,-2.5196,-2.5196,-2.5059,-2.4795,-2.4473,-2.4414,-2.4268,-2.3848,-2.3789,-2.3633,-2.3149,-2.3091,-2.3052,-2.2945,-2.2935,-2.2896,-2.2779,-2.2877,-2.2935,-2.2935,-2.2643,-2.2461,-2.2353,-2.158,-2.1142,-2.1064,-2.0732,-2.0605,-2.0605,-2.0605,-2.0605,-2.0605,-2.0605,-2.0605,-2.0605,-2.0605,-2.0605,-2.0605,-2.0605,-2.0674,-2.0781,-2.1221,-2.166,-2.21,-2.2519,-2.2828,-2.3091,-2.3091,-2.3091,-2.3091,-2.3091,-2.3091,-2.3091,-2.3091,-2.3091,-2.3091,-2.3091,-2.3091,-2.3091,-2.3091,-2.3091,-2.3091,-2.3091,-2.3091,-2.3091,-2.3091,-2.3091,-2.3091,-2.3091,-2.3091,-2.3091,-2.3091,-2.3091,-2.3091,-2.3091,-2.3091,-2.3091,-2.3091,-2.3091,-2.3091,-2.3091,-2.3091,-2.3091,-2.3091,-2.3091,-2.3091,-2.3091,-2.3091,-2.3091,-2.3091,-2.3091,-2.3091,-2.3091,-2.3091,-2.3091,-2.3091,-2.3091,-2.3091,-2.3091,-2.3091,-2.3091,-2.7871,-2.8236,-2.8387,-2.8841,-2.8893,-2.8364,-2.6638,-2.617,-2.5853,-2.4743,-2.418,-2.3896,-2.3896,-2.4199,-2.4443,-2.4424,-2.4414,-2.4268,-2.3848,-2.3789,-2.3633,-2.3149,-2.3091,-2.2945,-2.2588,-2.2549,-2.2383,-2.1982,-2.2324,-2.2549,-2.2549,-2.2519,-2.2334,-2.1934,-2.1475,-2.1025,-2.0644,-2.0615,-2.0605,-2.0605,-2.0605,-2.0605,-2.0605,-2.0605,-2.0605,-2.0605,-2.0605,-2.0605,-2.0605,-2.0605,-2.081,-2.12,-2.168,-2.2109,-2.2529,-2.2906,-2.3081,-2.3091,-2.3091,-2.3091,-2.3091,-2.3091,-2.3091,-2.3091,-2.3091,-2.3091,-2.3091,-2.3091,-2.3091,-2.3091,-2.3091,-2.3091,-2.3091,-2.3091,-2.3091,-2.3091,-2.3091,-2.3091,-2.3091,-2.3091,-2.3091,-2.3091,-2.3091,-2.3091,-2.3091,-2.3091,-2.3091,-2.3091,-2.3091,-2.3091,-2.3091,-2.3091,-2.3091,-2.3091,-2.3091,-2.3091,-2.3091,-2.3091,-2.3091,-2.3091,-2.3091,-2.3091,-2.3091,-2.3091,-2.3091,-2.3091,-2.3091,-2.3091,-2.3091,-2.3091,-2.3091,-2.3091,-2.7896,-2.836,-2.875,-2.9298,-2.9113,-2.8639,-2.7977,-2.6933,-2.5979,-2.5583,-2.4616,-2.3789,-2.3789,-2.3682,-2.3549,-2.3549,-2.3549,-2.35,-2.3344,-2.3369,-2.3276,-2.311,-2.3091,-2.3033,-2.2886,-2.2877,-2.2744,-2.2324,-2.2432,-2.2393,-2.2129,-2.1846,-2.158,-2.1475,-2.1035,-2.0772,-2.0605,-2.0605,-2.0605,-2.0605,-2.0605,-2.0605,-2.0605,-2.0605,-2.0605,-2.0605,-2.0605,-2.0605,-2.0605,-2.0605,-2.0693,-2.0879,-2.1602,-2.1982,-2.2197,-2.2838,-2.3091,-2.3091,-2.3091,-2.3091,-2.3091,-2.3091,-2.3091,-2.3091,-2.3091,-2.3091,-2.3091,-2.3091,-2.3091,-2.3091,-2.3091,-2.3091,-2.3091,-2.3091,-2.3091,-2.3091,-2.3091,-2.3091,-2.3091,-2.3091,-2.3091,-2.3091,-2.3091,-2.3091,-2.3091,-2.3091,-2.3091,-2.3091,-2.3091,-2.3091,-2.3091,-2.3091,-2.3091,-2.3091,-2.3091,-2.3091,-2.3091,-2.3091,-2.3091,-2.3091,-2.3091,-2.3091,-2.3091,-2.3091,-2.3091,-2.3091,-2.3091,-2.3091,-2.3091,-2.3091,-2.3091,-2.3091,-2.7457,-2.7821,-2.8285,-2.9038,-2.8739,-2.8394,-2.8755,-2.7316,-2.5977,-2.6144,-2.48,-2.3613,-2.376,-2.3437,-2.3091,-2.3091,-2.3091,-2.3091,-2.3091,-2.3091,-2.3091,-2.3091,-2.3091,-2.3042,-2.2896,-2.2886,-2.2711,-2.2334,-2.2305,-2.2178,-2.1904,-2.1434,-2.1132,-2.1016,-2.0723,-2.0605,-2.0605,-2.0605,-2.0605,-2.0605,-2.0605,-2.0605,-2.0605,-2.0605,-2.0605,-2.0605,-2.0605,-2.0605,-2.0605,-2.0605,-2.0781,-2.1104,-2.166,-2.206,-2.2373,-2.2886,-2.3091,-2.3091,-2.3091,-2.3091,-2.3091,-2.3091,-2.3091,-2.3091,-2.3091,-2.3091,-2.3091,-2.3091,-2.3091,-2.3091,-2.3091,-2.3091,-2.3091,-2.3091,-2.3091,-2.3091,-2.3091,-2.3091,-2.3091,-2.3091,-2.3091,-2.3091,-2.3091,-2.3091,-2.3091,-2.3091,-2.3091,-2.3091,-2.3091,-2.3091,-2.3091,-2.3091,-2.3091,-2.3091,-2.3091,-2.3091,-2.3091,-2.3091,-2.3091,-2.3091,-2.3091,-2.3091,-2.3091,-2.3091,-2.3091,-2.3091,-2.3091,-2.3091,-2.3091,-2.3091,-2.3091,-2.3091,0.0,0.0,0.0,-2.7795,-2.767,-2.7567,-2.8603,-2.7186,-2.5776,-2.6223,-2.4639,-2.3252,-2.3736,-2.3428,-2.3091,-2.3091,-2.3091,-2.3091,-2.3091,-2.3091,-2.3091,-2.3091,-2.3091,-2.2935,-2.2568,-2.2529,-2.2353,-2.1934,-2.1904,-2.1894,-2.1865,-2.1455,-2.1016,-2.0615,-2.0605,-2.0605,-2.0605,-2.0605,-2.0605,-2.0605,-2.0605,-2.0605,-2.0605,-2.0605,-2.0605,-2.0605,-2.0605,-2.0605,-2.0605,-2.0605,-2.1114,-2.1846,-2.1875,-2.2383,-2.3062,-2.3081,-2.3091,-2.3091,-2.3091,-2.3091,-2.3091,-2.3091,-2.3091,-2.3091,-2.3091,-2.3091,-2.3091,-2.3091,-2.3091,-2.3091,-2.3091,-2.3091,-2.3091,-2.3091,-2.3091,-2.3091,-2.3091,-2.3091,-2.3091,-2.3091,-2.3091,-2.3091,-2.3091,-2.3091,-2.3091,-2.3091,-2.3091,-2.3091,-2.3091,-2.3091,-2.3091,-2.3091,-2.3091,-2.3091,-2.3091,-2.3091,-2.3091,-2.3091,-2.3091,-2.3091,-2.3091,-2.3091,-2.3091,-2.3091,-2.3091,-2.3091,-2.3091,-2.3091,-2.3091,-2.3091,-2.3091,-2.3091,-2.6499,0.0,0.0,0.0,0.0,0.0,-2.7668,-2.6982,-2.6411,-2.6938,-2.5263,-2.3893,-2.4442,-2.3761,-2.3091,-2.3091,-2.3091,-2.3091,-2.3091,-2.3091,-2.3091,-2.3091,-2.3091,-2.3052,-2.2935,-2.2925,-2.275,-2.2373,-2.2344,-2.207,-2.1445,-2.0996,-2.0693,-2.0605,-2.0605,-2.0605,-2.0605,-2.0605,-2.0605,-2.0605,-2.0605,-2.0605,-2.0605,-2.0605,-2.0605,-2.0605,-2.0605,-2.0605,-2.0605,-2.0605,-2.0752,-2.1036,-2.1631,-2.2031,-2.2305,-2.2877,-2.3091,-2.3091,-2.3091,-2.3091,-2.3091,-2.3091,-2.3091,-2.3091,-2.3091,-2.3091,-2.3091,-2.3091,-2.3091,-2.3091,-2.3091,-2.3091,-2.3091,-2.3091,-2.3091,-2.3091,-2.3091,-2.3091,-2.3091,-2.3091,-2.3091,-2.3091,-2.3091,-2.3091,-2.3091,-2.3091,-2.3091,-2.3091,-2.3091,-2.3091,-2.3091,-2.3091,-2.3091,-2.3091,-2.3091,-2.3091,-2.3091,-2.3091,-2.3091,-2.3091,-2.3091,-2.3091,-2.3091,-2.3091,-2.3091,-2.3091,-2.3091,-2.3091,-2.3091,-2.3091,-2.3091,-2.3091,-2.6499,-2.6499,-2.6549,-2.6788,0.0,0.0,-2.7808,-2.72,-2.6771,-2.7735,-2.6384,-2.5048,-2.505,-2.4387,-2.3627,-2.3178,-2.3247,-2.3305,-2.312,-2.3091,-2.3091,-2.3091,-2.3091,-2.3091,-2.3091,-2.3091,-2.2994,-2.275,-2.2607,-2.2139,-2.1239,-2.081,-2.0605,-2.0605,-2.0605,-2.0605,-2.0605,-2.0605,-2.0605,-2.0605,-2.0605,-2.0605,-2.0605,-2.0605,-2.0605,-2.0605,-2.0605,-2.0605,-2.0605,-2.0605,-2.0713,-2.0918,-2.1611,-2.1992,-2.2227,-2.2847,-2.3091,-2.3091,-2.3091,-2.3091,-2.3091,-2.3091,-2.3091,-2.3091,-2.3091,-2.3091,-2.3091,-2.3091,-2.3091,-2.3091,-2.3091,-2.3091,-2.3091,-2.3091,-2.3091,-2.3091,-2.3091,-2.3091,-2.3091,-2.3091,-2.3091,-2.3091,-2.3091,-2.3091,-2.3091,-2.3091,-2.3091,-2.3091,-2.3091,-2.3091,-2.3091,-2.3091,-2.3091,-2.3091,-2.3091,-2.3091,-2.3091,-2.3091,-2.3091,-2.3091,-2.3091,-2.3091,-2.3091,-2.3091,-2.3091,-2.3091,-2.3091,-2.3091,-2.3091,-2.3091,-2.3091,-2.3091,-2.6499,-2.6499,-2.6612,-2.7102,-2.6851,0.0,-2.8323,-2.7544,-2.6926,-2.8331,-2.7429,-2.6218,-2.5648,-2.5137,-2.4471,-2.3444,-2.3741,-2.3895,-2.3252,-2.3169,-2.3169,-2.3169,-2.312,-2.3091,-2.3091,-2.3091,-2.3091,-2.3091,-2.2705,-2.2109,-2.1307,-2.084,-2.0605,-2.0605,-2.0605,-2.0605,-2.0605,-2.0605,-2.0605,-2.0605,-2.0605,-2.0605,-2.0605,-2.0605,-2.0605,-2.0605,-2.0605,-2.0605,-2.0605,-2.0605,-2.0801,-2.1161,-2.1641,-2.207,-2.249,-2.2877,-2.3052,-2.3091,-2.3091,-2.3091,-2.3091,-2.3091,-2.3091,-2.3091,-2.3091,-2.3091,-2.3091,-2.3091,-2.3091,-2.3091,-2.3091,-2.3091,-2.3091,-2.3091,-2.3091,-2.3091,-2.3091,-2.3091,-2.3091,-2.3091,-2.3091,-2.3091,-2.3091,-2.3091,-2.3091,-2.3091,-2.3091,-2.3091,-2.3091,-2.3091,-2.3091,-2.3091,-2.3091,-2.3091,-2.3091,-2.3091,-2.3091,-2.3091,-2.314,-2.3169,-2.3169,-2.3208,-2.3237,-2.3237,-2.3188,-2.314,-2.3091,-2.3091,-2.3091,-2.3091,-2.3091,-2.312,-2.6499,-2.6499,-2.6524,-2.6625,-2.6575,0.0,-2.6901,-2.6714,-2.671,-2.7456,-2.6598,-2.5893,-2.6225,-2.5459,-2.4719,-2.4509,-2.53,-2.5424,-2.388,-2.3662,-2.3662,-2.3662,-2.3305,-2.3091,-2.3091,-2.3091,-2.3091,-2.3091,-2.2441,-2.1934,-2.1768,-2.1036,-2.0605,-2.0605,-2.0605,-2.0605,-2.0605,-2.0605,-2.0605,-2.0605,-2.0605,-2.0605,-2.0605,-2.0605,-2.0605,-2.0605,-2.0605,-2.0605,-2.0605,-2.0605,-2.0654,-2.0781,-2.1191,-2.1631,-2.206,-2.248,-2.2808,-2.3091,-2.3091,-2.3091,-2.3091,-2.3091,-2.3091,-2.3091,-2.3091,-2.3091,-2.3091,-2.3091,-2.3091,-2.3091,-2.3091,-2.3091,-2.3091,-2.3091,-2.3091,-2.3091,-2.3091,-2.3091,-2.3091,-2.3091,-2.3091,-2.3091,-2.3091,-2.3091,-2.3091,-2.3091,-2.3091,-2.3091,-2.3091,-2.3091,-2.3091,-2.3091,-2.3091,-2.3091,-2.3091,-2.3091,-2.3091,-2.3091,-2.3467,-2.3662,-2.3662,-2.3984,-2.417,-2.417,-2.3838,-2.3486,-2.3091,-2.3091,-2.3091,-2.3091,-2.3091,-2.3286,-2.6499,-2.6499,-2.6499,-2.6499,-2.6499,0.0,0.0,-2.6713,-2.6989,-2.7218,-2.7051,-2.6784,-2.6526,-2.6019,-2.5549,-2.5267,-2.5857,-2.6181,-2.5514,-2.5019,-2.472,-2.472,-2.3731,-2.3091,-2.3091,-2.3091,-2.3091,-2.3091,-2.2549,-2.2109,-2.1894,-2.126,-2.0791,-2.0615,-2.0605,-2.0605,-2.0605,-2.0605,-2.0605,-2.0605,-2.0605,-2.0605,-2.0605,-2.0605,-2.0605,-2.0605,-2.0605,-2.0605,-2.0605,-2.0605,-2.0605,-2.0644,-2.1025,-2.1504,-2.1934,-2.2353,-2.274,-2.3091,-2.3091,-2.3091,-2.3091,-2.3091,-2.3091,-2.3091,-2.3091,-2.3091,-2.3091,-2.3091,-2.3091,-2.3091,-2.3091,-2.3091,-2.3091,-2.3091,-2.3257,-2.3467,-2.3467,-2.3467,-2.3525,-2.3695,-2.3383,-2.3091,-2.3091,-2.3091,-2.3091,-2.3091,-2.3091,-2.3091,-2.3091,-2.3091,-2.3091,-2.3091,-2.3091,-2.3091,-2.3091,-2.3091,-2.3091,-2.3091,-2.3305,-2.3564,-2.3779,-2.3984,-2.4199,-2.4414,-2.4004,-2.3682,-2.3467,-2.3467,-2.3305,-2.3101,-2.3315,-2.3584,-2.6499,-2.6499,-2.6499,-2.6499,-2.6499,-2.6499,0.0,0.0,0.0,-2.7165,-2.7482,-2.7529,-2.6661,-2.65,-2.6332,-2.5853,-2.6268,-2.6805,-2.7245,-2.6506,-2.5905,-2.5882,-2.4236,-2.3178,-2.343,-2.3222,-2.3091,-2.3091,-2.2711,-2.2363,-2.2021,-2.1514,-2.1064,-2.0742,-2.0644,-2.0605,-2.0605,-2.0605,-2.0605,-2.0605,-2.0605,-2.0605,-2.0605,-2.0605,-2.0605,-2.0605,-2.0605,-2.0605,-2.0605,-2.0605,-2.0654,-2.0732,-2.1054,-2.1504,-2.1934,-2.2353,-2.274,-2.3091,-2.3091,-2.3091,-2.3091,-2.3091,-2.3091,-2.3091,-2.3091,-2.3091,-2.3091,-2.3091,-2.3091,-2.3091,-2.3091,-2.3159,-2.3218,-2.3218,-2.3594,-2.3906,-2.3906,-2.3906,-2.4014,-2.4346,-2.3812,-2.3335,-2.3335,-2.3276,-2.3218,-2.3218,-2.3218,-2.3188,-2.311,-2.3091,-2.3091,-2.3091,-2.3091,-2.3091,-2.3091,-2.3091,-2.3091,-2.3091,-2.3247,-2.35,-2.3896,-2.4072,-2.4287,-2.4531,-2.4209,-2.3994,-2.3906,-2.3906,-2.3682,-2.3227,-2.3711,-2.3955,-2.6499,-2.6499,-2.6499,-2.6499,-2.6499,-2.6499,-2.6499,0.0,-2.6587,-2.6587,0.0,-2.664,-2.6536,0.0,0.0,-2.639,-2.7234,-2.7928,-2.7978,-2.7474,-2.7065,-2.6961,-2.466,-2.3507,-2.45,-2.3671,-2.3091,-2.3091,-2.2711,-2.249,-2.2441,-2.1639,-2.1171,-2.1122,-2.0771,-2.0605,-2.0605,-2.0605,-2.0605,-2.0605,-2.0605,-2.0605,-2.0605,-2.0605,-2.0605,-2.0605,-2.0605,-2.0605,-2.0605,-2.0605,-2.0801,-2.1122,-2.1171,-2.1504,-2.1934,-2.2353,-2.274,-2.3091,-2.3091,-2.3091,-2.3091,-2.3091,-2.3091,-2.3091,-2.3091,-2.3091,-2.3091,-2.3091,-2.3091,-2.3091,-2.3091,-2.3428,-2.3721,-2.3721,-2.4043,-2.4346,-2.4346,-2.4346,-2.4365,-2.4404,-2.4336,-2.4268,-2.4268,-2.3965,-2.3721,-2.3721,-2.3721,-2.3574,-2.314,-2.3091,-2.3091,-2.3091,-2.3091,-2.3091,-2.3091,-2.3091,-2.3091,-2.3091,-2.3812,-2.4297,-2.4346,-2.505,-2.5352,-2.5047,-2.4998,-2.4736,-2.4346,-2.4346,-2.4131,-2.3721,-2.415,-2.4551,-2.6499,-2.6499,-2.6499,-2.6499,-2.6499,-2.6499,-2.6499,-2.6499,-2.6499,-2.6499,0.0,0.0,0.0,0.0,0.0,0.0,-2.7318,-2.7745,-2.8059,-2.7369,-2.6912,-2.7192,-2.5362,-2.4146,-2.4305,-2.3574,-2.2994,-2.275,-2.2789,-2.2656,-2.2178,-2.1807,-2.1611,-2.1611,-2.1191,-2.1074,-2.1368,-2.1368,-2.1201,-2.0957,-2.0957,-2.082,-2.0605,-2.0605,-2.0605,-2.0605,-2.0605,-2.0605,-2.0625,-2.084,-2.1064,-2.1249,-2.1736,-2.209,-2.2275,-2.2451,-2.274,-2.3091,-2.3091,-2.3091,-2.3091,-2.3091,-2.3091,-2.3091,-2.3091,-2.3091,-2.3091,-2.3091,-2.3276,-2.3516,-2.3516,-2.3838,-2.415,-2.415,-2.4482,-2.4795,-2.4795,-2.4795,-2.4873,-2.5127,-2.4766,-2.458,-2.505,-2.4609,-2.415,-2.415,-2.415,-2.4092,-2.3861,-2.3832,-2.3832,-2.3832,-2.3832,-2.3832,-2.3832,-2.3832,-2.3832,-2.3832,-2.4453,-2.4795,-2.4795,-2.54,-2.5596,-2.5459,-2.5205,-2.498,-2.4795,-2.4795,-2.4707,-2.4578,-2.4707,-2.4893,-2.6952,-2.6839,-2.6713,-2.6713,-2.6612,-2.6499,-2.6499,-2.6499,-2.6499,-2.6499,-2.6499,0.0,0.0,0.0,0.0,0.0,0.0,-2.7241,-2.7595,-2.698,-2.6769,-2.742,-2.6306,-2.5255,-2.4728,-2.4125,-2.3624,-2.3135,-2.3153,-2.2863,-2.2246,-2.2012,-2.1934,-2.206,-2.1641,-2.1562,-2.1885,-2.1885,-2.1728,-2.1375,-2.1249,-2.1064,-2.0742,-2.0664,-2.0605,-2.0615,-2.0732,-2.0752,-2.0781,-2.123,-2.1444,-2.1609,-2.2266,-2.2578,-2.2643,-2.2643,-2.2838,-2.3091,-2.3091,-2.3091,-2.3091,-2.3091,-2.3091,-2.3091,-2.3091,-2.3179,-2.3276,-2.3276,-2.3633,-2.3965,-2.3965,-2.4277,-2.459,-2.459,-2.4932,-2.5254,-2.5254,-2.5254,-2.5352,-2.5625,-2.5177,-2.4933,-2.5577,-2.5098,-2.459,-2.459,-2.459,-2.4551,-2.4434,-2.4414,-2.4414,-2.4414,-2.4414,-2.4414,-2.4414,-2.4414,-2.4473,-2.459,-2.4893,-2.5174,-2.5244,-2.5566,-2.5693,-2.5693,-2.542,-2.5254,-2.5254,-2.5254,-2.5254,-2.5254,-2.5254,-2.5254,-2.8059,-2.7657,-2.7256,-2.7256,-2.6889,-2.6499,-2.6499,-2.6499,-2.6499,-2.6499,-2.6499,-2.6499,-2.6499,0.0,0.0,0.0,0.0,0.0,0.0,-2.6515,-2.6882,-2.796,-2.7586,-2.7018,-2.6487,-2.585,-2.5314,-2.4777,-2.3824,-2.3227,-2.3057,-2.2324,-2.207,-2.248,-2.209,-2.1875,-2.1885,-2.1885,-2.1875,-2.1865,-2.1435,-2.119,-2.1161,-2.0762,-2.0605,-2.0625,-2.1025,-2.1171,-2.121,-2.168,-2.2109,-2.2471,-2.25,-2.2721,-2.3071,-2.3071,-2.3081,-2.3091,-2.3091,-2.3091,-2.3091,-2.3091,-2.3091,-2.3091,-2.3091,-2.3437,-2.3769,-2.3769,-2.4072,-2.4394,-2.4394,-2.4717,-2.5096,-2.5096,-2.5391,-2.5664,-2.5664,-2.5664,-2.5674,-2.5684,-2.5664,-2.5654,-2.5684,-2.5352,-2.5096,-2.5096,-2.5096,-2.4893,-2.4473,-2.4414,-2.4414,-2.4414,-2.4414,-2.4414,-2.4414,-2.4414,-2.459,-2.5067,-2.5106,-2.5264,-2.5645,-2.5684,-2.5693,-2.5693,-2.5674,-2.5664,-2.5664,-2.5664,-2.5664,-2.5664,-2.5664,-2.5664,-2.8109,-2.7708,-2.7281,-2.7281,-2.6901,-2.6499,-2.6499,-2.6499,-2.66,-2.6964,-2.6751,-2.6612,-2.6964,0.0,0.0,0.0,0.0,0.0,0.0,-2.6499,-2.6763,-2.7469,-2.7088,-2.6523,-2.5954,-2.5163,-2.4324,-2.3465,-2.2991,-2.2653,-2.2305,-2.2305,-2.249,-2.2867,-2.2519,-2.2432,-2.2672,-2.2672,-2.2578,-2.2295,-2.2158,-2.1934,-2.166,-2.1514,-2.1476,-2.1486,-2.1602,-2.167,-2.1699,-2.2119,-2.2383,-2.2539,-2.2779,-2.2974,-2.3091,-2.3091,-2.3091,-2.3091,-2.3091,-2.3091,-2.3091,-2.3091,-2.3091,-2.3149,-2.3486,-2.3672,-2.3848,-2.4121,-2.4512,-2.4844,-2.4844,-2.5176,-2.5508,-2.5508,-2.5577,-2.5693,-2.5693,-2.5693,-2.5693,-2.5693,-2.5693,-2.5693,-2.5693,-2.5605,-2.5508,-2.5508,-2.5508,-2.5459,-2.5255,-2.5245,-2.5245,-2.5245,-2.5245,-2.5245,-2.5245,-2.5245,-2.5304,-2.5508,-2.5508,-2.5586,-2.5684,-2.5693,-2.5693,-2.5693,-2.5693,-2.5693,-2.5693,-2.5693,-2.5693,-2.5693,-2.5693,-2.5693,-2.8699,-2.8298,-2.7871,-2.7871,-2.7457,-2.7077,-2.7077,-2.7077,-2.7178,-2.7507,-2.7165,-2.6901,-2.7253,0.0,0.0,0.0,0.0,0.0,0.0,-2.6499,-2.6625,-2.6977,-2.6881,-2.6771,-2.6783,-2.5889,-2.5111,-2.4635,-2.3691,-2.3043,-2.2924,-2.2643,-2.2662,-2.3081,-2.2838,-2.2818,-2.3091,-2.3091,-2.2955,-2.2691,-2.2588,-2.2373,-2.21,-2.1953,-2.1885,-2.1894,-2.2041,-2.2109,-2.2139,-2.2568,-2.2691,-2.2721,-2.2984,-2.3091,-2.3091,-2.3091,-2.3091,-2.3091,-2.3091,-2.3091,-2.3091,-2.3091,-2.3198,-2.3428,-2.3711,-2.4004,-2.4297,-2.457,-2.4971,-2.5303,-2.5303,-2.5518,-2.5693,-2.5693,-2.5693,-2.5693,-2.5693,-2.5693,-2.5693,-2.5693,-2.5693,-2.5693,-2.5693,-2.5693,-2.5693,-2.5693,-2.5693,-2.5693,-2.5693,-2.5693,-2.5693,-2.5693,-2.5693,-2.5693,-2.5693,-2.5693,-2.5693,-2.5693,-2.5693,-2.5693,-2.5693,-2.5693,-2.5693,-2.5693,-2.5693,-2.5693,-2.5693,-2.5693,-2.5693,-2.5693,-2.5693,-2.5693]},{"header":{"parameterUnit":"m.s-1","parameterCategory":1,"la1":30.6,"la2":29.2853,"lo1":-89.7004,"lo2":-87.6739,"dy":0.0162,"dx":0.0183,"nx":112,"ny":82,"refTime":"2026-03-03T00:00:00:Z","depth":0,"parameterNumber":3,"parameterNumberName":"V-component_of_WINDS"},"data":[0.0,0.0,0.0,0.0,0.0,0.0,0.0,0.0,0.0,0.0,0.0,0.0,0.0,0.0,0.0,0.0,0.0,0.0,0.0,0.0,0.0,0.0,0.0,0.0,0.0,0.0,0.0,0.0,0.0,0.0,0.0,0.0,0.0,0.0,0.0,0.0,0.0,0.0,0.0,0.0,0.0,0.0,0.0,0.0,0.0,0.0,0.0,0.0,0.0,0.0,0.0,0.0,0.0,0.0,0.0,0.0,0.0,0.0,0.0,0.0,0.0,0.0,0.0,0.0,0.0,0.0,0.0,0.0,0.0,0.0,0.0,0.0,0.0,0.0,0.0,0.0,0.0,0.0,0.0,0.0,0.0,0.0,0.0,0.0,0.0,0.0,0.0,0.0,0.0,0.0,1.5291,1.5223,1.5879,1.6321,1.6321,1.6453,1.5664,1.3595,0.0,0.0,0.0,0.0,0.0,0.0,0.0,0.0,0.0,0.0,0.0,0.0,0.0,0.0,0.0,0.0,0.0,0.0,0.0,0.0,0.0,0.0,0.0,0.0,0.0,0.0,0.0,0.0,0.0,0.0,0.0,0.0,0.0,0.0,0.0,0.0,0.0,0.0,0.0,0.0,0.0,0.0,0.0,0.0,0.0,0.0,0.0,0.0,0.0,0.0,0.0,0.0,0.0,0.0,0.0,0.0,0.0,0.0,0.0,0.0,0.0,0.0,0.0,0.0,0.0,0.0,0.0,0.0,0.0,0.0,0.0,0.0,0.0,0.0,0.0,0.0,0.0,0.0,0.0,0.0,0.0,0.0,0.0,0.0,0.0,0.0,0.0,0.0,0.0,0.0,0.0,0.0,0.0,0.0,0.0,0.0,0.0,0.0,0.0,0.0,0.0,0.0,0.0,0.0,1.5343,1.6047,1.6241,1.6321,1.6321,1.6086,1.5584,1.4772,0.0,0.0,0.0,0.0,0.0,0.0,0.0,0.0,0.0,0.0,0.0,0.0,0.0,0.0,0.0,0.0,0.0,0.0,0.0,0.0,0.0,0.0,0.0,0.0,0.0,0.0,0.0,0.0,0.0,0.0,0.0,0.0,0.0,0.0,0.0,0.0,0.0,0.0,0.0,0.0,0.0,0.0,0.0,0.0,0.0,0.0,0.0,0.0,0.0,0.0,0.0,0.0,0.0,0.0,0.0,0.0,0.0,0.0,0.0,0.0,0.0,0.0,0.0,0.0,0.0,0.0,0.0,0.0,0.0,0.0,0.0,0.0,0.0,0.0,0.0,0.0,0.0,0.0,0.0,0.0,0.0,0.0,0.0,0.0,0.0,0.0,0.0,0.0,0.0,0.0,0.0,0.0,0.0,0.0,0.0,0.0,0.0,0.0,0.0,0.0,0.0,0.0,0.0,1.4941,1.5237,1.5959,1.6032,1.6032,1.6032,1.5905,1.5578,1.5042,1.4624,0.0,0.0,0.0,0.0,0.0,0.0,0.0,0.0,0.0,0.0,0.0,0.0,0.0,0.0,0.0,0.0,0.0,0.0,0.0,0.0,0.0,0.0,0.0,0.0,0.0,0.0,0.0,0.0,0.0,0.0,0.0,0.0,0.0,0.0,0.0,0.0,0.0,0.0,0.0,0.0,0.0,0.0,0.0,0.0,0.0,0.0,0.0,0.0,0.0,0.0,0.0,0.0,0.0,0.0,0.0,0.0,0.0,0.0,0.0,0.0,0.0,0.0,0.0,0.0,0.0,0.0,0.0,0.0,0.0,0.0,0.0,0.0,0.0,0.0,0.0,0.0,0.0,0.0,0.0,0.0,0.0,0.0,0.0,0.0,0.0,0.0,0.0,0.0,0.0,0.0,0.0,0.0,0.0,0.0,0.0,0.0,0.0,0.0,0.0,0.0,0.0,0.0,1.567,1.5579,1.6183,1.5907,1.5732,1.5732,1.5665,1.5404,1.489,1.4863,0.0,0.0,0.0,0.0,0.0,0.0,0.0,0.0,0.0,0.0,0.0,0.0,0.0,0.0,0.0,0.0,0.0,0.0,0.0,0.0,0.0,0.0,0.0,0.0,0.0,0.0,0.0,0.0,0.0,0.0,0.0,0.0,0.0,0.0,0.0,0.0,0.0,0.0,0.0,0.0,0.0,0.0,0.0,0.0,0.0,0.0,0.0,0.0,0.0,0.0,0.0,0.0,0.0,0.0,0.0,0.0,0.0,0.0,0.0,0.0,0.0,0.0,0.0,0.0,0.0,0.0,0.0,0.0,0.0,0.0,0.0,0.0,0.0,0.0,0.0,0.0,0.0,0.0,0.0,0.0,0.0,0.0,0.0,0.0,0.0,0.0,0.0,0.0,0.0,0.0,0.0,0.0,0.0,0.0,0.0,0.0,0.0,0.0,0.0,0.0,0.0,0.0,1.7172,1.6758,1.7478,1.6276,1.5424,1.5424,1.5177,1.489,1.4569,1.4549,0.0,0.0,0.0,0.0,0.0,0.0,0.0,0.0,0.0,0.0,0.0,0.0,0.0,0.0,0.0,0.0,0.0,0.0,0.0,0.0,0.0,0.0,0.0,0.0,0.0,0.0,0.0,0.0,0.0,0.0,0.0,0.0,0.0,0.0,0.0,0.0,0.0,0.0,0.0,0.0,0.0,0.0,0.0,0.0,0.0,0.0,0.0,0.0,0.0,0.0,0.0,0.0,0.0,0.0,0.0,0.0,0.0,0.0,0.0,0.0,0.0,0.0,0.0,0.0,0.0,0.0,0.0,0.0,0.0,0.0,0.0,0.0,0.0,0.0,0.0,0.0,0.0,0.0,0.0,0.0,0.0,0.0,0.0,0.0,0.0,0.0,0.0,0.0,0.0,0.0,0.0,0.0,0.0,0.0,0.0,0.0,0.0,0.0,0.0,0.0,0.0,0.0,1.7439,1.7502,1.794,1.7478,1.7143,1.7143,1.7066,1.6548,1.5576,0.0,0.0,0.0,0.0,0.0,0.0,0.0,0.0,0.0,0.0,0.0,0.0,0.0,0.0,0.0,0.0,0.0,0.0,0.0,0.0,0.0,0.0,0.0,0.0,0.0,0.0,0.0,0.0,0.0,0.0,0.0,0.0,0.0,0.0,0.0,0.0,0.0,0.0,0.0,0.0,0.0,0.0,0.0,0.0,0.0,0.0,0.0,0.0,0.0,0.0,0.0,0.0,0.0,0.0,0.0,0.0,0.0,0.0,0.0,0.0,0.0,0.0,0.0,0.0,0.0,0.0,0.0,0.0,0.0,0.0,0.0,0.0,0.0,0.0,0.0,0.0,0.0,0.0,0.0,0.0,0.0,0.0,0.0,0.0,0.0,0.0,0.0,0.0,0.0,0.0,0.0,0.0,0.0,0.0,0.0,0.0,0.0,0.0,0.0,0.0,0.0,0.0,1.8169,1.8273,1.8439,1.876,1.8359,1.812,1.8235,1.8038,1.7498,1.6545,0.0,0.0,0.0,0.0,0.0,0.0,0.0,0.0,0.0,0.0,0.0,0.0,0.0,0.0,0.0,0.0,0.0,0.0,0.0,0.0,0.0,0.0,0.0,0.0,0.0,0.0,0.0,0.0,0.0,0.0,0.0,0.0,0.0,0.0,0.0,0.0,0.0,0.0,0.0,0.0,0.0,0.0,0.0,0.0,0.0,0.0,0.0,0.0,0.0,0.0,0.0,0.0,0.0,0.0,0.0,0.0,0.0,0.0,0.0,0.0,0.0,0.0,0.0,0.0,0.0,0.0,0.0,0.0,0.0,0.0,0.0,0.0,0.0,0.0,0.0,0.0,0.0,0.0,0.0,0.0,0.0,0.0,0.0,0.0,0.0,0.0,0.0,0.0,0.0,0.0,0.0,0.0,0.0,0.0,0.0,0.0,0.0,0.0,0.0,0.0,0.0,0.0,2.0537,1.9904,1.9555,1.9982,1.8717,1.7985,1.8382,1.7747,1.7334,0.0,0.0,0.0,0.0,0.0,0.0,0.0,0.0,0.0,0.0,0.0,0.0,0.0,0.0,0.0,0.0,0.0,0.0,0.0,0.0,0.0,0.0,0.0,0.0,0.0,0.0,0.0,0.0,0.0,0.0,0.0,0.0,0.0,0.0,0.0,0.0,0.0,0.0,0.0,0.0,0.0,0.0,0.0,0.0,0.0,0.0,0.0,0.0,0.0,0.0,0.0,0.0,0.0,0.0,0.0,0.0,0.0,0.0,0.0,0.0,0.0,0.0,0.0,0.0,0.0,0.0,0.0,0.0,0.0,0.0,0.0,0.0,0.0,0.0,0.0,0.0,0.0,0.0,0.0,0.0,0.0,0.0,0.0,0.0,0.0,0.0,0.0,0.0,0.0,0.0,0.0,0.0,0.0,0.0,0.0,0.0,0.0,0.0,0.0,0.0,0.0,0.0,0.0,2.0049,2.0197,2.0383,2.0821,2.0188,1.9944,2.0331,1.9906,1.9313,1.855,0.0,0.0,0.0,0.0,0.0,0.0,0.0,0.0,0.0,0.0,0.0,0.0,0.0,0.0,0.0,0.0,0.0,0.0,0.0,0.0,0.0,0.0,0.0,0.0,0.0,0.0,0.0,0.0,0.0,0.0,0.0,0.0,0.0,0.0,0.0,0.0,0.0,0.0,0.0,0.0,0.0,0.0,0.0,0.0,0.0,0.0,0.0,0.0,0.0,0.0,0.0,0.0,0.0,0.0,0.0,0.0,0.0,0.0,0.0,0.0,0.0,0.0,0.0,0.0,0.0,0.0,0.0,0.0,0.0,0.0,0.0,0.0,0.0,0.0,0.0,0.0,0.0,0.0,0.0,0.0,0.0,0.0,0.0,0.0,0.0,0.0,0.0,0.0,0.0,0.0,0.0,0.0,0.0,0.0,0.0,0.0,0.0,0.0,0.0,0.0,0.0,0.0,2.0552,2.1442,2.2278,2.2756,2.2155,2.2097,2.2946,2.2055,2.1248,2.0836,0.0,0.0,0.0,0.0,0.0,0.0,0.0,0.0,0.0,0.0,0.0,0.0,0.0,0.0,0.0,0.0,0.0,0.0,0.0,0.0,0.0,0.0,0.0,0.0,0.0,0.0,0.0,0.0,0.0,0.0,0.0,0.0,0.0,0.0,0.0,0.0,0.0,0.0,0.0,0.0,0.0,0.0,0.0,0.0,0.0,0.0,0.0,0.0,0.0,0.0,0.0,0.0,0.0,0.0,0.0,0.0,0.0,0.0,0.0,0.0,0.0,0.0,0.0,0.0,0.0,0.0,0.0,0.0,0.0,0.0,0.0,0.0,0.0,0.0,0.0,0.0,0.0,0.0,0.0,0.0,0.0,0.0,0.0,0.0,0.0,0.0,0.0,0.0,0.0,0.0,0.0,0.0,0.0,0.0,0.0,0.0,0.0,0.0,0.0,0.0,0.0,0.0,2.1739,2.3205,2.452,2.5115,2.4248,2.4244,2.5688,2.405,2.3133,2.3542,0.0,0.0,0.0,0.0,0.0,0.0,0.0,0.0,0.0,0.0,0.0,0.0,0.0,0.0,0.0,0.0,0.0,0.0,0.0,0.0,0.0,0.0,0.0,0.0,0.0,0.0,0.0,0.0,0.0,0.0,0.0,0.0,0.0,0.0,0.0,0.0,0.0,0.0,0.0,0.0,0.0,0.0,0.0,0.0,0.0,0.0,0.0,0.0,0.0,0.0,0.0,0.0,0.0,0.0,0.0,0.0,0.0,0.0,0.0,0.0,2.8671,2.6819,0.0,0.0,0.0,0.0,0.0,0.0,0.0,0.0,0.0,0.0,0.0,0.0,0.0,0.0,0.0,0.0,0.0,0.0,0.0,0.0,0.0,0.0,0.0,0.0,0.0,0.0,0.0,0.0,0.0,0.0,0.0,0.0,0.0,0.0,0.0,0.0,0.0,0.0,0.0,0.0,2.2446,2.3538,2.4482,2.4987,2.4926,2.5088,2.5728,2.5116,2.4519,2.4168,2.2981,0.0,0.0,0.0,0.0,0.0,0.0,0.0,0.0,0.0,0.0,0.0,0.0,0.0,0.0,0.0,0.0,0.0,0.0,0.0,0.0,0.0,0.0,0.0,0.0,0.0,0.0,0.0,0.0,0.0,0.0,0.0,0.0,0.0,0.0,0.0,0.0,0.0,0.0,0.0,0.0,0.0,0.0,0.0,0.0,0.0,0.0,0.0,0.0,0.0,0.0,0.0,0.0,0.0,0.0,0.0,0.0,0.0,0.0,0.0,3.1752,3.0332,0.0,0.0,0.0,0.0,0.0,0.0,0.0,0.0,0.0,0.0,0.0,0.0,0.0,0.0,0.0,0.0,0.0,0.0,0.0,0.0,0.0,0.0,0.0,0.0,0.0,0.0,0.0,0.0,0.0,0.0,0.0,0.0,0.0,0.0,0.0,0.0,0.0,0.0,0.0,0.0,2.3445,2.4813,2.593,2.6453,2.6095,2.6228,2.721,2.6115,2.5492,2.5741,2.419,0.0,0.0,0.0,0.0,0.0,0.0,0.0,0.0,0.0,0.0,0.0,0.0,0.0,0.0,0.0,0.0,0.0,0.0,0.0,0.0,0.0,0.0,0.0,0.0,0.0,0.0,0.0,0.0,0.0,0.0,0.0,0.0,0.0,0.0,0.0,0.0,0.0,0.0,0.0,0.0,0.0,0.0,0.0,0.0,0.0,0.0,0.0,0.0,0.0,0.0,0.0,0.0,0.0,3.4361,3.4517,3.4073,3.5009,3.4911,3.4073,3.4731,3.3951,3.2201,3.1607,0.0,0.0,0.0,0.0,0.0,0.0,0.0,0.0,0.0,0.0,0.0,0.0,0.0,0.0,0.0,0.0,0.0,0.0,0.0,0.0,0.0,0.0,3.065,3.0003,3.0598,3.0711,2.8653,0.0,0.0,0.0,0.0,0.0,0.0,0.0,0.0,0.0,0.0,0.0,2.4413,2.6074,2.7457,2.7908,2.7249,2.7331,2.8637,2.7102,2.6396,2.7245,2.5354,2.3708,0.0,0.0,0.0,0.0,0.0,0.0,0.0,0.0,0.0,0.0,0.0,0.0,0.0,0.0,0.0,0.0,0.0,0.0,0.0,0.0,0.0,0.0,0.0,0.0,0.0,0.0,0.0,0.0,0.0,0.0,0.0,0.0,3.3965,3.3522,0.0,0.0,0.0,0.0,0.0,0.0,0.0,0.0,0.0,0.0,0.0,0.0,0.0,3.2807,3.289,3.4804,3.5769,3.5783,3.7737,3.8638,3.8549,3.869,3.8676,3.8578,3.9231,0.0,3.357,3.3951,0.0,0.0,0.0,0.0,0.0,0.0,0.0,0.0,0.0,0.0,0.0,0.0,0.0,0.0,0.0,0.0,0.0,0.0,0.0,0.0,0.0,0.0,3.3741,3.3088,3.2598,3.2212,3.1871,2.9979,2.8221,2.7933,2.7085,2.6062,0.0,0.0,0.0,0.0,0.0,0.0,2.4746,2.6233,2.7341,2.7381,2.7712,2.7975,2.821,2.7925,2.7638,2.7306,2.6546,2.5836,2.5153,2.3661,0.0,0.0,0.0,0.0,0.0,0.0,0.0,0.0,0.0,0.0,0.0,0.0,0.0,0.0,0.0,0.0,0.0,0.0,0.0,0.0,0.0,0.0,0.0,0.0,0.0,0.0,0.0,0.0,0.0,3.5231,3.5961,3.5323,3.506,3.4347,0.0,0.0,0.0,0.0,0.0,0.0,0.0,0.0,0.0,3.6843,3.6873,3.7238,3.8013,3.8971,3.9207,3.8736,3.9671,3.9864,3.9388,3.9388,3.9388,3.9439,3.9723,3.8722,3.6867,3.5898,3.4982,3.4001,0.0,0.0,0.0,0.0,3.109,3.1157,3.1622,3.1786,3.1829,3.2146,0.0,0.0,0.0,0.0,0.0,0.0,0.0,3.1838,3.2717,3.3431,3.3769,3.3095,3.3006,3.3066,3.3066,3.1795,3.0419,2.9624,2.9035,2.8061,2.62,2.5644,0.0,0.0,0.0,2.6281,2.6663,2.7628,2.8272,2.8272,2.8464,2.8518,2.8324,2.8044,2.7889,2.7976,2.7052,2.646,2.6356,2.5153,2.4254,0.0,0.0,0.0,0.0,0.0,0.0,0.0,0.0,0.0,0.0,0.0,0.0,0.0,0.0,0.0,0.0,0.0,0.0,0.0,0.0,0.0,0.0,0.0,0.0,0.0,0.0,0.0,0.0,3.7099,3.819,3.7174,3.7312,3.688,0.0,0.0,0.0,0.0,0.0,0.0,3.8776,3.8779,3.9282,4.0458,4.0521,4.0972,4.1981,4.1997,4.1658,4.1046,4.1046,4.0706,4.006,4.006,4.006,4.006,4.006,4.006,3.9899,3.7671,3.6374,3.5569,3.3759,3.3277,3.3496,3.2803,3.2562,3.2663,3.3322,3.3648,3.3812,3.3794,3.3822,3.3634,3.2535,0.0,0.0,0.0,0.0,3.2572,3.353,3.3785,3.3663,3.3175,3.3297,3.3617,3.3983,3.3257,3.2271,3.138,3.0791,2.9725,2.7539,2.703,0.0,2.6661,2.71,2.7624,2.8141,2.8661,2.9002,2.9002,2.9002,2.8912,2.8659,2.8259,2.8192,2.8605,2.7706,2.732,2.767,2.6765,2.6041,2.555,0.0,0.0,0.0,0.0,0.0,0.0,0.0,0.0,0.0,0.0,0.0,0.0,0.0,0.0,0.0,0.0,0.0,0.0,0.0,0.0,0.0,0.0,0.0,0.0,0.0,0.0,0.0,0.0,0.0,3.8846,4.1634,0.0,0.0,0.0,0.0,3.895,3.8969,3.9521,4.0871,4.0875,4.1149,4.1869,4.1885,4.1917,4.1997,4.1997,4.1965,4.1933,4.1933,4.1901,4.1869,4.1869,4.1869,4.1869,4.1869,4.1869,4.1676,3.9268,3.7874,3.7216,3.6526,3.5914,3.5285,3.4616,3.4362,3.4377,3.4409,3.488,3.5473,3.5398,3.548,3.5561,3.5502,3.5466,0.0,0.0,3.4983,3.5322,3.4728,3.4553,3.4553,3.4505,3.4011,3.3958,3.5297,3.4019,3.2742,3.3231,3.1795,3.0211,2.9378,0.0,2.8054,2.7375,2.7769,2.8155,2.8196,2.8661,2.9002,2.9002,2.9002,2.8985,2.898,2.8953,2.8953,2.898,2.8921,2.9187,2.9822,2.8699,2.8312,2.8862,2.6631,0.0,0.0,0.0,0.0,0.0,0.0,0.0,0.0,0.0,0.0,0.0,0.0,0.0,0.0,0.0,0.0,0.0,0.0,0.0,0.0,0.0,0.0,0.0,0.0,0.0,0.0,0.0,0.0,4.0959,4.2444,0.0,4.0293,4.0694,4.0967,4.0566,4.1839,4.2803,4.3336,4.334,4.3427,4.3663,4.3663,4.3663,4.3663,4.3663,4.338,4.2847,4.2847,4.2552,4.1997,4.1997,4.1997,4.1965,4.1502,4.131,4.1167,3.9408,3.906,3.9529,3.8404,3.8091,3.8185,3.7512,3.7262,3.72,3.6776,3.6798,3.6909,3.6437,3.6292,3.6178,3.5267,3.5006,3.4985,3.4702,3.483,3.4931,3.4675,3.4611,3.45,3.4062,3.3774,3.3854,3.4787,3.4059,3.344,3.4069,3.2545,3.093,3.0242,2.9904,2.9672,2.9403,2.9536,2.9857,3.028,3.0498,3.0614,3.0614,3.0614,3.0389,2.9889,2.9858,2.9858,2.9858,2.9317,2.9352,3.0171,2.925,2.8881,2.9217,2.8366,2.7058,0.0,0.0,0.0,0.0,0.0,0.0,0.0,0.0,0.0,0.0,0.0,0.0,0.0,0.0,0.0,0.0,0.0,0.0,0.0,0.0,0.0,0.0,0.0,0.0,0.0,4.1709,4.333,4.26,4.4055,4.4375,4.252,4.3032,4.3377,4.3184,4.4041,4.4716,4.4942,4.475,4.4615,4.4615,4.4615,4.4615,4.4615,4.4615,4.4327,4.3756,4.3756,4.3426,4.2862,4.2862,4.2731,4.247,4.1966,4.1594,4.1284,4.0094,4.016,4.0834,3.9151,3.8738,3.906,3.8626,3.8451,3.843,3.8253,3.8016,3.7737,3.7243,3.7095,3.6867,3.5687,3.5533,3.5664,3.5393,3.5353,3.5263,3.5018,3.4928,3.4839,3.439,3.4276,3.4472,3.5207,3.4607,3.4147,3.4833,3.3469,3.2007,3.1316,3.1213,3.1129,3.0879,3.0851,3.0987,3.1451,3.1511,3.1511,3.1511,3.1511,3.1278,3.0748,3.0703,3.0703,3.0703,2.9962,2.9873,3.0673,2.9918,2.9687,3.0046,2.9623,2.8499,2.6663,0.0,0.0,0.0,0.0,0.0,0.0,0.0,0.0,0.0,0.0,0.0,0.0,0.0,0.0,0.0,0.0,0.0,0.0,0.0,0.0,0.0,0.0,0.0,4.0139,4.3884,4.5899,4.3786,4.6736,4.8409,4.6955,4.6143,4.6007,4.6701,4.5427,4.4891,4.5635,4.4976,4.4615,4.4615,4.4615,4.4615,4.4615,4.4615,4.4615,4.4615,4.4581,4.4564,4.4564,4.4547,4.4096,4.3358,4.3325,4.2929,4.2202,4.1474,4.117,4.0955,3.8735,3.7863,3.7863,3.7863,3.7863,3.7978,3.869,3.8463,3.7876,3.7891,3.7905,3.777,3.6975,3.7263,3.7686,3.6965,3.6761,3.6592,3.5785,3.56,3.56,3.56,3.56,3.5802,3.6586,3.5639,3.4838,3.5564,3.4599,3.3443,3.2734,3.2641,3.2382,3.164,3.1524,0.0,3.1511,3.1511,3.1511,3.1511,3.1511,3.1511,3.1511,3.1511,3.1496,3.1466,3.0866,3.0806,3.1451,3.0866,3.0836,3.1496,3.0253,2.9292,2.8622,0.0,0.0,0.0,0.0,0.0,0.0,0.0,0.0,0.0,0.0,0.0,0.0,0.0,0.0,0.0,0.0,0.0,0.0,0.0,0.0,0.0,4.1699,4.3772,4.2624,4.4484,4.6135,4.6606,4.7578,4.8054,4.7648,4.6464,4.5788,4.5991,4.5111,4.4699,4.4874,4.4716,4.4615,4.4615,4.4615,4.4615,4.4615,4.4615,4.4615,4.4598,4.4012,4.3741,4.3724,4.3166,4.2811,4.2574,4.2049,4.1694,4.1457,4.0696,4.0417,4.0333,3.9694,3.948,3.948,3.948,3.948,3.9506,3.9705,3.9648,3.9278,3.8239,3.7905,3.7652,3.6332,3.6056,3.6174,3.5994,3.5943,3.5893,3.565,3.56,3.56,3.56,3.56,3.565,3.5893,3.5621,3.5389,3.5585,3.5295,3.4681,3.3521,3.3339,3.3077,3.2394,3.2299,3.2092,3.1553,3.1511,3.1511,3.1511,3.1511,3.1511,3.1511,3.1511,3.1286,3.0821,3.0612,3.0582,3.0776,3.0612,3.0836,3.1496,3.0253,2.9517,0.0,0.0,0.0,0.0,0.0,0.0,0.0,0.0,0.0,0.0,0.0,0.0,0.0,0.0,0.0,0.0,0.0,0.0,0.0,0.0,0.0,0.0,4.4074,4.5963,4.5364,4.6316,4.7293,4.7821,4.8159,4.8227,4.7922,4.6853,4.6024,4.572,4.501,4.4615,4.4615,4.4615,4.4615,4.4615,4.4615,4.4615,4.4615,4.4265,4.4096,4.4079,4.3318,4.2946,4.2929,4.2489,4.2117,4.1813,4.139,4.1018,4.0696,4.0282,4.0096,4.0096,0.0,0.0,0.0,0.0,4.0096,4.0096,4.0096,3.991,3.9453,3.8278,3.7702,3.7212,3.5955,3.56,3.56,3.56,3.56,3.56,3.56,3.56,3.56,3.56,3.56,3.56,3.56,3.56,3.56,3.56,3.56,0.0,3.4568,3.4186,3.3786,3.3119,3.3013,3.2853,3.2434,3.2379,3.2379,3.2379,3.2379,3.2284,3.1979,3.1951,0.0,0.0,0.0,3.0507,3.0507,3.0507,0.0,0.0,0.0,0.0,0.0,0.0,0.0,0.0,2.8169,2.8259,0.0,0.0,0.0,0.0,0.0,0.0,0.0,0.0,0.0,0.0,0.0,0.0,0.0,0.0,0.0,0.0,4.5838,4.7141,4.7804,4.8477,4.8663,4.8075,4.8545,4.8629,4.7939,4.7158,4.6397,4.5754,4.501,4.4615,4.4615,4.4615,0.0,0.0,0.0,4.4564,4.4479,4.3775,4.3341,4.3257,4.2523,4.2168,4.2168,4.2083,4.1677,4.1085,4.1085,4.0696,4.0096,4.0096,4.0096,4.0096,4.0096,4.0096,4.0096,4.0096,4.0096,4.0096,4.0096,0.0,0.0,3.8176,3.7449,3.6761,3.5853,3.56,3.56,3.56,3.56,3.56,3.56,3.56,3.56,3.56,3.56,3.56,3.56,3.56,3.56,3.56,3.56,3.56,3.56,3.5098,3.4496,3.3811,3.371,3.3684,3.3608,3.3582,3.3582,3.3582,0.0,0.0,3.2761,3.2722,3.2391,3.1662,3.1074,3.0727,3.0727,3.0734,3.1009,3.1596,3.1524,3.1511,3.1511,3.1511,3.1254,3.0679,2.8794,2.8929,0.0,0.0,0.0,0.0,0.0,0.0,0.0,0.0,0.0,0.0,0.0,0.0,0.0,0.0,0.0,4.369,4.5894,4.772,4.7872,4.8007,4.8261,4.8731,4.8409,4.8041,4.7906,4.6701,4.5855,4.572,4.501,4.4615,4.4615,4.4615,4.4615,4.4615,4.4615,4.4282,4.3656,4.3477,4.3115,4.2489,4.1762,0.0,4.139,4.0807,4.0451,4.0316,4.0316,4.0231,4.0096,4.0096,4.0096,4.0096,4.0096,4.0096,4.0096,4.0096,4.0096,4.0096,4.0096,4.0011,3.9673,3.8328,3.7804,3.7432,3.6022,3.56,0.0,3.56,3.56,3.56,3.56,3.56,3.56,3.56,3.56,3.56,3.56,3.56,3.56,3.56,3.56,3.56,3.56,3.5492,3.5184,3.452,3.4406,3.4211,3.3659,3.3582,3.3582,3.3582,3.3582,3.3547,3.3417,3.3417,3.3111,3.2428,3.2269,3.2174,3.2174,3.2182,3.2244,3.2382,3.1796,3.1511,3.1511,3.1511,3.1721,3.2151,3.0633,3.0788,0.0,0.0,0.0,0.0,0.0,0.0,0.0,0.0,0.0,0.0,0.0,4.1863,4.2286,0.0,4.5263,4.5618,4.7242,4.8342,4.7939,4.7889,4.8054,4.8426,4.7817,4.7208,4.6836,4.6143,4.5551,4.5179,4.4818,4.4615,4.4615,4.4615,4.4615,4.4615,4.4198,4.3809,4.3392,4.2665,4.2117,4.1728,4.1001,4.0646,4.0629,4.0282,4.0096,4.0096,4.0096,4.0096,4.0096,4.0096,4.0096,4.0096,4.0096,4.0096,4.0096,4.0096,4.0096,4.0096,4.0096,3.9859,3.9385,3.8261,3.7652,3.7127,3.5955,3.56,3.56,3.56,3.56,3.56,3.56,3.56,3.56,3.56,3.56,3.56,3.56,3.56,3.56,3.56,3.56,3.56,3.56,3.56,3.5492,3.5144,3.5098,3.4981,3.464,3.4609,3.4609,3.4609,3.4609,3.4471,3.4137,3.3786,3.3463,3.3111,3.3095,3.3095,3.3095,3.3113,3.3093,3.3093,3.2394,3.2216,3.2555,3.2201,3.2422,3.3077,3.2387,3.2627,0.0,0.0,0.0,0.0,0.0,0.0,0.0,4.1542,4.1863,4.1863,4.2557,4.3453,4.4429,4.5196,4.6143,4.7479,4.8189,4.8426,4.7939,4.7886,4.7823,4.767,4.7109,4.6544,4.592,4.5857,4.5582,4.4995,4.4944,4.4906,4.4786,4.4879,4.4773,4.4378,4.3861,4.3454,4.32,4.2016,4.1407,4.1407,4.0823,4.0451,4.0316,4.0316,4.0248,4.0096,4.0096,4.0096,4.0096,4.0096,4.0096,4.0096,4.0096,4.0096,4.0096,4.0096,4.0096,4.0096,4.0096,3.9723,3.9089,3.8345,3.7702,3.7083,3.6299,3.6039,3.6005,3.5853,3.5819,3.5785,3.5633,3.56,3.56,3.56,3.56,3.56,3.56,3.56,3.56,3.56,3.56,3.56,3.56,3.56,3.56,3.56,3.56,3.56,3.56,3.56,3.56,3.56,3.56,3.5385,3.483,3.4284,3.4003,3.4003,3.4003,3.4003,3.4003,3.3862,3.3786,3.3786,3.3145,3.3066,3.3582,3.3066,3.3145,3.3786,3.3931,3.4407,3.905,3.8756,3.9387,4.1424,4.1491,4.1779,0.0,4.4621,4.4225,4.4225,4.5314,4.594,4.4818,4.5196,4.5974,4.6786,4.6989,4.7242,4.7804,4.7814,4.7469,4.6832,4.6677,4.6591,4.6504,4.639,4.6297,4.6192,4.6192,4.5965,4.5433,4.5915,4.5393,4.3582,4.4027,4.3675,4.2448,4.2252,4.2168,4.2168,4.2083,4.1711,4.1085,4.1085,4.0713,4.0096,4.0096,4.0096,4.0096,4.0096,4.0096,4.0096,4.0096,4.0096,4.0096,4.0096,4.0096,4.0096,4.0096,4.0045,3.9859,3.9106,3.8819,3.8599,3.7872,3.7652,3.7516,3.684,3.6677,3.6485,3.5785,3.56,3.56,3.56,3.56,3.56,3.56,3.56,3.56,3.56,3.56,3.56,3.56,3.56,3.56,3.56,3.56,3.56,3.56,3.56,3.56,3.56,3.56,3.5577,3.5492,3.5424,3.5362,3.5362,3.5362,3.5362,3.5362,3.4783,3.4479,3.4479,3.3836,3.3547,3.3582,3.3505,3.3836,3.4496,3.5153,3.5868,4.0836,4.1238,4.1897,4.3284,4.4045,4.479,4.6041,4.643,4.6515,4.6515,4.6667,4.6599,4.5974,4.5788,4.5805,4.6109,4.6887,4.7259,4.6718,4.6946,4.6889,4.6065,4.6279,4.647,4.647,4.6416,4.6407,4.6407,4.6407,4.6288,4.6039,4.6264,4.5646,4.4018,4.3852,4.3296,4.2313,4.1863,4.188,4.2286,4.2286,4.2134,4.183,4.1407,4.1035,4.0747,4.1196,4.1399,4.1365,4.0916,4.073,4.0696,4.0282,4.0096,4.0096,4.0096,4.0096,4.0096,4.0096,3.9825,3.9351,3.8599,3.8058,3.7567,3.6806,3.6546,3.6603,3.6761,3.6795,3.6829,3.6924,3.662,3.6299,3.6299,3.5943,3.56,3.56,3.56,3.56,3.56,3.56,3.56,3.56,3.56,3.56,3.56,3.56,3.56,3.56,3.56,3.56,3.56,3.56,3.56,3.56,3.56,3.56,3.56,3.56,3.56,3.56,3.5339,3.5184,3.5184,3.4503,3.4358,3.4752,3.4358,3.4544,3.5184,3.5502,3.6078,4.1984,4.2997,4.3978,4.4942,4.6143,4.7158,4.7361,4.7817,4.8156,4.7922,4.7479,4.6972,4.6566,4.6058,4.5703,4.5703,4.6616,4.6938,4.5855,4.6299,4.649,4.583,4.6288,4.6733,4.6914,4.6914,4.6914,4.6914,4.6914,4.6847,4.6687,4.6628,4.5827,4.4148,4.3914,4.3419,4.2568,4.2407,4.2612,4.3199,4.3199,4.2991,4.2574,4.1847,4.1508,4.1525,4.2066,4.2286,4.2236,4.1508,4.1204,4.1136,4.04,4.0096,4.0079,3.9876,3.9808,3.9808,3.9808,3.9292,3.8616,3.8075,3.7533,3.6975,3.6394,3.6225,3.6293,3.6694,3.6948,3.7127,3.7246,3.7026,3.6745,3.6502,3.6028,3.56,3.56,3.56,3.56,3.56,3.56,3.56,3.56,3.56,3.56,3.56,3.56,3.56,3.56,3.56,3.56,3.56,3.56,3.56,3.56,3.56,3.56,3.56,3.56,3.56,3.56,3.56,3.56,3.56,3.5121,3.5098,3.56,3.5098,3.5121,3.56,3.5842,3.6231,4.2286,4.343,4.4919,4.6363,4.731,4.8041,4.8781,4.8951,4.8765,4.8041,4.7872,4.7415,4.6007,4.572,4.5703,4.5703,4.5737,4.5754,4.572,4.622,4.6552,4.64,4.6955,4.7593,4.8191,4.823,4.823,4.823,4.823,4.7977,4.7406,4.7188,4.5928,4.3416,4.4452,4.4478,4.3291,4.4536,4.5251,4.5416,4.5416,4.4688,4.3325,4.2591,4.2252,4.2252,4.2286,4.2286,4.2236,4.1508,4.1204,4.1136,4.04,4.0096,4.0011,3.9317,3.9022,3.9022,3.9022,3.8548,3.7939,3.7922,3.7889,3.7872,3.7838,3.7838,3.7702,3.6998,3.7313,3.7533,3.6039,3.6231,3.6609,3.5802,3.5616,3.56,3.56,3.56,3.56,3.56,3.56,3.56,3.56,3.56,3.56,3.56,3.56,3.56,3.56,3.56,3.56,3.56,3.56,3.56,3.56,3.56,3.56,3.56,3.56,3.56,3.56,3.56,3.56,3.56,3.5577,3.5577,3.56,3.5577,3.5577,3.5616,3.64,3.6778,4.3565,4.4936,4.6295,4.7293,4.8088,4.8697,4.8951,4.9001,4.8798,4.8041,4.7111,4.6143,4.5145,4.4959,4.479,4.4265,4.5843,4.6809,4.5716,4.6571,4.7247,4.7075,4.7259,4.7635,4.823,4.8306,4.8306,4.8306,4.8306,4.7817,4.6729,4.6955,4.5933,4.3381,4.4478,4.4771,4.4044,4.4882,4.5582,4.6094,4.5681,4.4766,4.3392,4.369,4.3521,4.3064,4.3589,4.3521,4.298,4.2236,4.1644,4.1085,3.9851,3.9385,3.9276,3.8531,3.7956,3.7625,3.8091,3.7787,3.7161,3.7161,3.6806,3.636,3.636,3.636,3.6411,3.6728,3.6981,3.7161,3.7144,3.6958,3.6745,3.6451,3.5994,3.56,3.56,3.56,3.56,3.56,3.56,3.56,3.56,3.56,3.56,3.56,3.56,3.56,3.56,3.56,3.56,3.56,3.56,3.56,3.56,3.56,3.56,3.56,3.56,3.56,3.56,3.56,3.56,3.56,3.56,3.56,3.56,3.56,3.56,3.56,3.5893,3.6011,4.4987,4.6261,4.7378,4.8122,4.8663,4.9001,4.9001,4.8798,4.8477,4.799,4.6735,4.5466,4.475,4.4378,4.3995,4.3477,4.528,4.6623,4.6394,4.6914,4.7465,4.7903,4.7402,4.7281,4.7917,4.7525,4.732,4.7576,4.777,4.7191,4.5626,4.6059,4.5503,4.3681,4.4832,4.5355,4.507,4.5931,4.6502,4.6733,4.6136,4.5234,4.4156,4.4421,4.4106,4.3409,4.3656,4.347,4.2963,4.2202,4.1627,4.1085,3.9868,3.9225,3.8903,3.8176,3.7432,3.688,3.733,3.7009,3.6366,3.6366,3.6028,3.56,3.56,3.56,3.5701,3.6231,3.6592,3.6846,3.7043,3.6941,3.6728,3.6434,3.5994,3.56,3.56,3.56,3.56,3.56,3.56,3.56,3.56,3.56,3.56,3.56,3.56,3.56,3.56,3.56,3.56,3.56,3.56,3.56,3.56,3.56,3.56,3.56,3.5346,3.5329,3.5583,3.5346,3.5329,3.5583,3.5329,3.5329,3.56,3.5329,3.5329,3.56,3.56,3.56,4.643,4.7394,4.8108,4.8832,4.9001,4.8984,4.8951,4.8409,4.7872,4.7787,4.6616,4.5365,4.4682,4.3944,4.3443,4.3443,4.4248,4.5574,4.7617,4.7254,4.7282,4.8668,4.7417,4.6687,4.7299,4.611,4.5535,4.6095,4.6658,4.6118,4.4201,4.4635,4.4674,4.4112,4.5462,4.6227,4.6305,4.7632,4.7977,4.7342,4.6674,4.6017,4.5373,4.4672,4.3984,4.3291,4.2642,4.2303,4.2185,4.1491,4.1187,4.1068,4.0333,3.9622,3.8903,3.8176,3.7432,3.6795,3.6795,3.6265,3.56,3.56,3.56,3.56,3.56,3.56,3.56,3.56,3.6146,3.6575,3.5785,3.6163,3.6558,3.5769,3.56,3.56,3.56,3.56,3.56,3.56,3.56,3.56,3.56,3.56,3.56,3.56,3.56,3.56,3.56,3.56,3.56,3.56,3.56,3.56,3.56,3.56,3.5583,3.5549,3.4895,3.481,3.5515,3.4844,3.4793,3.5532,3.4861,3.4844,3.5532,3.4878,3.4912,3.56,3.56,3.56,4.7073,4.8173,4.8765,4.8951,4.9001,4.8866,4.8325,4.8024,4.7584,4.6498,4.506,4.3944,4.3758,4.4028,4.4282,4.4282,4.6752,4.8477,4.7845,4.8461,4.8719,4.8017,4.7472,4.7021,4.6687,4.582,4.4963,4.4132,4.4609,4.4294,4.2783,4.3721,4.3862,4.2817,4.5026,4.627,4.6361,4.7647,4.7738,4.6664,4.5921,4.4991,4.3929,4.3741,4.3243,4.2591,4.2963,4.2506,4.1474,4.1288,4.0882,4.0316,3.9563,3.9157,3.8903,3.8176,3.7432,3.6795,3.6795,3.6265,3.56,3.56,3.56,3.56,3.56,3.56,3.56,3.56,3.5735,3.5853,3.565,3.5752,3.5836,3.565,3.56,3.56,3.56,3.56,3.56,3.56,3.56,3.56,3.56,3.56,3.56,3.56,3.56,3.56,3.56,3.56,3.56,3.56,3.56,3.56,3.56,3.56,3.5363,3.481,3.459,3.4573,3.4776,3.4066,3.4032,3.4776,3.459,3.459,3.4776,3.5148,3.5414,3.56,3.56,3.56,4.797,4.8697,4.9001,4.9001,4.8765,4.8325,4.7597,4.6921,4.6126,4.4942,4.3504,4.254,4.2861,4.3284,4.369,4.4012,4.665,4.8664,4.8743,4.9389,4.9806,4.9662,4.8624,4.7671,4.7033,4.5639,4.4599,4.4202,4.3852,4.2966,4.1371,4.2497,4.2938,4.2295,4.4218,4.5465,4.5829,4.6845,4.6723,4.5427,4.5344,4.4633,4.3356,4.3356,4.2781,4.183,4.2269,4.1796,4.0713,4.0713,4.046,4.0062,3.9656,3.9276,3.8903,3.8176,3.7432,3.6745,3.64,3.5994,3.56,3.56,3.56,3.56,3.56,3.56,3.56,3.56,3.56,3.56,3.56,3.56,3.56,3.56,3.56,3.56,3.56,3.56,3.56,3.56,3.56,3.56,3.56,3.56,3.56,3.56,3.56,3.56,3.56,3.56,3.56,3.56,3.56,3.56,3.56,3.56,3.5414,3.5013,3.4387,3.4303,3.4962,3.3964,3.3914,3.4962,3.4658,3.4658,3.4979,3.5081,3.5278,3.56,3.56,3.56,4.8798,4.9001,4.9001,4.9001,4.846,4.7699,4.6836,4.5585,4.4333,4.3453,4.2168,4.1457,4.2286,4.2439,4.2743,4.3707,4.5669,4.7797,4.9827,4.9983,5.0426,5.182,4.999,4.837,4.7748,4.571,4.4643,4.5255,4.3895,4.2328,4.0734,4.1587,4.2175,4.2343,4.343,4.4307,4.498,4.5603,4.5308,4.4084,4.4627,4.4231,4.3029,4.3029,4.2285,4.1068,4.117,4.0781,4.0096,4.0096,4.0096,4.0096,4.0096,3.9723,3.9056,3.843,3.7652,3.6863,3.6163,3.5769,3.56,3.56,3.56,3.56,3.56,3.56,3.56,3.56,3.56,3.56,3.56,3.56,3.56,3.56,3.56,3.56,3.56,3.56,3.56,3.56,3.56,3.56,3.56,3.56,3.56,3.56,3.56,3.56,3.56,3.56,3.56,3.56,3.56,3.56,3.56,3.56,3.5549,3.5447,3.4247,3.4134,3.5397,3.4112,3.4066,3.543,3.4827,3.481,3.5447,3.4912,3.4979,3.56,3.56,3.56,4.8798,4.9001,4.9001,4.9001,4.846,4.7534,4.621,4.5213,4.4209,4.2777,4.1796,4.161,4.298,4.3189,4.3876,4.5872,4.7564,4.8978,4.9963,5.0032,5.0094,5.0359,4.9414,4.8471,4.7777,4.6708,4.5857,4.5344,4.4032,4.3325,4.3474,4.2718,4.2535,4.31,4.3325,4.3734,4.4351,4.4476,4.418,4.3443,4.2979,4.2324,4.1554,4.1554,4.1095,4.0333,4.0933,4.0781,4.0096,4.0096,4.0096,4.0096,4.0096,4.0028,3.9893,3.9774,3.8853,3.7702,3.7567,3.6664,3.56,3.56,3.56,3.56,3.56,3.56,3.56,3.56,3.56,3.56,3.56,3.56,3.56,3.56,3.56,3.56,3.56,3.56,3.56,3.56,3.56,3.56,3.56,3.56,3.56,3.56,3.56,3.56,3.56,3.56,3.56,3.56,3.56,3.56,3.56,3.56,3.5329,3.4726,3.4438,3.4421,3.4675,3.3863,3.3812,3.4675,3.4556,3.4556,3.4692,3.5182,3.5464,3.56,3.56,3.56,4.89,4.9001,4.9001,4.9001,4.8156,4.6938,4.5449,4.4215,4.299,4.1484,4.0865,4.095,4.2066,4.2574,4.32,4.4265,4.572,4.709,4.8206,4.8323,4.8889,5.0437,4.9869,4.8894,4.7846,4.7281,4.6545,4.5488,4.4421,4.3805,4.3728,4.2457,4.1844,4.2046,4.2053,4.2201,4.2467,4.2905,4.2595,4.1635,4.1669,4.1298,4.0629,4.1018,4.0798,4.0146,4.0882,4.0781,4.0096,4.0096,4.0096,4.0096,4.0096,4.0096,4.0045,3.9673,3.9073,3.8413,3.8041,3.7161,3.6214,3.6214,3.5943,3.56,3.56,3.56,3.56,3.56,3.56,3.56,3.56,3.56,3.56,3.56,3.56,3.56,3.56,3.56,3.56,3.56,3.56,3.56,3.56,3.56,3.56,3.56,3.56,3.56,3.56,3.56,3.56,3.56,3.56,3.56,3.56,3.56,3.5447,3.5098,3.4709,3.4675,3.5064,3.4353,3.432,3.5064,3.5081,3.5081,3.5081,3.543,3.56,3.56,3.56,3.56,4.8968,4.9001,4.9001,4.9001,4.7885,4.6397,4.4953,4.343,4.1863,4.04,4.0096,4.0333,4.1068,4.1677,4.2168,4.2472,4.369,4.5173,4.6802,4.6976,4.8007,5.0853,5.0381,4.9344,4.8129,4.782,4.713,4.5775,4.4982,4.4128,4.312,4.2176,4.1374,4.0744,4.0726,4.0726,4.0726,4.1364,4.1155,4.0113,4.0679,4.0646,4.013,4.0696,4.0646,4.013,4.0696,4.0629,4.0096,4.0096,4.0096,4.0096,4.0096,4.0096,4.0028,3.9445,3.9123,3.8886,3.8159,3.7415,3.6778,3.6609,3.6129,3.56,3.56,3.56,3.56,3.56,3.56,3.56,3.56,3.56,3.56,3.56,3.56,3.56,3.56,3.56,3.56,3.56,3.56,3.56,3.56,3.56,3.56,3.56,3.56,3.56,3.56,3.56,3.56,3.56,3.56,3.56,3.56,3.56,3.56,3.56,3.5064,3.5013,3.5566,3.5047,3.5013,3.5583,3.56,3.56,3.56,3.56,3.56,3.56,3.56,3.56,4.8832,4.9001,4.9001,4.9001,4.7885,4.6397,4.4953,4.343,4.1863,4.04,4.0096,4.0333,4.1068,4.1271,4.1745,4.3071,4.4028,4.5331,4.7513,4.781,4.8647,5.0933,5.0465,4.9639,4.8784,4.8692,4.8019,4.6442,4.5738,4.4501,4.2487,4.2841,4.2228,4.023,4.0154,4.0154,4.0154,4.0239,4.0214,4.0096,4.018,4.018,4.0096,4.018,4.0163,4.0096,4.018,4.0163,4.0096,4.0096,4.0096,4.0096,4.0096,4.0096,4.0096,4.0028,3.9588,3.8886,3.8159,3.7415,3.6694,3.596,3.565,3.56,3.56,3.56,3.56,3.56,3.56,3.56,3.56,3.56,3.56,3.56,3.56,3.56,3.56,3.56,3.56,3.56,3.56,3.56,3.56,3.56,3.56,3.56,3.56,3.56,3.56,3.56,3.56,3.56,3.56,3.56,3.56,3.56,3.56,3.56,3.5532,3.5532,3.56,3.5532,3.5532,3.56,3.56,3.56,3.56,3.56,3.56,3.56,3.56,3.56,4.854,4.9001,4.9001,4.9001,4.7885,4.6397,4.4953,4.343,4.1863,4.04,4.0096,4.0197,4.0485,4.0527,4.0713,4.1305,4.1687,4.2642,4.4863,4.4823,4.5682,4.8831,4.8517,4.7892,4.7624,4.7561,4.6908,4.5432,4.5089,4.4187,4.2398,4.2542,4.1887,4.0146,4.0096,4.0096,4.0096,4.0096,4.0096,4.0096,4.0096,4.0096,4.0096,4.0096,4.0096,4.0096,4.0096,4.0096,4.0096,4.0096,4.0096,4.0096,4.0096,4.0096,4.0045,3.9605,3.9537,3.9503,3.8311,3.7719,3.733,3.6569,3.5994,3.56,3.56,3.56,3.56,3.56,3.56,3.56,3.56,3.56,3.56,3.56,3.56,3.56,3.56,3.56,3.56,3.56,3.56,3.56,3.56,3.56,3.56,3.56,3.56,3.56,3.56,3.56,3.56,3.56,3.56,3.56,3.56,3.56,3.56,3.56,3.56,3.56,3.56,3.56,3.56,3.56,3.56,3.56,3.56,3.56,3.56,3.56,3.56,3.56,4.8074,4.8832,4.9001,4.9001,4.7733,4.6143,4.4902,4.3244,4.161,4.0367,4.0096,4.0096,4.0096,4.0096,4.0096,4.0096,4.0468,4.1271,4.2861,4.3014,4.3944,4.6616,4.6623,4.6323,4.6167,4.612,4.5682,4.466,4.4395,4.3673,4.2354,4.2083,4.139,4.0146,4.0096,4.0096,4.0096,4.0096,4.0096,4.0096,4.0096,4.0096,4.0096,4.0096,4.0096,4.0096,4.0096,4.0096,4.0096,4.0096,4.0096,4.0096,4.0096,3.9977,3.9723,3.9174,3.9174,3.9283,3.8007,3.7567,3.7449,3.6688,3.6062,3.56,3.56,3.56,3.56,3.56,3.56,3.56,3.56,3.56,3.56,3.56,3.56,3.56,3.56,3.56,3.56,3.56,3.56,3.56,3.56,3.56,3.56,3.56,3.56,3.56,3.56,3.56,3.56,3.56,3.56,3.56,3.56,3.56,3.56,3.56,3.56,3.56,3.56,3.56,3.56,3.56,3.56,3.56,3.56,3.56,3.56,3.56,3.56,3.56,4.7285,4.846,4.9001,4.9001,4.7344,4.5517,4.4784,4.2828,4.1001,4.0265,4.0096,4.0096,4.0096,4.0096,4.0096,4.0096,4.1331,4.2286,4.2303,4.3633,4.4598,4.4632,4.5263,4.5415,4.4699,4.4615,4.4615,4.4615,4.3859,4.3098,4.2337,4.161,4.0865,4.013,4.0096,4.0096,4.0096,4.0096,4.0096,4.0096,4.0096,4.0096,4.0096,4.0096,4.0096,4.0096,4.0096,4.0096,4.0096,4.0096,4.0096,4.0096,4.0096,3.9656,3.9005,3.8988,3.8531,3.7821,3.7083,3.6812,3.6694,3.5853,3.56,3.56,3.56,3.56,3.56,3.56,3.56,3.56,3.56,3.56,3.56,3.56,3.56,3.56,3.56,3.56,3.56,3.56,3.56,3.56,3.56,3.56,3.56,3.56,3.56,3.56,3.56,3.56,3.56,3.56,3.56,3.56,3.56,3.56,3.56,3.56,3.56,3.56,3.56,3.56,3.56,3.56,3.56,3.56,3.56,3.56,3.56,3.56,3.56,3.56,4.4205,4.5404,4.5974,4.5974,4.5043,4.3944,4.3183,4.2083,4.0984,4.0265,4.0096,4.0096,4.0096,4.0096,4.0434,4.145,4.1559,4.1897,4.2912,4.3487,4.3978,4.4547,4.5246,4.5415,4.4682,4.4615,4.4615,4.4615,4.435,4.3656,4.2354,4.2066,4.1373,4.0146,4.0096,4.0096,4.0096,4.0096,4.0096,4.0096,4.0096,4.0096,4.0096,4.0096,4.0096,4.0096,4.0096,4.0096,4.0096,4.0096,4.0096,4.0045,3.9554,3.9191,3.887,3.7879,3.7669,3.7719,3.6434,3.6332,3.6677,3.5853,3.56,3.56,3.56,3.56,3.56,3.56,3.56,3.56,3.56,3.56,3.56,3.56,3.56,3.56,3.56,3.56,3.56,3.56,3.56,3.56,3.56,3.56,3.56,3.56,3.56,3.56,3.56,3.56,3.56,3.56,3.56,3.56,3.56,3.56,3.56,3.56,3.56,3.56,3.56,3.56,3.56,3.56,3.56,3.56,3.56,3.56,3.5893,3.6417,3.6417,3.6688,4.2295,4.3772,4.4615,4.4615,4.3775,4.2861,4.2388,4.1508,4.0646,4.0197,4.0096,4.0096,4.0096,4.0096,4.04,4.1331,4.1542,4.1745,4.21,4.2878,4.3606,4.4079,4.4316,4.4468,4.4598,4.4615,4.4615,4.4615,4.4316,4.3606,4.2354,4.2033,4.1322,4.0146,4.0096,4.0096,4.0096,4.0096,4.0096,4.0096,4.0096,4.0096,4.0096,4.0096,4.0096,4.0096,4.0096,4.0096,0.0,4.0096,3.9943,3.9656,3.9174,3.865,3.8065,3.7151,3.6891,3.6884,3.5921,3.5943,3.6265,3.5752,3.56,3.56,3.56,3.56,3.56,3.56,3.56,3.56,3.56,3.56,3.56,3.56,3.56,3.56,3.56,3.56,3.56,3.56,3.56,3.56,3.56,3.56,3.56,3.56,3.56,3.56,3.56,3.56,3.56,3.56,3.56,3.56,3.56,3.56,3.56,3.56,3.56,3.56,3.56,3.56,3.56,3.56,3.56,3.56,3.56,3.591,3.6315,3.6812,3.71,3.7449,0.0,4.3125,4.4293,4.4293,4.321,4.2134,4.2134,4.1094,0.0,4.0096,4.0096,4.0096,4.0096,4.0096,4.013,4.0248,4.1416,4.1813,4.0451,4.2066,4.3426,4.3544,4.2963,4.3064,4.4479,4.4615,4.4615,4.4615,4.391,4.3149,4.2337,4.1644,4.0916,4.013,4.0096,4.0096,4.0096,4.0096,4.0096,4.0096,4.0096,4.0096,4.0096,4.0096,4.0096,4.0096,4.0096,4.0096,4.0096,4.0096,3.9673,3.8988,3.8937,3.8065,3.6795,3.6745,3.6231,3.56,3.56,3.56,3.56,3.56,3.56,3.56,3.56,3.56,3.56,3.56,3.56,3.56,3.56,3.56,3.56,3.56,3.56,3.56,3.56,3.56,3.56,3.56,3.56,3.56,3.56,3.56,3.56,3.56,3.56,3.56,3.56,3.56,3.56,3.56,3.56,3.56,3.56,3.56,3.56,3.56,3.56,3.56,3.56,3.56,3.5616,3.5667,3.5735,3.5752,3.5769,3.6502,3.6914,3.6981,3.7652,3.8024,3.8501,0.0,4.1162,4.1162,4.0891,4.062,0.0,4.035,4.0096,4.0096,4.0096,4.0096,4.0096,4.0096,4.0468,4.1593,4.2066,4.2168,4.1839,4.2726,4.3832,4.5026,4.501,4.4823,4.4632,4.4615,4.4615,4.4615,4.4429,4.3724,4.2354,4.2134,4.1424,4.0146,4.0096,4.0096,4.0096,4.0096,4.0096,4.0096,4.0096,4.0096,4.0096,4.0096,4.0096,4.0096,4.0096,4.0096,4.0096,4.0096,3.9673,3.8937,3.8379,3.7601,3.6728,3.6113,3.5752,3.56,3.56,3.56,3.56,3.56,3.56,3.56,3.56,3.56,3.56,3.56,3.56,3.56,3.56,3.56,3.56,3.56,3.56,3.56,3.56,3.56,3.56,3.56,3.56,3.56,3.56,3.56,3.56,3.56,3.56,3.56,3.56,3.56,3.56,3.56,3.56,3.56,3.56,3.56,3.56,3.56,3.56,3.56,3.56,3.56,3.5893,3.6524,3.7077,3.7364,3.7364,3.755,3.7922,3.8481,3.865,3.9039,3.7573,3.8941,4.0182,4.0527,4.0595,4.0595,4.0595,4.035,4.0096,4.0096,4.0096,4.0096,4.0096,4.0096,4.0367,4.1179,4.1559,4.2151,4.3227,4.3081,4.3589,4.5483,4.5399,4.5026,4.4649,4.4615,4.4615,4.4615,4.4615,4.409,4.2878,4.2472,4.1779,4.0629,4.0282,4.0096,4.0096,4.0096,4.0096,4.0096,4.0096,4.0096,4.0096,4.0096,4.0096,4.0096,4.0096,4.0096,4.0079,3.974,3.9157,3.8413,3.7686,3.6924,3.6197,3.5752,3.56,3.56,3.56,3.56,3.565,3.6045,3.591,3.5667,3.6045,3.6146,3.6146,3.6146,3.6146,3.6231,3.6586,3.6648,3.6586,3.6231,3.6146,3.6045,3.5667,3.56,3.56,3.56,3.56,3.56,3.56,3.56,3.56,3.56,3.56,3.56,3.56,3.56,3.56,3.56,3.5943,3.6146,3.6146,3.6468,3.6518,3.618,3.6146,3.6299,3.6631,3.6648,3.6874,3.7297,3.7702,3.7905,3.7905,3.8244,3.8616,3.9005,3.9368,3.9723,3.773,3.9085,4.0382,4.0912,4.1119,4.117,4.1068,4.0544,4.0096,4.0096,4.0096,4.0096,4.0096,4.0197,4.0316,4.0417,4.1153,4.2506,4.4801,4.3876,4.369,4.5652,4.5314,4.4852,4.4632,4.4615,4.4615,4.4615,4.4615,4.4231,4.3426,4.2692,4.1965,4.1221,4.0485,4.0096,4.0096,4.0096,4.0096,4.0096,4.0096,4.0096,4.0096,4.0096,4.0096,4.0096,3.9994,3.9943,3.9876,3.9123,3.8396,3.7669,3.7026,3.6299,3.56,3.56,3.56,3.56,3.56,3.56,3.5718,3.6535,3.6332,3.5943,3.6721,3.6981,3.6998,3.71,3.7049,3.7094,3.7736,3.7905,3.7736,3.7134,3.688,3.6637,3.6056,3.5769,3.5633,3.5752,3.5667,3.56,3.56,3.56,3.5633,3.5752,3.5769,3.5819,3.5938,3.5955,3.5955,3.5955,3.6552,3.6981,3.6981,3.7533,3.7686,3.7168,3.7032,3.7246,3.7872,3.8024,3.8075,3.8075,3.8176,3.8244,3.8244,3.8853,3.9157,3.9174,3.9808,4.0096,3.8332,3.9861,4.0895,4.039,4.073,4.1035,4.0417,4.018,4.0096,4.0096,4.0096,4.0096,4.0096,4.0595,4.1238,4.1847,4.3159,4.484,4.709,4.665,4.6227,4.6583,4.6515,4.5957,4.4733,4.4615,4.4615,4.4615,4.4615,4.4231,4.3426,4.2692,4.1965,4.1221,4.0485,4.0096,4.0096,4.0096,4.0096,4.0096,4.0096,4.0096,4.0096,4.0096,4.0096,4.0079,3.9453,3.9157,3.9106,3.8379,3.7635,3.6965,3.6846,3.6299,3.56,3.56,3.56,3.56,3.56,3.56,3.5718,3.6535,3.6728,3.6761,3.7499,3.7736,3.7855,3.8481,3.821,3.777,3.7872,3.7905,3.7872,3.777,3.7246,3.6948,3.7449,3.6512,3.5785,3.6468,3.6079,3.56,3.56,3.56,3.5819,3.6502,3.6626,3.684,3.7483,3.7567,3.7567,3.7567,3.7669,3.7736,3.7736,3.7838,3.8125,3.8616,3.8075,3.7787,3.7905,3.8497,3.8819,3.8819,3.9453,3.9774,3.9774,3.9893,3.9943,3.9943,4.0045,4.0096,3.7896,3.9121,4.0185,4.1086,4.1847,4.232,4.1965,4.1271,4.0679,4.0679,4.0383,4.0231,4.0612,4.1288,4.2168,4.3335,4.4141,4.5241,4.7056,4.7005,4.6786,4.6786,4.6786,4.621,4.475,4.4615,4.4615,4.4615,4.4615,4.4231,4.3426,4.2692,4.1965,4.1221,4.0485,4.0096,4.0096,4.0096,4.0096,4.0096,4.0096,3.9893,3.952,3.952,3.9276,3.8886,3.8548,3.8413,3.8345,3.7601,3.7117,3.6761,3.6315,3.5943,3.56,3.56,3.56,3.56,3.56,3.5893,3.6383,3.7144,3.7381,3.7533,3.8261,3.8481,3.8565,3.8903,3.8751,3.8582,3.8988,3.9089,3.8988,3.8582,3.8227,3.7956,3.7922,3.7324,3.6935,3.7313,3.711,3.6834,3.6834,3.6834,3.6975,3.733,3.7381,3.7516,3.7872,3.7905,3.7905,3.7905,3.8261,3.8481,3.8481,3.8853,3.9056,3.8988,3.9056,3.9089,3.9089,3.9394,3.9605,3.9605,3.9943,4.0096,4.0096,4.0096,4.0096,4.0096,4.0096,4.0096,3.7632,3.8621,3.9727,4.199,4.2861,4.325,4.3606,4.2675,4.1779,4.1965,4.139,4.1035,4.161,4.2472,4.347,4.4654,4.5309,4.6007,4.7158,4.7158,4.6989,4.6802,4.665,4.6024,4.4733,4.4445,4.4316,4.4316,4.4175,4.3775,4.3183,4.2439,4.1779,4.1221,4.0485,4.0096,4.0096,4.0096,4.0096,4.0096,3.9926,3.9554,3.8988,3.8819,3.843,3.7889,3.7719,3.7652,3.7584,3.6823,3.6502,3.6451,3.5836,3.56,3.56,3.56,3.5718,3.5893,3.5893,3.64,3.7161,3.7922,3.8159,3.8311,3.9022,3.9242,3.9242,3.9242,3.9242,3.9402,3.996,4.0096,3.996,3.9402,3.9123,3.8886,3.8497,3.8142,3.7956,3.8125,3.8024,3.7905,3.7905,3.7905,3.7973,3.8142,3.8159,3.8227,3.8396,3.8413,3.8413,3.8413,3.892,3.9242,3.9242,3.9791,3.9859,3.9276,3.9791,4.0096,4.0096,4.0096,4.0096,4.0096,4.0096,4.0096,4.0096,4.0096,4.0096,4.0096,4.0096,4.0096,3.8396,3.9397,4.0541,4.2772,4.2861,4.2743,4.4192,4.3859,4.3453,4.4181,4.3724,4.3172,4.3223,4.4468,4.55,4.5602,4.7344,4.8714,4.8832,4.8257,4.7581,4.687,4.6194,4.5466,4.4682,4.3927,4.3504,4.3504,4.2844,4.2422,4.2371,4.1677,4.1255,4.1204,4.0485,4.0096,4.0096,4.0096,4.0096,4.0096,3.9419,3.9039,3.8971,3.8294,3.7956,3.7872,3.7161,3.688,3.6829,3.6028,3.5684,3.5667,3.5616,3.56,3.56,3.56,3.6079,3.6711,3.6711,3.7195,3.7939,3.8667,3.892,3.9056,3.9808,4.0028,4.0028,4.0028,4.0028,4.0028,4.0096,4.0096,4.0096,4.0028,3.9503,3.9157,3.9808,3.887,3.8108,3.8785,3.8379,3.7905,3.7905,3.7905,3.8142,3.8819,3.892,3.9157,3.9859,3.9943,3.9943,3.9943,3.9994,4.0028,4.0028,4.0079,4.0079,4.0028,4.0079,4.0096,4.0096,4.0096,4.0096,4.0096,4.0096,4.0096,4.0096,4.0096,4.0096,4.0096,4.0096,4.0096,3.7107,3.8112,3.9376,4.2051,4.2861,4.3386,4.4925,4.506,4.4925,4.5213,4.5043,4.4705,4.4231,4.4993,4.5855,4.6312,4.7851,4.9001,4.9001,4.8376,4.7479,4.6261,4.5449,4.4519,4.3295,4.2878,4.2726,4.2726,4.2033,4.1407,4.0976,4.0679,4.0324,3.9851,4.0011,4.0096,4.0096,4.0096,4.0096,4.0096,3.9825,3.9191,3.8311,3.8041,3.7381,3.6445,3.618,3.6062,3.6045,3.5718,3.56,3.56,3.56,3.56,3.565,3.6163,3.6535,3.688,3.7313,3.7973,3.8633,3.8903,3.9292,3.974,4.0028,4.0096,4.0096,4.0096,4.0096,4.0096,4.0096,4.0096,4.0096,4.0096,3.9893,3.9757,4.0045,3.9673,3.9368,3.9639,3.9469,3.9259,3.9259,3.9259,3.9343,3.9656,3.969,3.9791,4.0062,4.0096,4.0096,4.0096,4.0096,4.0096,4.0096,4.0096,4.0096,4.0096,4.0096,4.0096,4.0096,4.0096,4.0096,4.0096,4.0096,4.0096,4.0096,4.0096,4.0096,4.0096,4.0096,4.0096,3.6371,3.729,3.8509,4.1275,4.2692,4.3798,4.5365,4.5889,4.6177,4.665,4.638,4.5754,4.4784,4.5382,4.6143,4.6413,4.7885,4.8934,4.8697,4.8037,4.7022,4.5534,4.4671,4.3707,4.2405,4.2083,4.1948,4.1948,4.1271,4.0527,3.9791,3.9969,3.9665,3.8684,3.9385,3.9757,3.9757,3.9757,3.9876,4.0096,4.0096,3.9445,3.8244,3.8024,3.7212,3.5994,3.5994,3.5819,3.56,3.56,3.56,3.56,3.56,3.56,3.5701,3.6485,3.6948,3.7246,3.799,3.8717,3.9368,3.9368,3.9706,4.0096,4.0096,4.0096,4.0096,4.0096,4.0096,4.0096,4.0096,4.0096,4.0096,4.0096,4.0096,4.0096,4.0096,4.0096,4.0096,4.0096,4.0096,4.0096,4.0096,4.0096,4.0096,4.0096,4.0096,4.0096,4.0096,4.0096,4.0096,4.0096,4.0096,4.0096,4.0096,4.0096,4.0096,4.0096,4.0096,4.0096,4.0096,4.0096,4.0096,4.0096,4.0096,4.0096,4.0096,4.0096,4.0096,4.0096,4.0096,4.0096,3.6524,3.7274,3.8355,4.0601,4.231,4.3815,4.5382,4.6295,4.7242,4.8714,4.7834,4.6346,4.4902,4.5805,4.6549,4.5821,4.7564,4.8731,4.7973,4.7259,4.6227,4.4767,4.3876,4.3098,4.2337,4.1627,4.1187,4.1187,4.0493,3.9774,3.9039,3.969,3.9394,3.7973,3.8616,3.8988,3.9005,3.8988,3.9385,4.0096,4.0096,3.9723,3.8971,3.8244,3.7499,3.6795,3.6795,3.6332,3.56,3.56,3.56,3.56,3.56,3.56,3.5701,3.6502,3.7263,3.8024,3.8751,3.9503,4.0096,4.0096,4.0096,4.0096,4.0096,4.0096,4.0096,4.0096,4.0096,4.0096,4.0096,4.0096,4.0096,4.0096,4.0096,4.0096,4.0096,4.0096,4.0096,4.0096,4.0096,4.0096,4.0096,4.0096,4.0096,4.0096,4.0096,4.0096,4.0096,4.0096,4.0096,4.0096,4.0096,4.0096,4.0096,4.0096,4.0096,4.0096,4.0096,4.0096,4.0096,4.0096,4.0096,4.0096,4.0096,4.0096,4.0096,4.0096,4.0096,4.0096,4.0096,4.0096,3.4395,3.6169,3.8351,4.0056,4.2769,4.5415,4.6891,4.7834,4.8612,4.9576,4.8173,4.6667,4.621,4.6498,4.6549,4.5821,4.7124,4.7986,4.7225,4.6024,4.4874,4.3876,4.2642,4.1559,4.0823,4.057,4.0434,4.0434,3.9732,3.9225,3.9005,3.8717,3.8582,3.8667,3.8379,3.8717,3.9774,3.9242,3.9385,4.0096,4.0096,3.9723,3.8988,3.8768,3.7973,3.6795,3.6795,3.6332,3.56,3.56,3.56,3.56,3.56,3.56,3.5752,3.7094,3.7719,3.8091,3.9351,3.9926,4.0096,4.0096,4.0096,4.0096,4.0096,4.0096,4.0096,4.0096,4.0096,4.0096,4.0096,4.0096,4.0096,4.0096,4.0096,4.0096,4.0096,4.0096,4.0096,4.0096,4.0096,4.0096,4.0096,4.0096,4.0096,4.0096,4.0096,4.0096,4.0096,4.0096,4.0096,4.0096,4.0096,4.0096,4.0096,4.0096,4.0096,4.0096,4.0096,4.0096,4.0096,4.0096,4.0096,4.0096,4.0096,4.0096,4.0096,4.0096,4.0096,4.0096,4.0096,4.0096,3.5083,3.6956,3.9192,4.1017,4.3597,4.6177,4.7936,4.8697,4.9137,4.956,4.8376,4.7242,4.7242,4.7242,4.7005,4.6261,4.7141,4.7547,4.6515,4.5331,4.4209,4.3098,4.1931,4.0916,4.018,4.0096,4.0096,4.0096,3.9706,3.9292,3.9005,3.8853,3.87,3.8565,3.8413,3.8751,3.9656,3.9208,3.9385,4.0096,3.9808,3.9436,3.9005,3.9292,3.8616,3.7195,3.6586,3.6045,3.56,3.56,3.56,3.56,3.56,3.56,3.5785,3.7324,3.7905,3.8125,3.9605,4.0096,4.0096,4.0096,4.0096,4.0096,4.0096,4.0096,4.0096,4.0096,4.0096,4.0096,4.0096,4.0096,4.0096,4.0096,4.0096,4.0096,4.0096,4.0096,4.0096,4.0096,4.0096,4.0096,4.0096,4.0096,4.0096,4.0096,4.0096,4.0096,4.0096,4.0096,4.0096,4.0096,4.0096,4.0096,4.0096,4.0096,4.0096,4.0096,4.0096,4.0096,4.0096,4.0096,4.0096,4.0096,4.0096,4.0096,4.0096,4.0096,4.0096,4.0096,4.0096,4.0096,3.7135,3.8736,4.0536,4.274,4.4643,4.6532,4.8545,4.9001,4.9001,4.9001,4.8477,4.799,4.799,4.7939,4.7682,4.6921,4.731,4.7225,4.5805,4.4891,4.3887,4.2455,4.1593,4.0832,4.018,4.0096,4.0096,4.0096,4.0096,3.9808,3.9123,3.9673,3.9436,3.8142,3.8616,3.8954,3.9089,3.8954,3.9259,3.9994,3.9242,3.8903,3.892,3.9605,3.9157,3.7821,3.6259,3.5633,3.5701,3.5633,3.56,3.56,3.56,3.5633,3.5887,3.7364,3.7939,3.821,3.9622,4.0096,4.0096,4.0096,4.0096,4.0096,4.0096,4.0096,4.0096,4.0096,4.0096,4.0096,4.0096,4.0096,4.0096,4.0096,4.0096,4.0096,4.0096,4.0096,4.0096,4.0096,4.0096,4.0096,4.0096,4.0096,4.0096,4.0096,4.0096,4.0096,4.0096,4.0096,4.0096,4.0096,4.0096,4.0096,4.0096,4.0096,4.0096,4.0096,4.0096,4.0096,4.0096,4.0096,4.0096,4.0096,4.0096,4.0096,4.0096,4.0096,4.0096,4.0096,4.0096,4.0096,3.4516,3.7574,4.111,4.219,4.5405,4.8409,4.89,4.9001,4.9001,4.9001,4.8883,4.8765,4.8765,4.8308,4.7682,4.6921,4.6447,4.5872,4.4942,4.3667,4.2658,4.2337,4.1145,4.0282,4.013,4.0096,4.0096,4.0096,4.0096,4.0028,3.9876,3.9469,3.9368,3.9622,3.865,3.8684,3.9859,3.8717,3.8514,3.9249,3.8481,3.8142,3.8142,3.8311,3.821,3.7821,3.6259,3.596,3.6485,3.5853,3.56,3.56,3.56,3.5994,3.6637,3.7567,3.8278,3.8886,3.9791,4.0096,4.0096,4.0096,4.0096,4.0096,4.0096,4.0096,4.0096,4.0096,4.0096,4.0096,4.0096,4.0096,4.0096,4.0096,4.0096,4.0096,4.0096,4.0096,4.0096,4.0096,4.0096,4.0096,4.0096,4.0096,4.0096,4.0096,4.0096,4.0096,4.0096,4.0096,4.0096,4.0096,4.0096,4.0096,4.0096,4.0096,4.0096,4.0096,4.0096,4.0096,4.0096,4.0096,4.0096,4.0096,4.0096,4.0096,4.0096,4.0096,4.0096,4.0096,4.0096,4.0096,3.523,3.767,4.0578,4.315,4.6417,4.9001,4.9001,4.9001,4.89,4.8562,4.8765,4.89,4.8545,4.8173,4.7547,4.6447,4.5957,4.5314,4.4181,4.3031,4.2168,4.1813,4.079,4.0096,4.0096,4.0096,4.0096,4.0096,4.0096,4.0096,4.0096,3.974,3.9706,4.0096,3.9005,3.8802,3.9571,3.8464,3.8091,3.8464,3.7719,3.7178,3.68,3.7195,3.7364,3.7313,3.6129,3.5836,3.6197,3.5769,3.56,3.56,3.56,3.6096,3.6897,3.7635,3.8362,3.9106,3.9842,4.0096,4.0096,4.0096,4.0096,4.0096,4.0096,4.0096,4.0096,4.0096,4.0096,4.0096,4.0096,4.0096,4.0096,4.0096,4.0096,4.0096,4.0096,4.0096,4.0096,4.0096,4.0096,4.0096,4.0096,4.0096,4.0096,4.0096,4.0096,4.0096,4.0096,4.0096,4.0096,4.0096,4.0096,4.0096,4.0096,4.0096,4.0096,4.0096,4.0096,4.0096,4.0096,4.0096,4.0096,4.0096,4.0096,4.0096,4.0096,4.0096,4.0096,4.0096,4.0096,4.0096,3.6337,3.7916,3.9942,4.4377,4.6972,4.8442,4.8582,4.8629,4.846,4.7851,4.8308,4.8595,4.7868,4.7631,4.7111,4.5906,4.5602,4.5026,4.3595,4.2777,4.2016,4.1288,4.0544,4.0096,4.0096,4.0096,4.0096,4.0096,4.0096,4.0096,4.0096,4.0096,4.0045,3.991,3.9334,3.8937,3.8802,3.8075,3.7719,3.7702,3.6941,3.6231,3.5616,3.6282,3.6677,3.6761,3.596,3.5667,3.5785,3.565,3.56,3.5616,3.5752,3.6299,3.7083,3.7821,3.8565,3.9276,3.9893,4.0096,4.0096,4.0096,4.0096,4.0096,4.0096,4.0096,4.0096,4.0096,4.0096,4.0096,4.0096,4.0096,4.0096,4.0096,4.0096,4.0096,4.0096,4.0096,4.0096,4.0096,4.0096,4.0096,4.0096,4.0096,4.0096,4.0096,4.0096,4.0096,4.0096,4.0096,4.0096,4.0096,4.0096,4.0096,4.0096,4.0096,4.0096,4.0096,4.0096,4.0096,4.0096,4.0096,4.0096,4.0096,4.0096,4.0096,4.0096,4.0096,4.0096,4.0096,4.0096,4.0096,3.3953,3.6794,4.0588,4.4507,4.5737,4.6184,4.6907,4.709,4.7056,4.6955,4.753,4.7834,4.7073,4.643,4.594,4.5737,4.5162,4.4418,4.3511,4.2777,4.2016,4.1288,4.0544,4.0096,4.0096,4.0096,4.0096,4.0096,4.0096,4.0096,4.0096,4.0096,3.9808,3.9157,3.9039,3.8684,3.8058,3.7313,3.6948,3.6948,3.6146,3.5701,3.56,3.5701,3.6146,3.6761,3.596,3.6011,3.6592,3.5893,3.56,3.5667,3.6366,3.7094,3.7838,3.8582,3.9334,3.9977,4.0079,4.0096,4.0096,4.0096,4.0096,4.0096,4.0096,4.0096,4.0096,4.0096,4.0096,4.0096,4.0096,4.0096,4.0096,4.0096,4.0096,4.0096,4.0096,4.0096,4.0096,4.0096,4.0096,4.0096,4.0096,4.0096,4.0096,4.0096,4.0096,4.0096,4.0096,4.0096,4.0096,4.0096,4.0096,4.0096,4.0096,4.0096,4.0096,4.0096,4.0096,4.0096,4.0096,4.0096,4.0096,4.0096,4.0096,4.0096,4.0096,4.0096,4.0096,4.0096,4.0096,4.0096,3.4077,3.7432,4.0841,4.2917,4.448,4.5619,4.5993,4.6455,4.6667,4.6261,4.6109,4.594,4.5647,4.4925,4.4299,4.3859,4.3521,4.3031,4.2286,4.1897,4.1407,4.0663,4.0316,4.0096,4.0096,4.0096,4.0096,4.0096,4.0096,4.0096,4.0096,3.9723,3.9351,3.9005,3.8193,3.7601,3.728,3.6518,3.6129,3.6129,3.5752,3.56,3.56,3.56,3.5785,3.6113,3.5752,3.5785,3.6096,3.5735,3.56,3.5667,3.6508,3.7246,3.799,3.8717,3.9486,4.0096,4.0096,4.0096,4.0096,4.0096,4.0096,4.0096,4.0096,4.0096,4.0096,4.0096,4.0096,4.0096,4.0096,4.0096,4.0096,4.0096,4.0096,4.0096,4.0096,4.0096,4.0096,4.0096,4.0096,4.0096,4.0096,4.0096,4.0096,4.0096,4.0096,4.0096,4.0096,4.0096,4.0096,4.0096,4.0096,4.0096,4.0096,4.0096,4.0096,4.0096,4.0096,4.0096,4.0096,4.0096,4.0096,4.0096,4.0096,4.0096,4.0096,4.0096,4.0096,4.0096,4.0096,4.0096,3.4195,3.6917,3.9241,4.0445,4.2154,4.3661,4.4278,4.4893,4.5264,4.4914,4.4248,4.3752,4.3752,4.3403,4.2946,4.2388,4.2286,4.2033,4.1305,4.1204,4.0933,4.0197,4.0096,4.0028,3.9842,3.9825,3.9757,3.9554,3.9723,3.9825,3.9825,3.9317,3.8903,3.8717,3.7472,3.6711,3.6485,3.591,3.56,3.56,3.56,3.56,3.56,3.56,3.56,3.56,3.56,3.56,3.56,3.56,3.5718,3.5994,3.6755,3.7516,3.8278,3.9005,3.9639,4.0096,4.0096,4.0096,4.0096,4.0096,4.0096,4.0096,4.0096,4.0096,4.0096,4.0096,4.0096,4.0096,4.0096,4.0096,4.0096,4.0096,4.0096,4.0096,4.0096,4.0096,4.0096,4.0096,4.0096,4.0096,4.0096,4.0096,4.0096,4.0096,4.0096,4.0096,4.0096,4.0096,4.0096,4.0096,4.0096,4.0096,4.0096,4.0096,4.0096,4.0096,4.0096,4.0096,4.0096,4.0096,4.0096,4.0096,4.0096,4.0096,4.0096,4.0096,4.0096,4.0096,4.0096,4.0096,3.3215,3.3725,3.4513,3.7249,3.7997,3.8684,4.0922,4.1477,4.1676,4.2321,4.188,4.139,4.139,4.1914,4.2337,4.2303,4.2286,4.2033,4.1305,4.1204,4.0933,4.0197,4.0096,3.9842,3.9123,3.9056,3.8768,3.8075,3.8667,3.9056,3.9056,3.9005,3.8684,3.799,3.7195,3.6417,3.5667,3.5616,3.56,3.56,3.56,3.56,3.56,3.56,3.56,3.56,3.56,3.56,3.56,3.56,3.6045,3.6812,3.755,3.8294,3.9022,3.9774,4.0079,4.0096,4.0096,4.0096,4.0096,4.0096,4.0096,4.0096,4.0096,4.0096,4.0096,4.0096,4.0096,4.0096,4.0096,4.0096,4.0096,4.0096,4.0096,4.0096,4.0096,4.0096,4.0096,4.0096,4.0096,4.0096,4.0096,4.0096,4.0096,4.0096,4.0096,4.0096,4.0096,4.0096,4.0096,4.0096,4.0096,4.0096,4.0096,4.0096,4.0096,4.0096,4.0096,4.0096,4.0096,4.0096,4.0096,4.0096,4.0096,4.0096,4.0096,4.0096,4.0096,4.0096,4.0096,4.0096,3.3245,3.3799,3.4491,3.5938,3.7012,3.7919,3.8773,4.0118,4.1274,4.1544,4.1376,4.1204,4.1204,4.1018,4.0891,4.0891,4.0891,4.0807,4.0536,4.0476,4.0417,4.013,4.0096,3.9994,3.974,3.9723,3.9394,3.8667,3.8853,3.8785,3.8328,3.7838,3.7472,3.7195,3.6434,3.5887,3.56,3.56,3.56,3.56,3.56,3.56,3.56,3.56,3.56,3.56,3.56,3.56,3.56,3.56,3.5752,3.6163,3.7415,3.8075,3.8447,3.9656,4.0096,4.0096,4.0096,4.0096,4.0096,4.0096,4.0096,4.0096,4.0096,4.0096,4.0096,4.0096,4.0096,4.0096,4.0096,4.0096,4.0096,4.0096,4.0096,4.0096,4.0096,4.0096,4.0096,4.0096,4.0096,4.0096,4.0096,4.0096,4.0096,4.0096,4.0096,4.0096,4.0096,4.0096,4.0096,4.0096,4.0096,4.0096,4.0096,4.0096,4.0096,4.0096,4.0096,4.0096,4.0096,4.0096,4.0096,4.0096,4.0096,4.0096,4.0096,4.0096,4.0096,4.0096,4.0096,4.0096,3.2721,3.3155,3.3709,3.4607,3.5411,3.6261,3.7389,3.874,4.0001,4.0938,4.0969,4.0899,4.1153,4.0595,4.0096,4.0096,4.0096,4.0096,4.0096,4.0096,4.0096,4.0096,4.0096,4.0011,3.9757,3.974,3.9436,3.8684,3.8633,3.8413,3.7939,3.7218,3.6694,3.64,3.5893,3.56,3.56,3.56,3.56,3.56,3.56,3.56,3.56,3.56,3.56,3.56,3.56,3.56,3.56,3.56,3.5904,3.6462,3.7516,3.821,3.8751,3.974,4.0096,4.0096,4.0096,4.0096,4.0096,4.0096,4.0096,4.0096,4.0096,4.0096,4.0096,4.0096,4.0096,4.0096,4.0096,4.0096,4.0096,4.0096,4.0096,4.0096,4.0096,4.0096,4.0096,4.0096,4.0096,4.0096,4.0096,4.0096,4.0096,4.0096,4.0096,4.0096,4.0096,4.0096,4.0096,4.0096,4.0096,4.0096,4.0096,4.0096,4.0096,4.0096,4.0096,4.0096,4.0096,4.0096,4.0096,4.0096,4.0096,4.0096,4.0096,4.0096,4.0096,4.0096,4.0096,4.0096,0.0,0.0,0.0,3.3125,3.2976,3.3367,3.6692,3.7077,3.7504,4.0283,4.0404,4.0273,4.1009,4.0578,4.0096,4.0096,4.0096,4.0096,4.0096,4.0096,4.0096,4.0096,4.0096,3.9825,3.9089,3.9022,3.8717,3.799,3.7939,3.7922,3.7872,3.7161,3.64,3.5616,3.56,3.56,3.56,3.56,3.56,3.56,3.56,3.56,3.56,3.56,3.56,3.56,3.56,3.56,3.56,3.56,3.6479,3.7838,3.7889,3.8768,4.0045,4.0079,4.0096,4.0096,4.0096,4.0096,4.0096,4.0096,4.0096,4.0096,4.0096,4.0096,4.0096,4.0096,4.0096,4.0096,4.0096,4.0096,4.0096,4.0096,4.0096,4.0096,4.0096,4.0096,4.0096,4.0096,4.0096,4.0096,4.0096,4.0096,4.0096,4.0096,4.0096,4.0096,4.0096,4.0096,4.0096,4.0096,4.0096,4.0096,4.0096,4.0096,4.0096,4.0096,4.0096,4.0096,4.0096,4.0096,4.0096,4.0096,4.0096,4.0096,4.0096,4.0096,4.0096,4.0096,4.0096,4.0096,3.1511,0.0,0.0,0.0,0.0,0.0,3.3713,3.4613,3.5611,3.6823,3.7898,3.88,3.9402,3.9839,4.0096,4.0096,4.0096,4.0096,4.0096,4.0096,4.0096,4.0096,4.0096,4.0028,3.9825,3.9808,3.9503,3.8751,3.87,3.8227,3.7144,3.6366,3.5842,3.56,3.56,3.56,3.56,3.56,3.56,3.56,3.56,3.56,3.56,3.56,3.56,3.56,3.56,3.56,3.56,3.56,3.5853,3.6343,3.7466,3.8159,3.8633,3.9723,4.0096,4.0096,4.0096,4.0096,4.0096,4.0096,4.0096,4.0096,4.0096,4.0096,4.0096,4.0096,4.0096,4.0096,4.0096,4.0096,4.0096,4.0096,4.0096,4.0096,4.0096,4.0096,4.0096,4.0096,4.0096,4.0096,4.0096,4.0096,4.0096,4.0096,4.0096,4.0096,4.0096,4.0096,4.0096,4.0096,4.0096,4.0096,4.0096,4.0096,4.0096,4.0096,4.0096,4.0096,4.0096,4.0096,4.0096,4.0096,4.0096,4.0096,4.0096,4.0096,4.0096,4.0096,4.0096,4.0096,3.1511,3.1511,3.157,3.1854,0.0,0.0,3.314,3.4042,3.5047,3.6227,3.7246,3.8204,3.9227,3.9505,3.9714,4.0045,4.0367,4.0468,4.0146,4.0096,4.0096,4.0096,4.0096,4.0096,4.0096,4.0096,3.9926,3.9503,3.9157,3.8345,3.688,3.6045,3.56,3.56,3.56,3.56,3.56,3.56,3.56,3.56,3.56,3.56,3.56,3.56,3.56,3.56,3.56,3.56,3.56,3.56,3.5785,3.6231,3.7432,3.8091,3.8497,3.9673,4.0096,4.0096,4.0096,4.0096,4.0096,4.0096,4.0096,4.0096,4.0096,4.0096,4.0096,4.0096,4.0096,4.0096,4.0096,4.0096,4.0096,4.0096,4.0096,4.0096,4.0096,4.0096,4.0096,4.0096,4.0096,4.0096,4.0096,4.0096,4.0096,4.0096,4.0096,4.0096,4.0096,4.0096,4.0096,4.0096,4.0096,4.0096,4.0096,4.0096,4.0096,4.0096,4.0096,4.0096,4.0096,4.0096,4.0096,4.0096,4.0096,4.0096,4.0096,4.0096,4.0096,4.0096,4.0096,4.0096,3.1511,3.1511,3.1645,3.2228,3.1929,0.0,3.3754,3.4242,3.4854,3.6755,3.7238,3.7792,3.9212,3.8986,3.8784,3.9504,4.0305,4.0667,4.0273,4.0231,4.0231,4.0231,4.0146,4.0096,4.0096,4.0096,4.0096,4.0096,3.9326,3.8294,3.6998,3.6096,3.56,3.56,3.56,3.56,3.56,3.56,3.56,3.56,3.56,3.56,3.56,3.56,3.56,3.56,3.56,3.56,3.56,3.56,3.6028,3.6745,3.7483,3.8227,3.8954,3.9723,4.0028,4.0096,4.0096,4.0096,4.0096,4.0096,4.0096,4.0096,4.0096,4.0096,4.0096,4.0096,4.0096,4.0096,4.0096,4.0096,4.0096,4.0096,4.0096,4.0096,4.0096,4.0096,4.0096,4.0096,4.0096,4.0096,4.0096,4.0096,4.0096,4.0096,4.0096,4.0096,4.0096,4.0096,4.0096,4.0096,4.0096,4.0096,4.0096,4.0096,4.0096,4.0096,4.018,4.0231,4.0231,4.0299,4.035,4.035,4.0265,4.018,4.0096,4.0096,4.0096,4.0096,4.0096,4.0146,3.1511,3.1511,3.154,3.166,3.16,0.0,3.1989,3.212,3.2402,3.3306,3.4044,3.4754,3.5603,3.6107,3.6476,3.6594,3.7686,3.9056,4.0744,4.0984,4.0984,4.0984,4.0468,4.0096,4.0096,4.0096,4.0096,4.0096,3.887,3.799,3.7702,3.6343,3.56,3.56,3.56,3.56,3.56,3.56,3.56,3.56,3.56,3.56,3.56,3.56,3.56,3.56,3.56,3.56,3.56,3.56,3.5684,3.5904,3.6705,3.7466,3.821,3.8937,3.9605,4.0096,4.0096,4.0096,4.0096,4.0096,4.0096,4.0096,4.0096,4.0096,4.0096,4.0096,4.0096,4.0096,4.0096,4.0096,4.0096,4.0096,4.0096,4.0096,4.0096,4.0096,4.0096,4.0096,4.0096,4.0096,4.0096,4.0096,4.0096,4.0096,4.0096,4.0096,4.0096,4.0096,4.0096,4.0096,4.0096,4.0096,4.0096,4.0096,4.0096,4.0096,4.0646,4.0984,4.0984,4.1542,4.1863,4.1863,4.1288,4.0679,4.0096,4.0096,4.0096,4.0096,4.0096,4.0434,3.1511,3.1511,3.1511,3.1511,3.1511,0.0,0.0,3.1765,3.2093,3.2437,3.3108,3.3824,3.457,3.5002,3.549,3.6169,3.7187,3.8363,3.9857,4.0331,4.0538,4.0538,4.0288,4.0096,4.0096,4.0096,4.0096,4.0096,3.9056,3.8294,3.7922,3.6823,3.6011,3.5616,3.56,3.56,3.56,3.56,3.56,3.56,3.56,3.56,3.56,3.56,3.56,3.56,3.56,3.56,3.56,3.56,3.56,3.5667,3.6508,3.7246,3.799,3.8717,3.9486,4.0096,4.0096,4.0096,4.0096,4.0096,4.0096,4.0096,4.0096,4.0096,4.0096,4.0096,4.0096,4.0096,4.0096,4.0096,4.0096,4.0096,4.0383,4.0646,4.0646,4.0646,4.0747,4.1145,4.0603,4.0096,4.0096,4.0096,4.0096,4.0096,4.0096,4.0096,4.0096,4.0096,4.0096,4.0096,4.0096,4.0096,4.0096,4.0096,4.0096,4.0096,4.0468,4.0815,4.1187,4.1542,4.1914,4.2286,4.1576,4.1018,4.0646,4.0646,4.0468,4.0113,4.0485,4.0849,3.1511,3.1511,3.1511,3.1511,3.1511,3.1511,0.0,0.0,0.0,3.2303,3.2751,3.3322,3.3971,3.4072,3.4472,3.5584,3.6489,3.7234,3.7759,3.8566,3.9231,3.9666,3.994,4.0045,3.9876,4.002,4.0096,4.0096,3.9436,3.8734,3.8142,3.7263,3.6485,3.5836,3.5667,3.56,3.56,3.56,3.56,3.56,3.56,3.56,3.56,3.56,3.56,3.56,3.56,3.56,3.56,3.56,3.5684,3.591,3.6558,3.7246,3.799,3.8717,3.9486,4.0096,4.0096,4.0096,4.0096,4.0096,4.0096,4.0096,4.0096,4.0096,4.0096,4.0096,4.0096,4.0096,4.0096,4.0214,4.0316,4.0316,4.0865,4.1407,4.1407,4.1407,4.1593,4.2168,4.1348,4.0519,4.0519,4.0417,4.0316,4.0316,4.0316,4.0265,4.013,4.0096,4.0096,4.0096,4.0096,4.0096,4.0096,4.0096,4.0096,4.0096,4.0367,4.0807,4.139,4.1694,4.2066,4.2489,4.1931,4.1559,4.1407,4.1407,4.1018,4.0333,4.1068,4.1491,3.1511,3.1511,3.1511,3.1511,3.1511,3.1511,3.1511,0.0,3.1615,3.1615,0.0,3.1749,3.1836,0.0,0.0,3.2084,3.3185,3.403,3.4091,3.5244,3.6827,3.8774,3.9657,3.9808,3.9113,3.9688,4.0096,4.0096,3.9436,3.8954,3.887,3.7574,3.6761,3.6677,3.5977,3.56,3.56,3.56,3.56,3.56,3.56,3.56,3.56,3.56,3.56,3.56,3.56,3.56,3.56,3.56,3.6028,3.6677,3.6761,3.7246,3.799,3.8717,3.9486,4.0096,4.0096,4.0096,4.0096,4.0096,4.0096,4.0096,4.0096,4.0096,4.0096,4.0096,4.0096,4.0096,4.0096,4.0578,4.1085,4.1085,4.1644,4.2168,4.2168,4.2168,4.2202,4.2269,4.2151,4.2033,4.2033,4.1508,4.1085,4.1085,4.1085,4.0832,4.018,4.0096,4.0096,4.0096,4.0096,4.0096,4.0096,4.0096,4.0096,4.0096,4.1348,4.2083,4.2168,4.3498,4.391,4.3274,4.3189,4.2844,4.2168,4.2168,4.1796,4.1085,4.183,4.2523,3.1511,3.1511,3.1511,3.1511,3.1511,3.1511,3.1511,3.1511,3.1511,3.1511,0.0,0.0,0.0,0.0,0.0,0.0,3.2557,3.3066,3.344,3.4407,3.5552,3.6831,3.7337,3.7811,3.8335,3.9428,3.9926,3.9503,3.9571,3.9242,3.8413,3.777,3.7432,3.7432,3.6705,3.6502,3.6918,3.6918,3.6721,3.6299,3.6299,3.6062,3.56,3.56,3.56,3.56,3.56,3.56,3.5633,3.6096,3.6485,3.6897,3.7743,3.8261,3.8582,3.8886,3.9486,4.0096,4.0096,4.0096,4.0096,4.0096,4.0096,4.0096,4.0096,4.0096,4.0096,4.0096,4.0417,4.073,4.073,4.1288,4.183,4.183,4.2405,4.2946,4.2946,4.2946,4.3081,4.3521,4.2895,4.2574,4.3498,4.2625,4.183,4.183,4.183,4.1728,4.1433,4.1382,4.1382,4.1382,4.1382,4.1382,4.1382,4.1382,4.1382,4.1382,4.2354,4.2946,4.2946,4.3995,4.4445,4.4096,4.3656,4.3267,4.2946,4.2946,4.2794,4.2462,4.2794,4.3115,3.2049,3.1914,3.1765,3.1765,3.1645,3.1511,3.1511,3.1511,3.1511,3.1511,3.1511,0.0,0.0,0.0,0.0,0.0,0.0,3.2392,3.2886,3.3467,3.4109,3.4939,3.547,3.6321,3.7807,3.8702,3.9124,3.8984,3.911,3.9008,3.8531,3.8125,3.799,3.821,3.7483,3.7347,3.7905,3.7905,3.7635,3.7117,3.6897,3.6485,3.5926,3.5701,3.56,3.5616,3.5819,3.5943,3.5994,3.6772,3.7235,3.7523,3.8565,3.9106,3.9317,3.9317,3.9656,4.0096,4.0096,4.0096,4.0096,4.0096,4.0096,4.0096,4.0096,4.0248,4.0417,4.0417,4.0933,4.1508,4.1508,4.2049,4.2591,4.2591,4.3183,4.3741,4.3741,4.3741,4.391,4.4496,4.3718,4.3295,4.4412,4.347,4.2591,4.2591,4.2591,4.2523,4.232,4.2286,4.2286,4.2286,4.2286,4.2286,4.2286,4.2286,4.2388,4.2591,4.3115,4.3494,4.3724,4.4282,4.4615,4.4615,4.4028,4.3741,4.3741,4.3741,4.3741,4.3741,4.3741,4.3741,3.344,3.2961,3.2482,3.2482,3.1974,3.1511,3.1511,3.1511,3.1511,3.1511,3.1511,3.1511,3.1511,0.0,0.0,0.0,0.0,0.0,0.0,3.1599,3.2107,3.3395,3.4758,3.6182,3.7652,3.7263,3.7441,3.8799,3.7668,3.7811,3.9935,3.8667,3.8227,3.8937,3.8261,3.7889,3.7905,3.7905,3.7889,3.7872,3.7127,3.6795,3.6745,3.596,3.56,3.5633,3.6417,3.6761,3.6829,3.755,3.8294,3.892,3.8971,3.9453,4.0062,4.0062,4.0079,4.0096,4.0096,4.0096,4.0096,4.0096,4.0096,4.0096,4.0096,4.0595,4.117,4.117,4.1694,4.2252,4.2252,4.2811,4.3358,4.3358,4.3978,4.4564,4.4564,4.4564,4.4581,4.4598,4.4564,4.4547,4.4598,4.391,4.3358,4.3358,4.3358,4.3115,4.2388,4.2286,4.2286,4.2286,4.2286,4.2286,4.2286,4.2286,4.2591,4.3308,4.3375,4.3758,4.453,4.4598,4.4615,4.4615,4.4581,4.4564,4.4564,4.4564,4.4564,4.4564,4.4564,4.4564,3.3499,3.3021,3.2512,3.2512,3.1989,3.1511,3.1511,3.1511,3.163,3.2064,3.1809,3.1645,3.2064,0.0,0.0,0.0,0.0,0.0,0.0,3.1511,3.1824,3.2736,3.4131,3.5038,3.5074,3.6527,3.7278,3.6832,3.7703,3.8361,3.8633,3.8633,3.8954,3.9706,3.9005,3.8853,3.9368,3.9368,3.9106,3.8616,3.8379,3.799,3.7516,3.7263,3.7104,3.7121,3.7415,3.7533,3.7584,3.8311,3.8768,3.9039,3.9554,3.9893,4.0096,4.0096,4.0096,4.0096,4.0096,4.0096,4.0096,4.0096,4.0096,4.0197,4.0679,4.1001,4.1305,4.1779,4.2455,4.3031,4.3031,4.3606,4.4181,4.4181,4.4412,4.4615,4.4615,4.4615,4.4615,4.4615,4.4615,4.4615,4.4615,4.435,4.4181,4.4181,4.4181,4.4096,4.3853,4.3836,4.3836,4.3836,4.3836,4.3836,4.3836,4.3836,4.3938,4.4181,4.4181,4.4316,4.4598,4.4615,4.4615,4.4615,4.4615,4.4615,4.4615,4.4615,4.4615,4.4615,4.4615,4.4615,3.4203,3.3724,3.3215,3.3215,3.2721,3.2198,3.2198,3.2198,3.2318,3.2781,3.2303,3.1989,3.2407,0.0,0.0,0.0,0.0,0.0,0.0,3.1511,3.166,3.2079,3.3196,3.3959,3.3974,3.5147,3.5945,3.6013,3.692,3.7694,3.8246,3.873,3.9351,4.0079,3.9656,3.9622,4.0096,4.0096,3.9859,3.9402,3.9123,3.8751,3.8278,3.8024,3.7905,3.7922,3.8176,3.8294,3.8345,3.9089,3.9402,3.9453,3.991,4.0096,4.0096,4.0096,4.0096,4.0096,4.0096,4.0096,4.0096,4.0096,4.0282,4.0578,4.1068,4.1576,4.2083,4.2557,4.325,4.3826,4.3826,4.4198,4.4615,4.4615,4.4615,4.4615,4.4615,4.4615,4.4615,4.4615,4.4615,4.4615,4.4615,4.4615,4.4615,4.4615,4.4615,4.4615,4.4615,4.4615,4.4615,4.4615,4.4615,4.4615,4.4615,4.4615,4.4615,4.4615,4.4615,4.4615,4.4615,4.4615,4.4615,4.4615,4.4615,4.4615,4.4615,4.4615,4.4615,4.4615,4.4615,4.4615]}]]